[[{"header":{"parameterUnit":"m.s-1","parameterCategory":1,"la1":30.6,"la2":29.2853,"lo1":-89.7004,"lo2":-87.6739,"dy":0.0162,"dx":0.0183,"nx":112,"ny":82,"refTime":"2023-05-28T12:00:00:Z","depth":0,"parameterNumber":2,"parameterNumberName":"U-component_of_WINDS"},"data":[0.0,0.0,0.0,0.0,0.0,0.0,0.0,0.0,0.0,0.0,0.0,0.0,0.0,0.0,0.0,0.0,0.0,0.0,0.0,0.0,0.0,0.0,0.0,0.0,0.0,0.0,0.0,0.0,0.0,0.0,0.0,0.0,0.0,0.0,0.0,0.0,0.0,0.0,0.0,0.0,0.0,0.0,0.0,0.0,0.0,0.0,0.0,0.0,0.0,0.0,0.0,0.0,0.0,0.0,0.0,0.0,0.0,0.0,0.0,0.0,0.0,0.0,0.0,0.0,0.0,0.0,0.0,0.0,0.0,0.0,0.0,0.0,0.0,0.0,0.0,0.0,0.0,0.0,0.0,0.0,0.0,0.0,0.0,0.0,0.0,0.0,0.0,0.0,0.0,0.0,2.3486,2.372,2.5046,2.591,2.591,2.591,2.5043,2.303,0.0,0.0,0.0,0.0,0.0,0.0,0.0,0.0,0.0,0.0,0.0,0.0,0.0,0.0,0.0,0.0,0.0,0.0,0.0,0.0,0.0,0.0,0.0,0.0,0.0,0.0,0.0,0.0,0.0,0.0,0.0,0.0,0.0,0.0,0.0,0.0,0.0,0.0,0.0,0.0,0.0,0.0,0.0,0.0,0.0,0.0,0.0,0.0,0.0,0.0,0.0,0.0,0.0,0.0,0.0,0.0,0.0,0.0,0.0,0.0,0.0,0.0,0.0,0.0,0.0,0.0,0.0,0.0,0.0,0.0,0.0,0.0,0.0,0.0,0.0,0.0,0.0,0.0,0.0,0.0,0.0,0.0,0.0,0.0,0.0,0.0,0.0,0.0,0.0,0.0,0.0,0.0,0.0,0.0,0.0,0.0,0.0,0.0,0.0,0.0,0.0,0.0,0.0,0.0,2.3875,2.5134,2.5649,2.591,2.591,2.591,2.5043,2.303,0.0,0.0,0.0,0.0,0.0,0.0,0.0,0.0,0.0,0.0,0.0,0.0,0.0,0.0,0.0,0.0,0.0,0.0,0.0,0.0,0.0,0.0,0.0,0.0,0.0,0.0,0.0,0.0,0.0,0.0,0.0,0.0,0.0,0.0,0.0,0.0,0.0,0.0,0.0,0.0,0.0,0.0,0.0,0.0,0.0,0.0,0.0,0.0,0.0,0.0,0.0,0.0,0.0,0.0,0.0,0.0,0.0,0.0,0.0,0.0,0.0,0.0,0.0,0.0,0.0,0.0,0.0,0.0,0.0,0.0,0.0,0.0,0.0,0.0,0.0,0.0,0.0,0.0,0.0,0.0,0.0,0.0,0.0,0.0,0.0,0.0,0.0,0.0,0.0,0.0,0.0,0.0,0.0,0.0,0.0,0.0,0.0,0.0,0.0,0.0,0.0,0.0,0.0,2.3036,2.3844,2.5277,2.5518,2.5571,2.5571,2.5571,2.4883,2.3269,2.2628,0.0,0.0,0.0,0.0,0.0,0.0,0.0,0.0,0.0,0.0,0.0,0.0,0.0,0.0,0.0,0.0,0.0,0.0,0.0,0.0,0.0,0.0,0.0,0.0,0.0,0.0,0.0,0.0,0.0,0.0,0.0,0.0,0.0,0.0,0.0,0.0,0.0,0.0,0.0,0.0,0.0,0.0,0.0,0.0,0.0,0.0,0.0,0.0,0.0,0.0,0.0,0.0,0.0,0.0,0.0,0.0,0.0,0.0,0.0,0.0,0.0,0.0,0.0,0.0,0.0,0.0,0.0,0.0,0.0,0.0,0.0,0.0,0.0,0.0,0.0,0.0,0.0,0.0,0.0,0.0,0.0,0.0,0.0,0.0,0.0,0.0,0.0,0.0,0.0,0.0,0.0,0.0,0.0,0.0,0.0,0.0,0.0,0.0,0.0,0.0,0.0,0.0,2.349,2.4111,2.5197,2.5312,2.5312,2.5312,2.5312,2.4729,2.3435,2.2886,0.0,0.0,0.0,0.0,0.0,0.0,0.0,0.0,0.0,0.0,0.0,0.0,0.0,0.0,0.0,0.0,0.0,0.0,0.0,0.0,0.0,0.0,0.0,0.0,0.0,0.0,0.0,0.0,0.0,0.0,0.0,0.0,0.0,0.0,0.0,0.0,0.0,0.0,0.0,0.0,0.0,0.0,0.0,0.0,0.0,0.0,0.0,0.0,0.0,0.0,0.0,0.0,0.0,0.0,0.0,0.0,0.0,0.0,0.0,0.0,0.0,0.0,0.0,0.0,0.0,0.0,0.0,0.0,0.0,0.0,0.0,0.0,0.0,0.0,0.0,0.0,0.0,0.0,0.0,0.0,0.0,0.0,0.0,0.0,0.0,0.0,0.0,0.0,0.0,0.0,0.0,0.0,0.0,0.0,0.0,0.0,0.0,0.0,0.0,0.0,0.0,0.0,2.4343,2.518,2.53,2.5312,2.5312,2.5312,2.5312,2.4707,2.3292,2.2824,0.0,0.0,0.0,0.0,0.0,0.0,0.0,0.0,0.0,0.0,0.0,0.0,0.0,0.0,0.0,0.0,0.0,0.0,0.0,0.0,0.0,0.0,0.0,0.0,0.0,0.0,0.0,0.0,0.0,0.0,0.0,0.0,0.0,0.0,0.0,0.0,0.0,0.0,0.0,0.0,0.0,0.0,0.0,0.0,0.0,0.0,0.0,0.0,0.0,0.0,0.0,0.0,0.0,0.0,0.0,0.0,0.0,0.0,0.0,0.0,0.0,0.0,0.0,0.0,0.0,0.0,0.0,0.0,0.0,0.0,0.0,0.0,0.0,0.0,0.0,0.0,0.0,0.0,0.0,0.0,0.0,0.0,0.0,0.0,0.0,0.0,0.0,0.0,0.0,0.0,0.0,0.0,0.0,0.0,0.0,0.0,0.0,0.0,0.0,0.0,0.0,0.0,2.4507,2.5194,0.0,2.5793,2.5919,2.6279,2.6303,2.5702,2.4284,0.0,0.0,0.0,0.0,0.0,0.0,0.0,0.0,0.0,0.0,0.0,0.0,0.0,0.0,0.0,0.0,0.0,0.0,0.0,0.0,0.0,0.0,0.0,0.0,0.0,0.0,0.0,0.0,0.0,0.0,0.0,0.0,0.0,0.0,0.0,0.0,0.0,0.0,0.0,0.0,0.0,0.0,0.0,0.0,0.0,0.0,0.0,0.0,0.0,0.0,0.0,0.0,0.0,0.0,0.0,0.0,0.0,0.0,0.0,0.0,0.0,0.0,0.0,0.0,0.0,0.0,0.0,0.0,0.0,0.0,0.0,0.0,0.0,0.0,0.0,0.0,0.0,0.0,0.0,0.0,0.0,0.0,0.0,0.0,0.0,0.0,0.0,0.0,0.0,0.0,0.0,0.0,0.0,0.0,0.0,0.0,0.0,0.0,0.0,0.0,0.0,0.0,2.4209,2.4971,2.5689,0.0,2.634,2.6496,2.6861,2.6898,2.6268,2.481,0.0,0.0,0.0,0.0,0.0,0.0,0.0,0.0,0.0,0.0,0.0,0.0,0.0,0.0,0.0,0.0,0.0,0.0,0.0,0.0,0.0,0.0,0.0,0.0,0.0,0.0,0.0,0.0,0.0,0.0,0.0,0.0,0.0,0.0,0.0,0.0,0.0,0.0,0.0,0.0,0.0,0.0,0.0,0.0,0.0,0.0,0.0,0.0,0.0,0.0,0.0,0.0,0.0,0.0,0.0,0.0,0.0,0.0,0.0,0.0,0.0,0.0,0.0,0.0,0.0,0.0,0.0,0.0,0.0,0.0,0.0,0.0,0.0,0.0,0.0,0.0,0.0,0.0,0.0,0.0,0.0,0.0,0.0,0.0,0.0,0.0,0.0,0.0,0.0,0.0,0.0,0.0,0.0,0.0,0.0,0.0,0.0,0.0,0.0,0.0,0.0,0.0,2.4547,2.5901,2.6898,2.691,2.691,2.691,2.691,2.691,2.6225,0.0,0.0,0.0,0.0,0.0,0.0,0.0,0.0,0.0,0.0,0.0,0.0,0.0,0.0,0.0,0.0,0.0,0.0,0.0,0.0,0.0,0.0,0.0,0.0,0.0,0.0,0.0,0.0,0.0,0.0,0.0,0.0,0.0,0.0,0.0,0.0,0.0,0.0,0.0,0.0,0.0,0.0,0.0,0.0,0.0,0.0,0.0,0.0,0.0,0.0,0.0,0.0,0.0,0.0,0.0,0.0,0.0,0.0,0.0,0.0,0.0,0.0,0.0,0.0,0.0,0.0,0.0,0.0,0.0,0.0,0.0,0.0,0.0,0.0,0.0,0.0,0.0,0.0,0.0,0.0,0.0,0.0,0.0,0.0,0.0,0.0,0.0,0.0,0.0,0.0,0.0,0.0,0.0,0.0,0.0,0.0,0.0,0.0,0.0,0.0,0.0,0.0,0.0,2.521,2.622,2.7042,2.7421,2.745,2.7625,2.7998,2.8022,2.7337,2.5733,0.0,0.0,0.0,0.0,0.0,0.0,0.0,0.0,0.0,0.0,0.0,0.0,0.0,0.0,0.0,0.0,0.0,0.0,0.0,0.0,0.0,0.0,0.0,0.0,0.0,0.0,0.0,0.0,0.0,0.0,0.0,0.0,0.0,0.0,0.0,0.0,0.0,0.0,0.0,0.0,0.0,0.0,0.0,0.0,0.0,0.0,0.0,0.0,0.0,0.0,0.0,0.0,0.0,0.0,0.0,0.0,0.0,0.0,0.0,0.0,0.0,0.0,0.0,0.0,0.0,0.0,0.0,0.0,0.0,0.0,0.0,0.0,0.0,0.0,0.0,0.0,0.0,0.0,0.0,0.0,0.0,0.0,0.0,0.0,0.0,0.0,0.0,0.0,0.0,0.0,0.0,0.0,0.0,0.0,0.0,0.0,0.0,0.0,0.0,0.0,0.0,0.0,2.5731,2.6823,2.7661,2.7986,2.8022,2.8142,2.8466,2.849,2.789,2.6514,0.0,0.0,0.0,0.0,0.0,0.0,0.0,0.0,0.0,0.0,0.0,0.0,0.0,0.0,0.0,0.0,0.0,0.0,0.0,0.0,0.0,0.0,0.0,0.0,0.0,0.0,0.0,0.0,0.0,0.0,0.0,0.0,0.0,0.0,0.0,0.0,0.0,0.0,0.0,0.0,0.0,0.0,0.0,0.0,0.0,0.0,0.0,0.0,0.0,0.0,0.0,0.0,0.0,0.0,0.0,0.0,0.0,0.0,0.0,0.0,0.0,0.0,0.0,0.0,0.0,0.0,0.0,0.0,0.0,0.0,0.0,0.0,0.0,0.0,0.0,0.0,0.0,0.0,0.0,0.0,0.0,0.0,0.0,0.0,0.0,0.0,0.0,0.0,0.0,0.0,0.0,0.0,0.0,0.0,0.0,0.0,0.0,0.0,0.0,0.0,0.0,0.0,2.6166,2.7548,2.849,2.849,2.849,2.849,2.849,2.849,2.8058,2.703,0.0,0.0,0.0,0.0,0.0,0.0,0.0,0.0,0.0,0.0,0.0,0.0,0.0,0.0,0.0,0.0,0.0,0.0,0.0,0.0,0.0,0.0,0.0,0.0,0.0,0.0,0.0,0.0,0.0,0.0,0.0,0.0,0.0,0.0,0.0,0.0,0.0,0.0,0.0,0.0,0.0,0.0,0.0,0.0,0.0,0.0,0.0,0.0,0.0,0.0,0.0,0.0,0.0,0.0,0.0,0.0,0.0,0.0,0.0,0.0,2.6778,2.6398,0.0,0.0,0.0,0.0,0.0,0.0,0.0,0.0,0.0,0.0,0.0,0.0,0.0,0.0,0.0,0.0,0.0,0.0,0.0,0.0,0.0,0.0,0.0,0.0,0.0,0.0,0.0,0.0,0.0,0.0,0.0,0.0,0.0,0.0,0.0,0.0,0.0,0.0,0.0,0.0,2.6676,2.7757,2.849,2.849,2.849,2.849,2.849,2.849,2.8214,2.7577,2.6928,0.0,0.0,0.0,0.0,0.0,0.0,0.0,0.0,0.0,0.0,0.0,0.0,0.0,0.0,0.0,0.0,0.0,0.0,0.0,0.0,0.0,0.0,0.0,0.0,0.0,0.0,0.0,0.0,0.0,0.0,0.0,0.0,0.0,0.0,0.0,0.0,0.0,0.0,0.0,0.0,0.0,0.0,0.0,0.0,0.0,0.0,0.0,0.0,0.0,0.0,0.0,0.0,0.0,0.0,0.0,0.0,0.0,0.0,0.0,2.7197,2.6778,0.0,0.0,0.0,0.0,0.0,0.0,0.0,0.0,0.0,0.0,0.0,0.0,0.0,0.0,0.0,0.0,0.0,0.0,0.0,0.0,0.0,0.0,0.0,0.0,0.0,0.0,0.0,0.0,0.0,0.0,0.0,0.0,0.0,0.0,0.0,0.0,0.0,0.0,0.0,0.0,2.7229,2.8214,2.8979,2.9244,2.9268,2.9268,2.9268,2.8834,2.8436,2.8146,2.7398,0.0,0.0,0.0,0.0,0.0,0.0,0.0,0.0,0.0,0.0,0.0,0.0,0.0,0.0,0.0,0.0,0.0,0.0,0.0,0.0,0.0,0.0,0.0,0.0,0.0,0.0,0.0,0.0,0.0,0.0,0.0,0.0,0.0,0.0,0.0,0.0,0.0,0.0,0.0,0.0,0.0,0.0,0.0,0.0,0.0,0.0,0.0,0.0,0.0,0.0,0.0,0.0,0.0,2.9726,2.975,2.975,2.975,2.9591,2.921,2.7291,2.6862,2.748,2.6863,0.0,0.0,0.0,0.0,0.0,0.0,0.0,0.0,0.0,0.0,0.0,0.0,0.0,0.0,0.0,0.0,0.0,0.0,0.0,0.0,0.0,0.0,2.6321,2.642,2.6427,2.6523,2.6911,0.0,0.0,0.0,0.0,0.0,0.0,0.0,0.0,0.0,0.0,0.0,2.7902,2.8674,2.9406,3.0037,2.98,2.9725,3.0065,2.917,2.8601,2.8601,2.7781,2.7202,0.0,0.0,0.0,0.0,0.0,0.0,0.0,0.0,0.0,0.0,0.0,0.0,0.0,0.0,0.0,0.0,0.0,0.0,0.0,0.0,0.0,0.0,0.0,0.0,0.0,0.0,0.0,0.0,0.0,0.0,0.0,0.0,2.5305,2.546,0.0,0.0,0.0,0.0,0.0,0.0,0.0,0.0,0.0,0.0,0.0,0.0,0.0,2.9549,2.9587,2.9833,2.9951,2.9951,3.0172,3.028,3.028,3.028,3.0276,3.0181,2.9357,0.0,2.8793,2.8137,0.0,0.0,0.0,0.0,0.0,0.0,0.0,0.0,0.0,0.0,0.0,0.0,0.0,0.0,0.0,0.0,0.0,0.0,0.0,0.0,0.0,0.0,2.7589,2.8047,2.7913,2.7671,2.7739,2.656,2.5562,2.5913,2.5943,2.5889,0.0,0.0,0.0,0.0,0.0,0.0,2.8967,2.8852,2.9058,2.999,2.8537,2.8201,2.9947,2.917,2.8601,2.8601,2.8475,2.7964,2.7033,2.6926,0.0,0.0,0.0,0.0,0.0,0.0,0.0,0.0,0.0,0.0,0.0,0.0,0.0,0.0,0.0,0.0,0.0,0.0,0.0,0.0,0.0,0.0,0.0,0.0,0.0,0.0,0.0,0.0,0.0,2.499,2.6352,2.706,2.7769,2.8126,0.0,0.0,0.0,0.0,0.0,0.0,0.0,0.0,0.0,2.9821,3.0153,3.0236,3.0053,3.0178,3.0398,3.0723,3.0474,3.049,3.0778,3.0403,3.0221,3.0208,2.9632,2.9329,2.9174,2.8774,2.8745,2.8947,0.0,0.0,0.0,0.0,2.8553,2.8672,2.8439,2.8375,2.8336,2.8113,0.0,0.0,0.0,0.0,0.0,0.0,0.0,2.6967,2.7464,2.7656,2.7914,2.8751,2.861,2.8386,2.8668,2.7909,2.7049,2.6738,2.6626,2.6598,2.6598,2.6654,0.0,0.0,0.0,2.7415,2.8189,2.7986,2.8043,2.8791,2.8092,2.7911,2.8791,2.7945,2.7363,2.7363,2.7363,2.7159,2.6676,2.6778,2.6485,0.0,0.0,0.0,0.0,0.0,0.0,0.0,0.0,0.0,0.0,0.0,0.0,0.0,0.0,0.0,0.0,0.0,0.0,0.0,0.0,0.0,0.0,0.0,0.0,0.0,0.0,0.0,0.0,2.6223,2.74,2.8437,2.8478,2.8423,0.0,0.0,0.0,0.0,0.0,0.0,2.9909,3.0197,3.027,3.0068,3.0521,3.0714,3.0577,3.0725,3.1021,3.1469,3.0958,3.0917,3.1289,3.0804,3.0572,3.0527,2.9986,2.9739,2.9682,2.9101,2.8753,2.859,2.8664,2.8824,2.8939,2.8769,2.8925,2.9147,2.8496,2.8282,2.8257,2.8119,2.7896,2.7853,2.8635,0.0,0.0,0.0,0.0,2.7539,2.7952,2.8103,2.8303,2.8955,2.8779,2.857,2.8963,2.863,2.8099,2.7577,2.744,2.7373,2.7234,2.7087,0.0,2.7108,0.0,2.6835,2.7511,2.72,2.7169,2.7834,2.7429,2.7334,2.7853,2.6989,2.6402,2.6402,2.6402,2.6498,2.6699,2.6843,2.6955,2.6978,0.0,0.0,0.0,0.0,0.0,0.0,0.0,0.0,0.0,0.0,0.0,0.0,0.0,0.0,0.0,0.0,0.0,0.0,0.0,0.0,0.0,0.0,0.0,0.0,0.0,0.0,0.0,0.0,0.0,2.9473,2.9253,0.0,0.0,0.0,0.0,3.1188,3.1241,3.1121,3.0845,3.032,3.0102,3.0273,3.0367,3.0631,3.1066,3.1625,3.1934,3.1954,3.1881,3.182,3.1859,3.1818,3.1818,3.1778,3.1179,3.0901,3.0801,2.9194,2.907,2.9847,2.922,2.9373,2.9863,2.9214,2.88,2.8541,2.8489,2.8486,2.8401,2.7895,2.77,2.7798,2.8356,2.8485,0.0,0.0,2.9165,2.919,2.9288,2.932,2.9207,2.8752,2.8321,2.8038,2.8061,2.7637,2.7521,2.8358,2.8523,2.8362,2.784,0.0,2.6886,2.7392,2.6809,2.6704,2.7755,2.7032,2.6802,2.7795,2.6196,2.5819,2.7735,2.6989,2.6402,2.6402,2.6402,2.6737,2.7518,2.7539,2.7597,2.7725,2.7739,0.0,0.0,0.0,0.0,0.0,0.0,0.0,0.0,0.0,0.0,0.0,0.0,0.0,0.0,0.0,0.0,0.0,0.0,0.0,0.0,0.0,0.0,0.0,0.0,0.0,0.0,0.0,0.0,3.0023,3.0204,0.0,3.0431,3.0636,3.0674,3.0458,3.0586,3.0636,3.0512,3.1008,3.1129,3.0765,3.1567,3.1881,3.1622,3.2177,3.2655,3.3042,3.2929,3.3061,3.3421,3.2995,3.2612,3.2246,3.1696,3.1256,3.0855,2.9906,2.9744,3.0052,2.9814,2.9851,3.0036,2.9803,2.9634,2.9521,2.9522,2.9532,2.9496,2.9304,2.9233,2.9294,2.9476,2.9532,2.9567,2.9768,2.9611,2.9365,2.9397,2.913,2.8922,2.9081,2.8776,2.8556,2.8892,2.8577,2.833,2.8654,2.841,2.8194,2.8362,2.7764,2.7317,2.7482,2.6447,2.5779,2.6194,2.5504,2.5123,2.5479,2.4888,2.475,2.5455,2.5197,2.4986,2.4986,2.4986,2.5109,2.5401,2.635,2.6912,2.6957,2.7734,2.7302,0.0,0.0,0.0,0.0,0.0,0.0,0.0,0.0,0.0,0.0,0.0,0.0,0.0,0.0,0.0,0.0,0.0,0.0,0.0,0.0,0.0,0.0,0.0,0.0,0.0,2.931,2.9907,3.0653,3.0721,3.0822,3.1152,3.1033,3.1023,3.1232,3.1002,3.1027,3.1444,3.1772,3.1886,3.1814,3.2654,3.2977,3.271,3.3055,3.3434,3.3826,3.3531,3.3586,3.3952,3.3516,3.3104,3.2743,3.2393,3.2044,3.1683,3.1334,3.119,3.1117,3.0383,3.0107,3.0107,3.0107,3.0107,3.0107,3.0107,3.0107,3.0107,3.0107,3.0107,3.0107,3.0107,3.0001,2.9911,3.0081,2.9775,2.9411,2.9433,2.9173,2.8944,2.915,2.8947,2.8821,2.9189,2.9024,2.8803,2.8803,2.8255,2.7906,2.8268,2.7483,2.6761,2.6589,2.5744,2.5074,2.4956,2.4731,2.459,2.459,2.459,2.459,2.459,2.4358,2.4321,2.4597,2.4358,2.4421,2.4964,2.5766,2.632,2.6615,2.7394,2.7154,2.5873,0.0,0.0,0.0,0.0,0.0,0.0,0.0,0.0,0.0,0.0,0.0,0.0,0.0,0.0,0.0,0.0,0.0,0.0,0.0,0.0,0.0,0.0,0.0,3.0329,3.0693,3.1031,3.1347,3.0768,3.096,3.253,3.17,3.1818,3.3727,3.2672,3.245,3.3622,3.2537,3.233,3.3353,3.3489,3.3759,3.427,3.4272,3.4284,3.4284,3.3656,3.3355,3.3355,3.3355,3.3332,3.3308,3.3308,3.3308,3.3284,3.3284,3.3284,3.308,3.0999,3.0182,3.0158,3.0158,3.0167,3.0155,3.0155,3.0155,3.0155,3.0134,3.0113,3.0113,3.0113,2.9784,2.9529,3.0035,2.9825,2.9418,2.9476,2.9485,2.9347,2.8919,2.8803,2.8803,2.8803,2.8791,2.8779,2.8779,2.8113,2.7584,2.761,2.6346,2.5179,2.4818,2.4802,0.0,2.4293,2.4911,2.5388,2.5379,2.5361,2.5361,2.5379,2.4661,2.4551,2.5343,2.4679,2.4914,2.6407,2.5922,2.5983,2.6785,2.6777,2.6588,2.6177,0.0,0.0,0.0,0.0,0.0,0.0,0.0,0.0,0.0,0.0,0.0,0.0,0.0,0.0,0.0,0.0,0.0,0.0,0.0,0.0,0.0,2.9188,3.0108,3.0051,3.0609,3.1068,3.1163,3.1357,3.1636,3.2072,3.2187,3.2444,3.2998,3.2992,3.3127,3.3451,3.3567,3.3525,3.332,3.381,3.3929,3.3573,3.3914,3.4072,3.4084,3.4294,3.4378,3.4378,3.4378,3.4174,3.3814,3.3814,3.3597,3.3284,3.3284,3.3284,3.3247,3.2635,3.2178,3.1841,3.1841,3.1599,3.125,3.125,3.125,3.1206,3.0812,3.068,3.0614,3.027,3.0093,3.0016,3.0154,2.9851,2.9477,2.9498,2.9255,2.8966,2.8827,2.8803,2.8803,2.8803,2.8572,2.8354,2.8354,2.751,2.7063,2.79,2.6767,2.5808,2.5975,2.5563,2.5196,2.5076,2.526,2.5287,2.5003,2.4691,2.4636,2.4939,2.448,2.4551,2.5343,2.5186,2.5262,2.5691,2.606,2.6361,2.6585,2.6438,2.6058,0.0,0.0,0.0,0.0,0.0,0.0,0.0,0.0,0.0,0.0,0.0,0.0,0.0,0.0,0.0,0.0,0.0,0.0,0.0,0.0,0.0,0.0,2.9706,3.0514,3.0342,3.0958,3.1533,3.1744,3.2021,3.2389,3.2901,3.296,3.3179,3.3734,3.3528,3.3584,3.4088,3.4145,3.4103,3.3921,3.4323,3.431,3.3933,3.4198,3.4342,3.4342,3.4655,3.4799,3.4799,3.4799,3.4643,3.4342,3.4342,3.4186,3.3933,3.3933,3.3933,3.3885,0.0,0.0,0.0,0.0,3.2302,3.2005,3.1778,3.1545,3.1311,3.0994,3.0763,3.0567,3.0284,3.0057,2.992,2.992,2.9577,2.9209,2.9209,2.9001,2.8754,2.8597,2.8557,2.8505,2.8362,2.8154,2.7996,2.7996,2.7176,0.0,2.7608,2.6602,2.5713,2.5779,2.5702,2.5581,2.5416,2.5691,2.582,2.559,2.5343,2.5297,2.5544,2.5021,0.0,0.0,0.0,2.5445,2.5526,2.5693,0.0,0.0,0.0,2.5524,2.5358,2.5236,0.0,0.0,2.5362,2.5451,0.0,0.0,0.0,0.0,0.0,0.0,0.0,0.0,0.0,0.0,0.0,0.0,0.0,0.0,0.0,0.0,3.0344,3.112,3.1024,3.16,3.2198,3.2642,3.2675,3.3102,3.4173,3.3719,3.3877,3.5069,3.411,3.3938,3.501,3.4458,0.0,0.0,0.0,3.4799,3.4799,3.4799,3.4799,3.4799,3.4799,3.4799,3.4799,3.4799,3.4775,3.4702,3.4775,3.4762,3.4702,3.4787,3.475,3.4606,3.373,3.3345,3.3216,3.2677,3.2465,3.2347,3.1874,0.0,0.0,3.0925,3.0617,3.0274,3.0228,2.9907,2.9584,2.9584,2.9283,2.8944,2.884,2.8816,2.8713,2.8257,2.8133,2.8051,2.7754,2.7647,2.7626,2.7626,2.7039,2.6626,2.6989,2.6183,2.5361,2.5058,2.5609,2.593,2.5581,2.6169,2.6573,2.6545,2.6481,0.0,2.6545,2.5838,2.572,2.6454,2.577,2.543,2.5698,2.5117,2.5041,2.5603,2.5066,2.5062,2.5605,2.5605,2.5321,2.481,2.4796,2.5078,0.0,0.0,0.0,0.0,0.0,0.0,0.0,0.0,0.0,0.0,0.0,0.0,0.0,0.0,0.0,2.9132,3.0555,3.1569,3.1546,3.239,3.2923,3.2583,3.292,3.326,3.3484,3.3725,3.3956,3.4227,3.4402,3.4619,3.486,3.4715,3.4703,3.4799,3.4799,3.4799,3.4799,3.4799,3.4799,3.4799,3.4799,0.0,3.4799,3.4799,3.4555,3.4188,3.4604,3.4555,3.4188,3.4628,3.4555,3.4153,3.3947,3.3601,3.3172,3.2677,3.2229,3.1826,3.1731,3.1626,3.1463,3.1045,3.0834,3.0695,3.0312,3.0143,0.0,3.0046,2.9998,2.978,2.9055,2.8873,2.8698,2.7958,2.7814,2.7784,2.7713,2.7442,2.722,2.722,2.6869,2.6614,2.6688,2.6248,2.5967,2.6197,2.6371,2.6472,2.6389,2.649,2.649,2.6141,2.582,2.5765,2.6077,2.5673,2.5526,2.5854,2.5263,2.514,2.5667,2.5107,2.4853,2.4971,2.4853,2.4857,2.4981,2.4981,2.4925,2.4797,2.4813,2.486,0.0,0.0,0.0,0.0,0.0,0.0,0.0,0.0,0.0,0.0,0.0,2.8358,0.0,0.0,2.9167,3.0272,3.092,3.1579,3.2353,3.2923,3.3255,3.325,3.3489,3.3765,3.4006,3.4258,3.4414,3.4414,3.4655,3.4677,3.4409,3.4409,3.4286,3.4015,3.4261,3.4409,3.4409,3.4409,3.4409,3.4409,3.4139,3.3991,3.3991,3.3991,3.3843,3.362,3.3892,3.3843,3.362,3.3892,3.3843,3.3597,3.3611,3.3433,3.314,3.2643,3.2271,3.2012,3.1742,3.1511,3.1249,3.0991,3.0738,3.0502,3.0258,3.0185,3.0112,2.9662,2.9564,2.9367,2.8526,2.8301,2.8152,2.7544,2.7388,2.7353,2.7196,2.6994,2.6842,2.6842,2.6706,2.6591,2.6591,2.6444,2.6371,2.6554,2.6591,2.6591,2.6591,2.6591,2.6509,2.6325,2.6123,2.6086,2.6288,2.5846,2.546,2.5258,2.4981,2.4953,2.5238,2.4684,2.4481,2.4778,2.4509,2.4351,2.4351,2.4351,2.4184,2.3896,2.3896,2.4231,0.0,0.0,0.0,0.0,0.0,0.0,0.0,0.0,2.7978,2.8529,2.9213,2.9762,2.9834,2.9685,3.0035,3.1617,3.1483,3.1646,3.286,3.3129,3.3369,3.3779,3.3935,3.4138,3.4471,3.458,3.4604,3.4506,3.458,3.4409,3.3867,3.3843,3.3645,3.3197,3.362,3.3843,3.3843,3.3843,3.3843,3.3843,3.3396,3.3197,3.3197,3.3197,3.3147,3.3047,3.3047,3.3097,3.3197,3.3097,3.3047,3.3035,3.2946,3.2896,3.2846,3.2521,3.2333,3.2193,3.1746,3.1342,3.104,3.104,3.0664,3.0236,3.0236,3.0112,2.9842,2.9136,2.895,2.8759,2.7933,2.7714,2.7588,2.7132,2.7007,2.6926,2.6644,2.6591,2.6591,2.6591,2.6591,2.6591,2.6591,2.6591,2.6591,2.6591,2.6591,2.6591,2.6591,2.6591,2.6591,2.6591,2.6591,2.6555,2.6446,2.588,2.5321,2.4842,2.4593,2.4509,2.462,2.4052,2.396,2.4454,2.396,2.3725,2.3725,2.3725,2.3464,2.2986,2.2986,2.3512,2.4001,2.4191,2.5547,2.7025,2.8193,2.957,0.0,0.0,3.1645,3.2197,3.1554,3.1173,3.2059,3.1397,3.1084,3.2217,3.2309,3.2283,3.248,3.2892,3.3216,3.3291,3.3712,3.3834,3.3409,3.3818,3.3892,3.3421,3.3818,3.3867,3.3321,3.3296,3.3271,3.3197,3.3247,3.3296,3.3296,3.3296,3.3296,3.3296,3.3222,3.3197,3.3197,3.3197,3.2935,3.2485,3.2485,3.2759,3.3172,3.2698,3.2485,3.2446,3.1975,3.1783,3.1823,3.2243,3.2091,3.1669,3.1618,3.156,3.1516,3.1516,3.0998,3.0373,3.0373,2.9824,2.9203,2.9124,2.9072,2.8888,2.7999,2.7796,2.7601,2.6843,2.6654,2.6636,2.6609,2.6591,2.6591,2.6591,2.6591,2.6591,2.6591,2.6591,2.6591,2.6591,2.6591,2.6591,2.6591,2.6591,2.6591,2.6591,2.6591,2.6391,2.5852,2.5257,2.487,2.4806,2.3784,2.3436,2.3968,2.3408,2.3127,2.3211,2.3127,2.3098,2.3098,2.3098,2.307,2.2986,2.2986,2.307,2.8492,2.8302,2.8489,0.0,3.0707,3.1349,3.2354,3.2027,3.1866,3.3062,3.2357,3.1711,3.2403,3.1899,3.1611,0.0,3.2218,3.209,3.2361,3.2587,3.2633,3.2305,3.2734,3.3099,3.3197,3.3396,3.3446,3.3222,3.3421,3.3296,3.2748,3.2723,3.2583,3.228,3.2583,3.2723,3.2723,3.2723,3.2723,3.2723,3.2406,3.2255,3.2255,3.2255,3.2153,3.1913,3.1913,3.2052,3.2255,3.2026,3.1913,3.1924,3.1695,3.1593,3.1618,3.1848,3.1797,3.1593,3.1593,3.1285,3.0909,3.0909,3.0318,2.9628,2.9628,2.9381,2.8986,2.8482,2.8349,2.8145,2.7314,2.7107,2.7026,2.6664,2.6591,2.6591,2.6591,2.6591,2.6591,2.6591,2.6591,2.6591,2.6591,2.6591,2.6591,2.6591,2.6591,2.6591,2.6591,2.6591,2.6473,2.6108,2.6081,2.5688,2.4712,2.4406,2.4128,2.3756,2.3287,2.3098,2.338,2.3127,2.2986,2.2986,2.2986,2.2986,2.2986,2.2986,2.2986,2.2986,2.2986,2.2986,3.0674,3.0711,0.0,3.1726,3.2411,3.2807,3.2939,3.271,3.269,3.3594,3.3064,3.248,3.25,3.2058,3.1868,3.2383,3.2029,3.1778,3.2123,3.2167,3.2041,3.1655,3.1939,3.2319,3.272,3.2885,3.291,3.2771,3.2896,3.2759,3.2218,3.2167,3.199,3.1618,3.1975,3.2167,3.2167,3.2167,3.2167,3.2167,3.1797,3.1593,3.1593,3.1593,3.1593,3.1593,3.1593,3.1593,3.1593,3.1593,3.1593,3.1593,3.1593,3.1593,3.1567,3.1347,3.1424,3.1567,3.1347,3.0873,3.0365,3.012,2.9444,2.8748,2.8748,2.8588,2.8279,2.7645,2.7466,2.7332,2.6745,2.6591,2.6591,2.6591,2.6591,2.6591,2.6591,2.6591,2.6591,2.6591,2.6591,2.6591,2.6591,2.6591,2.6591,2.6591,2.6591,2.6591,2.6591,2.6446,2.619,2.5743,2.5541,2.5045,2.3996,2.3893,2.3632,2.3042,2.2986,2.2986,2.2986,2.2986,2.2986,2.2986,2.2986,2.2986,2.2986,2.2986,2.2986,2.2986,2.2986,2.2986,2.808,2.9205,3.0262,3.1263,3.2902,3.4355,3.4803,3.5397,3.5537,3.4405,3.4156,3.3793,3.269,3.205,3.1838,3.2345,3.1942,3.1607,3.1618,3.1618,3.1629,3.1593,3.1618,3.1618,0.0,3.2117,3.2218,3.1706,3.2117,3.2193,3.1644,3.1618,3.1629,3.1593,3.1629,3.1618,3.1618,3.1618,3.1618,3.1618,3.1618,3.1593,3.1593,3.1593,3.1593,3.1593,3.1593,3.1593,3.1593,3.1593,3.1593,3.1593,3.1593,3.1593,3.1516,3.0718,3.0935,3.149,3.0703,3.0417,3.0261,2.9408,2.8562,2.7824,2.7824,2.7287,2.6664,2.6636,2.6646,2.6646,2.6618,2.6591,2.6591,2.6591,2.6591,2.6591,2.6591,2.6591,2.6591,2.6591,2.6591,2.6591,2.6591,2.6591,2.6591,2.6591,2.6591,2.6591,2.6591,2.6081,2.5715,2.5715,2.5174,2.4565,2.3941,2.3893,2.3632,2.3042,2.2986,2.2986,2.2986,2.2986,2.2986,2.2986,2.2986,2.2986,2.2986,2.2986,2.2986,2.2986,2.2986,2.2986,3.0704,3.1579,3.2547,3.4047,3.4895,3.5318,3.5163,3.4948,3.4602,3.389,3.283,3.2001,3.1982,3.153,3.1227,3.1381,3.1512,3.1593,3.1593,3.1593,3.1593,3.1593,3.1593,0.0,0.0,0.0,3.1797,3.1618,3.1772,3.1797,3.1618,3.1593,3.1593,3.1593,3.1593,3.1593,3.1593,3.1593,3.1593,3.1593,3.1593,3.1593,3.1593,3.1593,3.1593,3.1593,3.1593,3.1593,3.1593,3.1593,3.1593,3.1553,3.1002,3.0806,3.0692,2.9838,2.9697,2.9906,2.9618,2.9154,2.8625,2.8332,2.7672,2.6999,2.6999,2.6818,2.6591,2.6591,2.6591,2.6591,2.6591,2.6591,2.6591,2.6591,2.6591,2.6591,2.6591,2.6591,2.6591,2.6591,2.6591,2.6591,2.6591,2.6591,2.6591,2.6591,2.6591,2.6591,2.6591,2.6081,2.5541,2.5146,2.4573,2.3968,2.3352,2.3296,2.3211,2.3014,2.2986,2.2986,2.2986,2.2986,2.2986,2.2986,2.2986,2.2986,2.2986,2.2986,2.2986,2.2986,2.2986,2.2986,3.2468,3.3184,3.388,3.5545,3.5998,3.5974,3.586,3.5356,3.4684,3.385,3.2627,3.1665,3.1455,3.1122,3.0952,3.1127,3.1396,3.1593,3.1593,3.1593,3.1593,3.1593,3.1593,3.1593,0.0,0.0,0.0,3.1593,3.1593,3.1593,3.1593,3.1593,3.1593,3.1593,3.1593,3.1593,3.1593,3.1593,3.1593,3.1593,3.1593,3.1593,3.1593,3.1593,3.1593,3.1593,3.1593,3.1593,3.1593,3.1593,3.1439,3.1105,3.0599,3.0198,2.9822,2.8959,2.8641,2.8641,2.8641,2.8269,2.7743,2.7466,2.7026,2.6591,2.6591,2.6591,2.6591,2.6591,2.6591,2.6591,2.6591,2.6591,2.6591,2.6591,2.6591,2.6591,2.6591,2.6591,2.6591,2.6591,2.6591,2.6591,2.6591,2.6591,2.6527,2.6309,2.6272,2.6272,2.6272,2.555,2.4906,2.4509,2.3941,2.3408,2.3014,2.2986,2.2986,2.2986,2.2986,2.2986,2.2986,2.2986,2.2986,2.2986,2.2986,2.2986,2.2986,2.2986,2.2986,2.2986,2.2986,2.3049,3.3245,3.3857,3.4277,3.5774,3.6153,3.6282,3.6738,3.6418,3.5581,3.4098,3.3396,3.2594,0.0,0.0,3.105,3.1484,3.1582,3.1593,3.1593,3.1593,3.1593,0.0,0.0,0.0,0.0,0.0,0.0,3.1593,3.1593,3.1593,3.1593,3.1593,3.1593,3.1593,3.1593,3.1593,3.1593,3.1593,3.1593,3.1593,3.1593,3.1593,3.1593,3.1593,3.1593,3.1593,3.1593,3.1578,3.1542,3.1542,3.1054,3.0339,3.0287,2.977,2.8933,2.8065,2.7753,2.7753,2.7753,2.7753,2.7618,2.6845,2.6591,2.6591,2.6591,2.6591,2.6591,2.6591,2.6591,2.6591,2.6591,2.6591,2.6591,2.6591,2.6591,2.6591,2.6591,2.6591,2.6591,2.6591,2.6591,2.6591,2.6591,2.6555,2.6327,2.5706,2.5633,2.5633,2.5651,2.4637,2.3893,2.3893,2.3352,2.2986,2.2986,2.2986,2.2986,2.2986,2.2986,2.2986,2.2986,2.2986,2.2986,2.2986,2.2986,2.2994,2.3046,2.3046,2.3054,2.307,2.307,2.3224,3.408,3.4866,3.573,3.6554,3.619,3.5466,3.4898,3.4076,3.3016,3.149,3.1067,3.0828,0.0,0.0,0.0,3.1061,3.1364,0.0,3.1593,3.1593,0.0,3.1593,0.0,3.1593,3.1593,3.1593,0.0,3.1593,3.1593,3.1593,3.1593,3.1593,3.1593,3.1593,3.1593,3.1593,3.1593,3.1593,3.1593,3.1593,3.1593,3.1593,3.1593,3.1593,3.1593,3.1593,3.1593,3.127,3.0703,3.0703,3.0188,2.9365,2.8731,2.8332,2.8038,2.7215,2.6899,2.6899,2.6899,2.6899,2.6872,2.6673,2.6591,2.6591,2.6591,2.6591,2.6591,2.6591,2.6591,2.6591,2.6591,2.6591,2.6591,2.6591,2.6591,2.6591,2.6591,2.6591,2.6591,2.6591,2.6591,2.6591,2.6591,2.6227,2.5651,2.4799,2.4501,2.4518,2.4981,2.4379,2.3893,2.3893,2.3352,2.2986,2.2986,2.2986,2.2986,2.2986,2.2986,2.2986,2.2986,2.2986,2.2986,2.2986,2.2986,2.3121,2.3375,2.3375,2.3538,2.3814,2.3814,2.3861,3.5325,3.6005,3.6645,3.7246,3.6738,3.5846,3.4933,3.3877,3.2629,3.0911,3.0533,3.0443,3.0239,3.0581,3.0963,0.0,0.0,0.0,3.1593,3.1593,3.1593,0.0,3.1593,0.0,3.1593,3.1593,3.1593,3.1593,3.1593,3.1593,3.1593,3.1593,3.1593,3.1593,3.1593,3.1593,3.1593,3.1593,3.1593,3.1593,3.1593,3.1593,3.1593,3.1593,3.1424,3.1054,3.1054,3.0614,2.9822,2.9822,2.9313,2.8482,2.7985,2.7592,2.7206,2.6773,2.6591,2.6591,2.6591,2.6591,2.6591,2.6591,2.6591,2.6591,2.6591,2.6591,2.6591,2.6591,2.6591,2.6591,2.6591,2.6591,2.6591,2.6591,2.6591,2.6591,2.6591,2.6591,2.6591,2.6591,2.6591,2.6591,2.6591,2.5752,2.4816,2.4022,2.3191,2.2721,2.2805,2.3223,2.3352,2.2942,2.2603,2.2377,2.2377,2.2377,2.2554,2.2958,2.2986,2.2986,2.2986,2.3136,2.3224,2.3224,2.3395,2.357,2.3769,2.3769,2.3864,2.4076,2.3663,2.3534,3.6567,3.6961,3.703,3.755,3.7094,3.6245,3.5311,3.4218,3.2883,3.1078,3.0753,3.0687,3.0268,3.0635,3.1138,3.1527,0.0,3.1593,3.1593,3.1593,3.1593,3.1593,3.1593,3.1593,3.1593,3.1658,3.1669,3.1604,3.1658,3.1669,3.1604,3.1593,3.1593,3.1593,3.1593,3.1593,3.1593,3.1593,3.1593,3.1593,3.1593,3.1593,3.1593,3.149,3.1064,3.0391,3.0287,2.9733,2.8933,2.8933,2.8429,2.7645,2.7645,2.7206,2.6591,2.6591,2.6591,2.6591,2.6591,2.6591,2.6591,2.6591,2.6591,2.6591,2.6591,2.6591,2.6591,2.6591,2.6591,2.6591,2.6591,2.6591,2.6591,2.6591,2.6591,2.6591,2.6591,2.6591,2.6591,2.6591,2.6591,2.6537,2.6327,2.512,2.3902,2.3051,2.182,2.0773,2.0177,2.1588,2.2328,2.1509,2.1424,2.1424,2.1424,2.153,2.1902,2.2645,2.2794,2.2818,2.2743,2.3155,2.3378,2.3378,2.3837,2.4129,2.4185,2.4029,2.3994,2.4012,2.2984,2.269,3.6789,3.671,3.6442,3.6543,3.5197,3.3604,3.2664,3.1613,0.0,0.0,2.9796,3.0295,3.0223,3.0894,3.1505,3.1582,3.1593,3.1593,3.1593,3.1593,3.1593,0.0,3.1593,3.1593,3.1593,3.2001,0.0,3.1626,3.2012,3.2066,3.1615,3.1593,3.1593,3.1593,3.1593,3.1593,3.1593,3.1593,3.1593,3.1593,3.1593,3.1593,3.1578,3.0909,3.0521,3.0365,2.9628,2.8827,2.8038,2.8038,2.7547,2.6818,2.6818,2.6718,2.6591,2.6591,2.6591,2.6591,2.6591,2.6591,2.6591,2.6591,2.6591,2.6591,2.6591,2.6591,2.6591,2.6591,2.6591,2.6591,2.6591,2.6591,2.6591,2.6591,2.6591,2.6591,2.6591,2.6591,2.6591,2.6591,2.6591,2.6209,2.4918,2.405,2.2846,2.0752,2.0422,2.0112,1.9252,2.009,2.0701,2.0551,2.0529,2.0529,2.0529,2.1195,2.142,2.1052,2.1751,2.1928,2.1385,2.226,2.2772,2.2772,2.3632,2.4227,2.4514,2.3663,2.3414,2.3655,2.2658,2.2221,3.6546,3.688,3.6862,3.5798,3.4943,3.3899,3.2191,0.0,0.0,0.0,2.9349,2.9904,3.0141,3.0777,3.1323,3.156,3.1593,3.1593,3.1593,3.1593,3.1593,3.1593,3.1593,3.1593,3.1593,3.1822,3.1891,3.1615,3.1848,3.188,3.1615,3.1593,3.1593,3.1593,3.1593,3.1593,3.1593,3.1593,3.1593,3.1593,3.1182,3.0987,3.095,3.0109,2.9481,2.9022,2.8598,2.7941,2.7188,2.7188,2.6954,2.6591,2.6591,2.6591,2.6591,2.6591,2.6591,2.6591,2.6591,2.6591,2.6591,2.6591,2.6591,2.6591,2.6591,2.6591,2.6591,2.6591,2.6591,2.6591,2.6591,2.6591,2.6591,2.6591,2.6591,2.6591,2.6591,2.6591,2.6591,2.6591,2.6591,2.6127,2.4569,2.3391,2.2011,2.0091,1.9245,1.8677,1.824,1.8554,1.902,1.9519,1.9712,1.9771,1.9771,2.0282,2.067,2.0793,2.1217,2.1347,2.1009,2.169,2.2086,2.2086,2.3225,2.3916,2.4086,2.3587,2.3454,2.3573,2.2034,2.131,3.5909,3.6423,3.6474,3.4752,3.4366,3.3895,3.1918,3.1091,0.0,2.9064,2.9163,2.9631,3.0122,3.0581,3.105,0.0,3.1593,3.1593,3.1593,3.1593,3.1593,0.0,3.1593,0.0,3.1593,3.1691,0.0,3.1604,3.1593,3.1593,3.1593,3.1593,3.1593,3.1593,3.1593,3.1593,3.1593,3.1439,3.1337,3.1337,3.051,3.012,3.0094,2.9223,2.8455,2.7807,2.7618,2.7179,2.6591,2.6591,2.6591,2.6591,2.6591,2.6591,2.6591,2.6591,2.6537,2.6418,2.6418,2.6327,2.6218,2.6218,2.6391,2.6591,2.6446,2.6418,2.6391,2.6254,2.6218,2.6245,2.6364,2.6418,2.6446,2.6555,2.6591,2.6591,2.6591,2.6591,2.6591,2.6591,2.6391,2.5697,2.4089,2.2589,2.1094,1.955,1.8292,1.7532,1.7587,1.7599,1.7882,1.8675,1.8911,1.9026,1.9091,1.9447,1.993,2.0476,2.0696,2.0753,2.0601,2.1115,2.14,2.14,2.2632,2.3269,2.3269,2.3074,2.295,2.2911,2.1121,2.0265,3.48,3.4255,3.3488,3.287,3.2012,3.1128,3.0479,0.0,3.0003,2.8989,2.9163,2.9631,3.0122,3.0581,3.105,3.1516,3.1593,3.1593,3.1593,3.1593,3.1593,3.1593,0.0,0.0,3.1593,3.2044,3.2121,3.1636,3.1593,3.1593,3.1593,3.1593,3.1593,3.1593,3.1593,3.1593,3.1593,3.0884,3.0521,3.0495,2.9628,2.9223,2.9197,2.8322,2.7877,2.7753,2.7026,2.6664,2.6591,2.6591,2.6591,2.6591,2.6591,2.6591,2.6591,2.6591,2.6245,2.577,2.577,2.5431,2.4981,2.4981,2.5715,2.6509,2.5935,2.577,2.5679,2.5119,2.4981,2.5091,2.5633,2.577,2.5907,2.6473,2.6591,2.6591,2.6591,2.6591,2.6591,2.6591,2.5715,2.4373,2.254,2.118,1.9768,1.7971,1.7596,1.7599,1.7841,1.7865,1.7998,1.8313,1.8161,1.8124,1.8356,1.9205,1.9472,1.8938,1.9698,1.9907,1.9306,2.0182,2.0695,2.0695,2.1706,2.223,2.2237,2.131,2.0893,2.0861,1.9763,1.9232,3.3617,3.3534,3.2994,3.183,3.1482,3.1212,3.04,0.0,2.9576,2.8946,2.9163,2.9631,3.0122,3.0581,3.105,3.1516,3.1353,3.1181,3.1181,3.1181,3.1181,3.1181,3.1418,0.0,0.0,0.0,3.1822,3.1615,3.1593,3.1388,3.0899,3.0884,3.1105,3.1567,3.1131,3.0884,3.0884,3.0573,3.0146,2.9602,2.8721,2.8322,2.8295,2.7476,2.708,2.7053,2.6745,2.6591,2.6591,2.6591,2.6591,2.6564,2.619,2.6053,2.6017,2.5651,2.5376,2.5146,2.5146,2.5008,2.4806,2.4806,2.5119,2.5459,2.5229,2.5146,2.5119,2.487,2.4806,2.487,2.5091,2.5431,2.5852,2.6473,2.6591,2.6591,2.6591,2.6591,2.6327,2.5405,2.4836,2.3679,2.113,2.0286,1.9406,1.7743,1.7647,1.7786,1.7889,1.8052,1.8227,1.8499,1.8457,1.8408,1.8517,1.9037,1.9204,1.8973,1.9296,1.9377,1.9104,1.9482,1.9705,1.9705,2.0678,2.1215,2.1215,2.0798,2.0608,2.0576,1.9577,1.911,3.2112,3.2448,3.2289,3.1002,3.1016,3.1133,0.0,0.0,2.9414,2.9088,2.9272,2.9698,3.0297,3.0679,3.105,3.1516,3.1214,3.0898,3.0898,3.0898,3.0898,3.0898,0.0,3.144,3.1582,3.1593,3.1501,3.1259,3.1245,3.0899,3.0068,3.0015,3.0396,3.1208,3.0703,3.0391,3.0391,2.9885,2.9313,2.8721,2.786,2.7439,2.7439,2.6845,2.6591,2.6591,2.6591,2.6509,2.6336,2.6336,2.6227,2.6026,2.5596,2.5431,2.5376,2.4953,2.4704,2.4537,2.4537,2.4426,2.4259,2.4259,2.4259,2.4259,2.4259,2.4398,2.4509,2.4314,2.4398,2.4537,2.4537,2.51,2.5798,2.6218,2.6336,2.6391,2.6564,2.619,2.5505,2.4486,2.3718,2.2512,2.0206,1.9499,1.89,1.7788,1.7786,1.7961,1.8125,1.8287,1.8511,1.8802,1.8832,1.8832,1.8832,1.9001,1.911,1.911,1.911,1.911,1.911,1.911,1.911,1.911,1.9794,2.017,2.017,2.017,2.017,2.0138,1.9418,1.911,3.0197,3.0572,3.0808,3.0332,3.022,3.0209,0.0,2.9838,2.9512,2.9502,2.9502,2.9797,3.0712,3.0898,3.105,3.1516,3.1214,3.0898,3.0898,3.0898,3.0898,0.0,3.0898,3.1094,3.1549,3.1593,3.1259,3.0469,3.0417,3.0042,2.9171,2.9108,2.9523,3.0391,3.0391,3.0391,3.0391,2.8688,2.7824,2.7797,2.7008,2.6618,2.6618,2.6591,2.6591,2.6591,2.6591,2.6245,2.5715,2.5715,2.5376,2.4806,2.4806,2.4814,2.4814,2.4806,2.4434,2.3913,2.3913,2.352,2.3014,2.3014,2.3014,2.3014,2.3014,2.3444,2.3773,2.3183,2.3436,2.3913,2.3913,2.4804,2.5715,2.5715,2.5715,2.588,2.6473,2.5174,2.4011,2.4264,2.2371,2.0544,1.9925,1.8823,1.8,1.7925,1.7901,1.8101,1.8607,1.868,1.8814,1.9074,1.9104,1.9104,1.9104,1.911,1.911,1.911,1.911,1.911,1.911,1.911,1.911,1.911,1.911,1.9104,1.9104,1.9104,1.9104,1.9104,1.911,1.911,2.9426,2.9602,2.9429,2.929,2.9239,2.9327,2.9665,2.9085,2.8593,2.8944,2.9272,2.9698,3.0308,3.0952,3.1418,3.1571,3.0927,3.0428,3.0428,0.0,0.0,3.0428,3.1007,3.1225,3.0811,3.127,3.1017,2.9628,3.0068,2.977,2.8295,2.8774,2.9223,2.9487,2.9523,2.9234,2.8625,2.8065,2.7511,2.6981,2.6718,2.6591,2.6591,2.6163,2.599,2.5962,2.5541,2.5257,2.5091,2.5091,2.4981,2.475,2.4351,2.4184,2.4128,2.3708,2.3456,2.3267,2.3267,2.3155,2.2986,2.2986,2.2986,2.2986,2.2986,2.3127,2.3239,2.3042,2.3127,2.338,2.3781,2.4192,2.4582,2.4981,2.5091,2.5146,2.5321,2.4409,2.3275,2.2287,2.1016,1.9688,1.8431,1.8073,1.793,1.7889,1.8221,1.8524,1.8693,1.8874,1.9013,1.9098,1.911,1.911,1.911,1.911,1.911,1.911,1.911,1.911,1.911,1.911,1.911,1.911,1.911,1.911,1.911,1.911,1.911,1.911,1.911,1.911,2.8533,2.8999,2.901,2.8847,2.8935,0.0,0.0,2.8746,2.8451,2.8955,2.9447,2.9958,3.06,3.12,3.1593,3.1593,3.0949,3.0472,3.0472,0.0,0.0,3.0472,3.0882,3.1015,3.0628,3.0931,3.0578,2.9197,2.9602,2.9164,2.7449,2.8145,2.8455,2.8182,2.8465,2.8349,2.7807,2.7493,2.6989,2.6245,2.6245,2.6136,2.5907,2.5541,2.5376,2.5348,2.4953,2.4676,0.0,2.4462,2.4314,2.4092,2.3717,2.3548,2.352,2.3127,2.2986,2.2986,2.2986,2.2986,2.2986,2.2986,2.2986,2.2986,2.2986,2.2986,2.2986,2.2986,2.2986,2.3098,2.3464,2.3725,2.3996,2.4379,2.4462,2.4426,2.4298,2.3283,2.2034,2.0852,1.981,1.882,1.7818,1.7798,1.7974,1.8179,1.85,1.8753,1.885,1.9007,1.911,1.911,1.911,1.911,1.911,1.911,1.911,1.911,1.911,1.911,1.911,1.911,1.911,1.911,1.911,1.911,1.911,1.911,1.911,1.911,1.911,1.911,0.0,2.8669,2.9283,2.8758,2.9021,2.9283,2.8835,2.8749,0.0,2.9349,2.9816,3.0417,3.1244,3.1451,3.1495,3.1495,3.1113,3.0854,3.0887,3.0898,0.0,0.0,3.0636,3.0537,3.0691,3.0468,2.99,2.8923,2.887,2.8172,2.6555,2.7169,2.7251,2.65,2.7196,2.7609,2.7645,2.6863,2.619,2.5633,2.5633,2.5348,2.4806,2.475,2.4731,2.4731,2.4704,2.4342,2.3837,2.3837,2.35,2.2986,2.2986,2.2986,2.2986,2.2986,2.2986,2.2986,2.2986,2.2986,2.2986,2.2986,2.2986,2.2986,2.2986,2.2986,2.2986,2.2986,2.2986,2.2986,2.2986,2.3416,2.3837,2.3837,2.3837,2.3736,2.334,2.19,2.0486,1.9875,1.8777,1.7954,1.7925,1.7937,1.8137,1.8639,1.8735,1.8832,1.9074,1.911,1.911,1.911,1.911,1.911,1.911,1.911,1.911,1.911,1.911,1.911,1.911,1.911,1.911,1.911,1.911,1.911,1.911,1.911,1.911,1.911,1.911,1.911,2.7271,0.0,2.8155,2.7315,2.7741,2.833,0.0,0.0,0.0,0.0,0.0,2.9609,2.948,3.0035,3.0523,3.0523,3.045,3.0493,3.0843,3.0898,0.0,3.0898,3.0979,3.0486,2.9116,2.9232,2.8588,2.6645,2.6681,2.6327,2.5284,2.5414,2.5414,2.5229,2.5414,2.5716,2.6191,2.556,2.5146,2.5008,2.5008,2.4953,2.4778,2.4323,2.4108,2.408,2.3624,2.3344,2.3211,2.3211,2.3127,2.2986,2.2986,2.2986,2.2986,2.2986,2.2986,2.2986,2.2986,2.2986,2.2986,2.2986,2.2986,2.2986,2.2986,2.2986,2.2986,2.2986,2.2986,2.2986,2.2986,2.3098,2.3211,2.3211,2.3211,2.2978,2.2191,2.1167,2.0148,1.9281,1.8469,1.7924,1.7889,1.8246,1.8535,1.8668,1.8886,1.9038,1.9098,1.911,1.911,1.911,1.911,1.911,1.911,1.911,1.911,1.911,1.911,1.911,1.911,1.911,1.911,1.911,1.911,1.911,1.911,1.911,1.911,1.911,1.911,1.911,2.6791,2.7326,2.7511,2.6791,2.7151,2.7686,2.7686,0.0,0.0,0.0,0.0,2.9086,2.8847,2.9578,3.0185,3.0185,3.0545,3.0916,3.1192,3.104,3.0737,3.0308,2.9797,2.9082,2.8012,2.7794,2.7213,2.5972,2.6008,2.5735,2.4861,2.4806,2.4806,2.4806,2.4537,2.4684,2.5293,2.4953,2.4648,2.4379,2.4379,2.4231,2.3952,2.3632,2.3492,2.3464,2.3127,2.2986,2.2986,2.2986,2.2986,2.2986,2.2986,2.2986,2.2986,2.2986,2.2986,2.2986,2.2986,2.2986,2.2986,2.2986,2.2986,2.2986,2.2986,2.2986,2.2986,2.2986,2.2986,2.2986,2.2986,2.2986,2.2986,2.2986,2.2986,2.2639,2.1288,2.0637,1.9936,1.8692,1.8162,1.798,1.8234,1.8524,1.8728,1.888,1.9013,1.911,1.911,1.911,1.911,1.911,1.911,1.911,1.911,1.911,1.911,1.911,1.911,1.911,1.911,1.911,1.911,1.911,1.911,1.911,1.911,1.911,1.911,1.911,1.911,1.911,2.6256,2.6889,2.7162,2.6627,2.6846,2.7184,2.7184,0.0,0.0,0.0,0.0,2.8781,2.8682,2.9259,2.9847,3.0141,3.0881,3.1388,3.1274,3.0816,3.0132,2.9183,2.8078,2.7309,2.7017,2.6327,2.5872,2.5762,2.5671,2.5295,2.4565,2.4537,2.4537,2.4537,2.4016,2.4016,2.4537,2.4537,2.4259,2.3745,2.3745,2.3492,2.2986,2.2986,2.2986,2.2986,2.2986,2.2986,2.2986,2.2986,2.2986,2.2986,2.2986,2.2986,2.2986,2.2986,2.2986,2.2986,2.2986,2.2986,2.2986,2.2986,2.2986,2.2986,2.2986,2.2986,2.2986,2.2986,2.2986,2.2986,2.2986,2.2986,2.2986,2.2986,2.2901,2.2328,2.0673,2.0226,1.9712,1.8188,1.7974,1.8173,1.8607,1.8716,1.885,1.9074,1.911,1.911,1.911,1.911,1.911,1.911,1.911,1.911,1.911,1.911,1.911,1.911,1.911,1.911,1.911,1.911,1.911,1.911,1.911,1.911,1.911,1.911,1.911,1.911,1.911,1.911,2.5863,2.6649,2.7086,2.6223,2.6355,2.6715,2.6715,0.0,0.0,0.0,0.0,0.0,2.8199,2.7915,2.8275,2.9923,3.0428,3.0406,2.9885,2.9143,2.8209,2.7168,2.7009,2.6638,2.571,2.5257,2.4787,2.4267,2.3764,2.3428,2.3287,2.3287,2.3287,2.3287,2.3183,2.3183,2.3287,2.3287,2.3239,2.3127,2.3127,2.3098,2.2986,2.2986,2.2986,2.2986,2.2986,2.2986,2.2986,2.2986,2.2986,2.2986,2.2986,2.2986,2.2986,2.2986,2.2986,2.2986,2.2986,2.2986,2.2986,2.2986,2.2986,2.2986,2.2986,2.2986,2.2986,2.2986,2.2986,2.2986,2.2986,2.2986,2.2986,2.2986,2.2377,2.1545,2.0529,1.9861,1.9157,1.8105,1.8276,1.8589,1.8705,1.8899,1.9062,1.9098,1.911,1.911,1.911,1.911,1.911,1.911,1.911,1.911,1.911,1.911,1.911,1.911,1.911,1.911,1.911,1.911,1.911,1.911,1.911,1.911,1.911,1.911,1.911,1.911,1.911,1.911,2.5076,2.5633,2.6179,2.6256,2.7031,2.7872,2.8112,0.0,0.0,0.0,0.0,0.0,0.0,2.725,2.7395,2.8884,2.9839,3.0031,2.8939,2.8229,2.7316,2.5999,2.5685,2.5207,2.4175,2.3928,2.3708,2.3436,2.3155,2.2986,2.2986,2.2986,2.2986,2.2986,2.2986,2.2986,2.2986,2.2986,2.2986,2.2986,2.2986,2.2986,2.2986,2.2986,2.2986,2.2986,2.2986,2.2986,2.2986,2.2986,2.2986,2.2986,2.2986,2.2986,2.2986,2.2986,2.2986,2.2986,2.2986,2.2986,2.2986,2.2986,2.2986,2.2986,2.2986,2.2986,2.2986,2.2986,2.2986,2.2986,2.2986,2.2986,2.2873,2.2348,2.1907,2.1268,2.0036,1.9532,1.9097,1.8466,1.8542,1.876,1.8905,1.9032,1.911,1.911,1.911,1.911,1.911,1.911,1.911,1.911,1.911,1.911,1.911,1.911,1.911,1.911,1.911,1.911,1.911,1.911,1.911,1.911,1.911,1.911,1.911,1.911,1.911,1.911,1.911,1.911,2.4312,2.4902,2.5699,2.642,0.0,0.0,0.0,0.0,0.0,0.0,0.0,0.0,0.0,2.724,2.7114,2.7742,2.881,2.9092,2.7678,2.7134,2.6329,2.4856,2.4359,2.3841,2.3067,2.2986,2.2986,2.2986,2.2986,2.2986,2.2986,2.2986,2.2986,2.2986,2.2986,2.2986,2.2986,2.2986,2.2986,2.2986,2.2986,2.2986,2.2986,2.2986,2.2986,2.2986,2.2986,2.2986,2.2986,2.2986,2.2986,2.2986,2.2986,2.2986,2.2986,2.2986,2.2986,2.2986,2.2986,2.2986,2.2986,2.2986,2.2986,2.2986,2.2986,2.2986,2.2986,2.2986,2.2986,2.2986,2.2986,2.2986,2.2752,2.1822,2.1452,2.0938,1.9588,1.9178,1.8986,1.8745,1.8766,1.8874,1.9074,1.911,1.911,1.911,1.911,1.911,1.911,1.911,1.911,1.911,1.911,1.911,1.911,1.911,1.911,1.911,1.911,1.911,1.911,1.911,1.911,1.911,1.911,1.911,1.911,1.911,1.911,1.911,1.911,1.911,2.3768,2.5111,2.6518,2.6584,2.6344,0.0,2.8442,2.8462,0.0,2.8649,0.0,0.0,2.8781,2.8264,2.7625,2.6843,2.6953,2.6762,2.5589,2.5177,2.455,2.3316,2.3131,2.3067,2.3014,2.2986,2.2986,2.2986,2.2986,2.2986,2.2986,2.2986,2.2986,2.2986,2.2986,2.2986,2.2986,2.2986,2.2986,2.2986,2.2986,2.2986,2.2986,2.2986,2.2986,2.2986,2.2986,2.2986,2.2986,2.2986,2.2986,2.2986,2.2986,2.2986,2.2986,2.2986,2.2986,2.2986,2.2986,2.2986,2.2986,2.2986,2.2986,2.2986,2.2986,2.2986,2.2986,2.2986,2.2986,2.2986,2.2986,2.2986,2.2752,2.1822,2.0974,2.0181,1.9447,1.8803,1.844,1.8663,1.8911,1.9086,1.9104,1.911,1.911,1.911,1.911,1.911,1.911,1.911,1.911,1.911,1.911,1.911,1.911,1.911,1.911,1.911,1.911,1.911,1.911,1.911,1.911,1.911,1.911,1.911,1.911,1.911,1.911,1.911,1.911,1.911,2.3607,2.4903,2.6224,2.654,2.6682,0.0,0.0,2.9521,2.927,2.8891,2.9414,2.941,2.7728,2.8241,2.8154,2.5746,2.5941,2.5945,2.4584,2.4287,2.3932,2.3098,2.2986,2.2986,2.2986,2.2986,2.2986,2.2986,2.2986,2.2986,2.2986,2.2986,2.2986,2.2986,2.2986,2.2986,2.2986,2.2986,2.2986,2.2986,2.2986,2.2986,2.2986,2.2986,2.2986,2.2986,2.2986,2.2986,2.2986,2.2986,2.2986,2.2986,2.2986,2.2986,2.2986,2.2986,2.2986,2.2986,2.2986,2.2986,2.2986,2.2986,2.2986,2.2986,2.2986,2.2986,2.2986,2.2986,2.2582,2.2256,2.2837,2.2575,2.1887,2.1002,2.0229,1.9486,1.8827,1.8619,1.8645,1.8911,1.9038,1.911,1.911,1.911,1.911,1.911,1.911,1.911,1.911,1.911,1.911,1.911,1.911,1.911,1.911,1.911,1.911,1.911,1.911,1.911,1.911,1.911,1.911,1.911,1.911,1.911,1.911,1.911,1.911,1.911,1.911,1.911,2.4093,2.5022,2.6092,2.6857,0.0,0.0,2.9705,2.9956,2.974,2.9698,2.9958,2.9542,2.7426,2.7763,2.7467,2.4771,2.4941,2.5,2.3773,2.3773,2.3697,2.307,2.2986,2.2986,2.2986,2.2986,2.2986,2.2986,2.2986,2.2986,2.2986,2.2986,2.2986,2.2986,2.2986,2.2986,2.2986,2.2986,2.2986,2.2986,2.2986,2.2986,2.2986,2.2986,2.2986,2.2986,2.2986,2.2986,2.2986,2.2986,2.2986,2.2986,2.2986,2.2986,2.2986,2.2986,2.2986,2.2986,2.2986,2.2986,2.2958,2.2667,2.2554,2.2526,2.2243,2.2157,2.2157,2.2157,2.1687,2.1345,2.1987,2.1666,2.0996,2.0186,1.9626,1.914,1.8551,1.8559,1.8796,1.9056,1.911,1.911,1.911,1.911,1.911,1.911,1.911,1.911,1.911,1.911,1.911,1.911,1.911,1.911,1.911,1.911,1.911,1.911,1.911,1.911,1.911,1.911,1.911,1.911,1.911,1.911,1.911,1.911,1.911,1.911,1.911,1.9152,2.5173,2.5545,2.6256,2.7653,0.0,0.0,2.965,2.9489,2.9347,3.1211,3.0815,2.9722,2.8246,2.6847,2.5419,2.3939,2.38,2.3697,2.307,2.352,2.3661,2.307,2.2986,2.2986,2.2986,2.2986,2.2986,2.2986,2.2986,2.2986,2.2986,2.2986,2.2986,2.2986,2.2986,2.2986,2.2986,2.2986,2.2986,2.2986,2.2986,2.2986,2.2986,2.2986,2.2986,2.2986,2.2986,2.2986,2.2986,2.2986,2.2986,2.2986,2.2986,2.2986,2.2986,2.2986,2.2986,2.2986,2.2986,2.2986,2.2837,2.1907,2.1587,2.1424,2.0551,2.0299,2.0299,2.0299,2.0299,2.0299,2.0299,2.027,2.0116,1.947,1.9305,1.9168,1.8783,1.8686,1.8764,1.9056,1.911,1.911,1.911,1.911,1.911,1.911,1.911,1.911,1.911,1.911,1.911,1.911,1.911,1.911,1.911,1.911,1.911,1.911,1.911,1.911,1.911,1.911,1.911,1.911,1.911,1.911,1.911,1.911,1.911,1.911,1.911,1.9249,2.4061,2.5502,2.69,2.6998,2.809,0.0,0.0,2.9856,0.0,3.0071,2.9187,2.7985,2.6761,2.5923,2.504,2.3893,2.3472,2.3211,2.3014,2.3155,2.3211,2.3014,2.2986,2.2986,2.2986,2.2986,2.2986,2.2986,2.2986,2.2986,2.2986,2.2986,2.2986,2.2986,2.2986,2.2986,2.2986,2.2986,2.2986,2.2986,2.2986,2.2986,2.2986,2.2986,2.2986,2.2986,2.2986,2.2986,2.2986,2.2986,2.2986,2.2986,2.2986,2.2986,2.2986,2.2986,2.2986,2.2986,2.2986,2.2575,2.1972,2.168,2.1195,2.0637,2.0385,2.0299,2.0299,2.0299,1.9809,1.931,1.931,1.8966,1.872,1.919,1.8957,1.8625,1.8701,1.8862,1.9013,1.9092,1.911,1.911,1.911,1.911,1.911,1.911,1.911,1.911,1.911,1.911,1.911,1.911,1.911,1.911,1.911,1.911,1.911,1.911,1.911,1.911,1.911,1.911,1.911,1.911,1.911,1.911,1.911,1.911,1.911,1.911,1.9298,1.9425,2.5383,2.6496,2.75,2.8373,2.9247,2.9873,2.9727,2.9718,2.9561,2.8773,2.8009,2.7101,2.5853,2.5379,2.4818,2.362,2.3164,2.2986,2.2986,2.2986,2.2986,2.2986,2.2986,2.2986,2.2986,2.2986,2.2986,2.2986,2.2986,2.2986,2.2986,2.2986,2.2986,2.2986,2.2986,2.2986,2.2986,2.2986,2.2986,2.2986,2.2986,2.2986,2.2986,2.2986,2.2986,2.2986,2.2986,2.2986,2.2986,2.2986,2.2986,2.2986,2.2986,2.2986,2.2986,2.2986,2.2986,2.2958,2.2575,2.2085,2.1473,2.0759,2.017,1.9657,1.9316,1.92,1.92,1.92,1.8787,1.8357,1.8357,1.8116,1.8081,1.8734,1.8673,1.8523,1.8814,1.8995,1.911,1.911,1.911,1.911,1.911,1.911,1.911,1.911,1.911,1.911,1.911,1.911,1.911,1.911,1.911,1.911,1.911,1.911,1.911,1.911,1.911,1.911,1.911,1.911,1.911,1.911,1.911,1.911,1.911,1.911,1.9159,1.9267,1.9425,1.9618,2.7872,2.7935,2.802,3.0728,3.0424,2.9406,2.9155,2.8903,2.8409,2.7327,2.7085,2.6653,2.526,2.4993,2.4559,2.3231,2.2986,2.2986,2.2986,2.2986,2.2986,2.2986,2.2986,2.2986,2.2986,2.2986,2.2986,2.2986,2.2986,2.2986,2.2986,2.2986,2.2986,2.2986,2.2986,2.2986,2.2986,2.2986,2.2986,2.2986,2.2986,2.2986,2.2986,2.2986,2.2986,2.2986,2.2986,2.2986,2.2986,2.2986,2.2986,2.2986,2.2986,2.2958,2.2873,2.2873,2.2816,2.2639,2.1773,2.1416,2.1074,1.9419,1.8845,1.8613,1.7772,1.7514,1.7514,1.7514,1.7514,1.752,1.7538,1.7744,1.8016,1.8263,1.8511,1.8758,1.905,1.911,1.911,1.911,1.911,1.911,1.911,1.911,1.911,1.911,1.911,1.911,1.911,1.911,1.911,1.911,1.911,1.911,1.911,1.911,1.911,1.911,1.911,1.911,1.911,1.911,1.911,1.911,1.911,1.911,1.911,1.9128,1.9267,1.9497,1.9551,1.9836,2.5829,2.6978,2.832,2.9639,2.9567,2.8641,2.6579,2.5927,2.5717,2.5672,2.5488,2.4955,2.3692,2.3476,2.3372,2.3042,2.2986,2.2986,2.2986,2.2986,2.2986,2.2986,2.2986,2.2986,2.2986,2.2986,2.2986,2.2986,2.2986,2.2986,2.2986,2.2986,2.2986,2.2986,2.2986,2.2986,2.2986,2.2986,2.2986,2.2986,2.2986,2.2986,2.2986,2.2986,2.2986,2.2986,2.2986,2.2986,2.2986,2.2986,2.2986,2.2986,2.2986,2.2546,2.1907,2.1907,2.146,2.0845,2.0644,2.009,1.9419,1.902,1.8415,1.7772,1.7573,1.7514,1.7514,1.7514,1.7514,1.7562,1.7768,1.7998,1.8269,1.8535,1.8675,1.8758,1.905,1.911,1.911,1.911,1.911,1.911,1.911,1.911,1.911,1.911,1.911,1.911,1.911,1.911,1.911,1.911,1.911,1.911,1.911,1.911,1.911,1.911,1.911,1.911,1.911,1.911,1.911,1.911,1.911,1.911,1.911,1.9316,1.9443,1.9509,1.9938,2.0198,2.5905,2.6742,2.7476,2.8595,2.8558,2.7686,2.5663,2.4539,2.398,2.4131,2.4027,2.3764,2.3127,2.2986,2.2986,2.2986,2.2986,2.2986,2.2986,2.2986,2.2986,2.2986,2.2986,2.2986,2.2986,2.2986,2.2986,2.2986,2.2986,2.2986,2.2986,2.2986,2.2986,2.2986,2.2986,2.2986,2.2986,2.2986,2.2986,2.2986,2.2986,2.2986,2.2986,2.2986,2.2986,2.2986,2.2986,2.2986,2.2986,2.2986,2.2986,2.2958,2.2526,2.2029,2.1559,2.1145,2.0694,2.0241,1.978,1.931,1.8823,1.8386,1.7889,1.7514,1.7514,1.7514,1.7514,1.7514,1.7514,1.7575,1.7835,1.8113,1.836,1.8657,1.8808,1.8941,1.908,1.911,1.911,1.911,1.911,1.911,1.911,1.911,1.911,1.911,1.911,1.911,1.911,1.911,1.911,1.911,1.911,1.911,1.911,1.911,1.911,1.911,1.911,1.911,1.911,1.911,1.911,1.911,1.911,1.9171,1.9298,1.9431,1.963,1.9896,2.018,2.038,2.6429,2.6904,2.6851,2.7454,2.7454,2.6869,2.5205,2.388,2.2986,2.2986,2.2986,2.2986,2.2986,2.2986,2.2986,2.2986,2.2986,2.2986,2.2986,2.2986,2.2986,2.2986,2.2986,2.2986,2.2986,2.2986,2.2986,2.2986,2.2986,2.2986,2.2986,2.2986,2.2986,2.2986,2.2986,2.2986,2.2986,2.2986,2.2986,2.2986,2.2986,2.2986,2.2986,2.2986,2.2986,2.2986,2.2986,2.2986,2.2986,2.2986,2.2893,2.2696,2.1907,2.1416,2.1052,2.0321,1.9953,1.9722,1.8933,1.8648,1.8525,1.7743,1.7514,1.7514,1.7514,1.7514,1.7514,1.7514,1.7514,1.7581,1.7895,1.8118,1.8372,1.868,1.8953,1.911,1.911,1.911,1.911,1.911,1.911,1.911,1.911,1.911,1.911,1.911,1.911,1.911,1.911,1.911,1.911,1.911,1.911,1.911,1.911,1.911,1.911,1.911,1.911,1.911,1.911,1.911,1.9128,1.9171,1.9177,1.9279,1.9497,1.9594,1.9872,2.0313,2.0356,2.0495,2.541,2.7248,2.8435,2.5891,2.63,2.6598,2.3907,2.3147,2.2986,2.2986,2.2986,2.2986,2.2986,2.2986,2.2986,2.2986,2.2986,2.2986,2.2986,2.2986,2.2986,2.2986,2.2986,2.2986,2.2986,2.2986,2.2986,2.2986,2.2986,2.2986,2.2986,2.2986,2.2986,2.2986,2.2986,2.2986,2.2986,2.2986,2.2986,2.2986,2.2986,2.2986,2.2986,2.2986,2.2986,2.2986,2.2986,2.2986,2.2986,2.2986,2.2518,2.1765,2.1644,2.0651,1.9252,1.9136,1.8561,1.786,1.7713,1.7684,1.7655,1.7543,1.7514,1.7514,1.7514,1.7514,1.7514,1.7514,1.7514,1.7629,1.8106,1.8263,1.842,1.8941,1.908,1.911,1.911,1.911,1.911,1.911,1.911,1.911,1.911,1.911,1.911,1.911,1.911,1.911,1.911,1.911,1.911,1.911,1.911,1.911,1.911,1.911,1.911,1.911,1.911,1.911,1.911,1.911,1.9213,1.9443,1.9449,1.9461,1.9497,1.9975,2.0241,2.0319,2.0549,2.067,2.4785,2.6254,2.7222,2.5685,2.5717,2.5663,2.3896,2.3239,2.2986,2.2986,2.2986,2.2986,2.2986,2.2986,2.2986,2.2986,2.2986,2.2986,2.2986,2.2986,2.2986,2.2986,2.2986,2.2986,2.2986,2.2986,2.2986,2.2986,2.2986,2.2986,2.2986,2.2986,2.2986,2.2986,2.2986,2.2986,2.2986,2.2986,2.2986,2.2986,2.2986,2.2986,2.2986,2.2986,2.2986,2.2986,2.2986,2.2696,2.2227,2.2227,2.1687,2.0831,2.0278,1.9593,1.8845,1.8298,1.786,1.7514,1.7514,1.7514,1.7514,1.7514,1.7514,1.7514,1.7514,1.7514,1.7514,1.7514,1.7617,1.7822,1.8191,1.8402,1.8607,1.9013,1.911,1.911,1.911,1.911,1.911,1.911,1.911,1.911,1.911,1.911,1.911,1.911,1.911,1.911,1.911,1.911,1.911,1.911,1.911,1.911,1.911,1.911,1.911,1.911,1.911,1.911,1.911,1.911,1.9231,1.9491,1.9497,1.9648,1.9957,2.0192,2.0386,2.0531,2.0652,2.07,2.4296,2.5086,2.5601,2.5508,2.5236,2.4783,2.4069,2.3436,2.2986,2.2986,2.2986,2.2986,2.2986,2.2986,2.2986,2.2986,2.2986,2.2986,2.2986,2.2986,2.2986,2.2986,2.2986,2.2986,2.2986,2.2986,2.2986,2.2986,2.2986,2.2986,2.2986,2.2986,2.2986,2.2986,2.2986,2.2986,2.2986,2.2986,2.2986,2.2986,2.2986,2.2986,2.2986,2.2986,2.2873,2.2667,2.2901,2.2462,2.1587,2.1587,2.0945,1.9866,1.9165,1.8758,1.8473,1.7772,1.7514,1.7514,1.7514,1.7514,1.7514,1.7514,1.7514,1.7514,1.7514,1.7514,1.7514,1.7514,1.7702,1.7968,1.8221,1.8487,1.8784,1.9044,1.911,1.911,1.911,1.911,1.911,1.911,1.911,1.911,1.911,1.911,1.911,1.911,1.911,1.911,1.911,1.911,1.911,1.911,1.911,1.911,1.911,1.911,1.911,1.911,1.911,1.911,1.911,1.9171,1.9334,1.96,1.9672,1.9902,2.0313,2.038,2.0513,2.07,2.07,2.07,2.3772,2.4106,2.4383,2.4752,2.4599,2.4261,2.3977,2.3436,2.2986,2.2986,2.2986,2.2986,2.2986,2.2986,2.2986,2.2986,2.2986,2.2986,2.2986,2.2986,2.2986,2.2986,2.2986,2.2986,2.2986,2.2986,2.2986,2.2986,2.2986,2.2986,2.2986,2.2986,2.2986,2.2986,2.2986,2.2986,2.2986,2.2986,2.2986,2.2986,2.2986,2.2986,2.2986,2.2986,2.2518,2.1708,2.2611,2.2462,2.1587,2.1587,2.0558,1.8968,1.8903,1.8357,1.7573,1.7508,1.7514,1.7514,1.7514,1.7514,1.7514,1.7514,1.7514,1.7514,1.7514,1.7514,1.7514,1.7514,1.7702,1.7968,1.8221,1.8487,1.8784,1.9044,1.911,1.911,1.911,1.911,1.911,1.911,1.911,1.911,1.911,1.911,1.911,1.911,1.911,1.911,1.911,1.911,1.911,1.911,1.911,1.911,1.911,1.911,1.911,1.911,1.911,1.911,1.911,1.9346,1.9612,1.9863,2.0144,2.0283,2.0313,2.0561,2.0688,2.07,2.07,2.07,2.3749,2.3398,2.3075,2.3994,2.3555,2.2969,2.327,2.3154,2.2986,2.2986,2.2986,2.2986,2.2986,2.2986,2.2986,2.2986,2.2986,2.2986,2.2986,2.2986,2.2986,2.2986,2.2986,2.2986,2.2986,2.2986,2.2986,2.2986,2.2986,2.2986,2.2986,2.2986,2.2986,2.2986,2.2986,2.2986,2.2986,2.2986,2.2986,2.2986,2.2986,2.2986,2.2986,2.2986,2.249,2.1616,2.1964,2.1252,1.9881,1.9881,1.9129,1.8006,1.8006,1.7801,1.7514,1.7514,1.7514,1.7514,1.7514,1.7514,1.7514,1.7514,1.7514,1.7514,1.7514,1.7514,1.7514,1.7514,1.7828,1.8167,1.8269,1.8645,1.8989,1.9086,1.911,1.911,1.911,1.911,1.911,1.911,1.911,1.911,1.911,1.911,1.911,1.911,1.911,1.911,1.911,1.911,1.911,1.911,1.911,1.911,1.911,1.911,1.911,1.911,1.911,1.9183,1.9352,1.9449,1.9709,2.0162,2.0265,2.0392,2.0561,2.0658,2.07,2.07,2.07,2.07,2.3491,0.0,0.0,2.3349,2.2693,2.2018,2.2818,2.2839,2.2759,2.2971,2.2986,2.2986,2.2986,2.2986,2.2986,2.2986,2.2986,2.2986,2.2986,2.2986,2.2986,2.2986,2.2986,2.2986,2.2986,2.2986,2.2986,2.2986,2.2986,2.2986,2.2986,2.2986,2.2986,2.2986,2.2986,2.2986,2.2986,2.2986,2.2986,2.2986,2.2986,2.2986,2.2986,2.2667,2.2029,2.1145,2.0823,2.0019,1.8903,1.8903,1.8357,1.7514,1.7514,1.7514,1.7514,1.7514,1.7514,1.7514,1.7514,1.7514,1.7514,1.7514,1.7514,1.7514,1.7514,1.7514,1.7532,1.7617,1.7974,1.8312,1.8402,1.8784,1.911,1.911,1.911,1.911,1.911,1.911,1.911,1.911,1.911,1.911,1.911,1.911,1.911,1.911,1.911,1.911,1.911,1.911,1.911,1.911,1.911,1.911,1.911,1.911,1.911,1.911,1.911,1.9225,1.9491,1.9588,1.9854,2.0301,2.0398,2.0531,2.07,2.07,2.07,2.07,2.07,2.07,0.0,0.0,0.0,0.0,2.207,2.1503,2.2643,2.2523,2.2301,2.2871,2.299,2.3014,2.2986,2.2986,2.2986,2.2986,2.2986,2.2986,2.2986,2.2986,2.2986,2.2986,2.2986,2.2986,2.2986,2.2986,2.2986,2.2986,2.2986,2.2986,2.2986,2.2986,2.2986,2.2986,2.2986,2.2986,2.2986,2.2986,2.2986,2.2986,2.2986,2.2986,2.2958,2.2029,2.1117,2.0241,1.931,1.8881,1.8845,1.8845,1.8327,1.7514,1.7514,1.7514,1.7514,1.7514,1.7514,1.7514,1.7514,1.7514,1.7514,1.7514,1.7514,1.7514,1.7514,1.7514,1.7569,1.7828,1.8076,1.8354,1.8625,1.8917,1.911,1.911,1.9072,1.9078,1.911,1.9072,1.9078,1.911,1.911,1.911,1.911,1.911,1.911,1.911,1.911,1.911,1.911,1.911,1.911,1.911,1.911,1.911,1.911,1.911,1.911,1.911,1.9116,1.9237,1.9497,1.9781,2.0053,2.0319,2.0573,2.07,2.07,2.07,2.07,2.07,2.07,2.07,2.3001,0.0,0.0,0.0,0.0,0.0,2.1009,2.1903,2.2674,2.2409,2.3039,2.352,2.307,2.2986,2.2986,2.2986,2.2986,2.2986,2.2986,2.2986,2.2986,2.2986,2.2986,2.2986,2.2986,2.2986,2.2986,2.2986,2.2986,2.2986,2.2986,2.2986,2.2986,2.2986,2.2986,2.2986,2.2986,2.2986,2.2986,2.2986,2.2986,2.2986,2.2958,2.2029,2.1117,2.0241,1.931,1.8502,1.7889,1.7889,1.7713,1.7514,1.7514,1.7514,1.7514,1.7514,1.7514,1.7514,1.7514,1.7514,1.7514,1.7514,1.7514,1.7514,1.7514,1.7514,1.7569,1.7828,1.8076,1.8396,1.888,1.905,1.911,1.911,1.8682,1.8457,1.8976,1.8682,1.8457,1.9008,1.911,1.911,1.911,1.911,1.911,1.911,1.911,1.911,1.911,1.911,1.911,1.911,1.911,1.911,1.911,1.911,1.911,1.911,1.9285,1.9515,1.9793,2.0059,2.0325,2.0591,2.0664,2.07,2.07,2.07,2.07,2.07,2.07,2.07,0.0,0.0,0.0,0.0,0.0,0.0,2.0634,2.1472,2.2282,2.2427,2.3035,2.3408,2.307,2.2986,2.2986,2.2986,2.2986,2.2986,2.2986,2.2986,2.2986,2.2986,2.2986,2.2986,2.2986,2.2986,2.2986,2.2986,2.2986,2.2986,2.2986,2.2986,2.2986,2.2986,2.2986,2.2986,2.2986,2.2986,2.2986,2.2986,2.2986,2.2986,2.2958,2.1659,2.078,2.0241,1.8874,1.8006,1.7514,1.7514,1.7514,1.7514,1.7514,1.7514,1.7514,1.7514,1.7514,1.7514,1.7514,1.7514,1.7514,1.7514,1.7514,1.7514,1.7514,1.7514,1.7593,1.7974,1.8354,1.8629,1.8637,1.8655,1.8559,1.8296,1.791,1.7711,1.8136,1.8103,1.8232,1.8944,1.911,1.911,1.911,1.911,1.911,1.911,1.911,1.911,1.911,1.911,1.911,1.911,1.911,1.911,1.911,1.911,1.911,1.911,1.9358,1.9624,1.9875,2.0174,2.0434,2.0694,2.07,2.07,2.07,2.07,2.07,2.07,2.07,2.07,0.0,0.0,0.0,0.0,0.0,0.0,2.0887,2.1084,2.1473,2.2479,2.2806,2.2886,2.2803,2.2771,2.2763,2.2795,2.2811,2.2859,2.299,2.2986,2.2986,2.2986,2.2986,2.2986,2.2986,2.2986,2.2986,2.2986,2.2986,2.2986,2.2986,2.2986,2.2986,2.2986,2.2986,2.2986,2.2986,2.2986,2.2986,2.2986,2.2986,2.2986,2.2929,2.1131,2.0299,2.0184,1.8327,1.7514,1.7514,1.7514,1.7514,1.7514,1.7514,1.7514,1.7514,1.7514,1.7514,1.7514,1.7514,1.7514,1.7514,1.7514,1.7514,1.7514,1.7514,1.7514,1.7593,1.8143,1.8636,1.8816,1.8162,1.7937,1.7744,1.713,1.6942,1.691,1.6969,1.7453,1.8098,1.8848,1.9046,1.911,1.911,1.911,1.911,1.911,1.911,1.911,1.911,1.911,1.911,1.911,1.911,1.911,1.911,1.911,1.9122,1.9152,1.94,1.9672,1.9917,2.0217,2.0464,2.07,2.07,2.07,2.07,2.07,2.07,2.07,2.07,2.07,0.0,0.0,0.0,0.0,0.0,0.0,1.9868,2.0418,2.1038,2.0801,2.1559,2.2131,2.1652,2.1294,2.1161,2.1503,2.169,2.2091,2.2883,2.2986,2.2986,2.2986,2.2986,2.2986,2.2986,2.2986,2.2986,2.2986,2.2986,2.2986,2.2986,2.2986,2.2986,2.2986,2.2986,2.2986,2.2986,2.2986,2.2986,2.2986,2.2986,2.2986,2.2929,2.1131,2.0299,2.0184,1.8327,1.7514,1.7514,1.7514,1.7514,1.7514,1.7514,1.7514,1.7514,1.7514,1.7514,1.7514,1.7514,1.7514,1.7514,1.7514,1.7514,1.7514,1.7514,1.7514,1.7593,1.8143,1.826,1.8168,1.8033,1.7615,1.7163,1.7034,1.6586,1.6326,1.6872,1.7098,1.7389,1.8066,1.8682,1.911,1.911,1.911,1.911,1.911,1.911,1.911,1.911,1.911,1.911,1.911,1.911,1.911,1.911,1.911,1.9201,1.9406,1.9684,1.9957,2.0223,2.0489,2.0652,2.07,2.07,2.07,2.07,2.07,2.07,2.07,2.07,2.07,0.0,0.0,0.0,2.1806,0.0,0.0,0.0,2.0455,2.0646,2.0697,2.1207,2.1557,2.127,2.1045,2.0962,2.1164,2.1537,2.1787,2.1758,2.2456,2.2986,2.2986,2.2986,2.2986,2.2986,2.2986,2.2986,2.2986,2.2986,2.2986,2.2986,2.2986,2.2986,2.2986,2.2986,2.2986,2.2986,2.2986,2.2986,2.2986,2.2518,2.2292,2.2227,2.0429,1.9606,1.9519,1.8123,1.7514,1.7514,1.7514,1.7514,1.7514,1.7514,1.7514,1.7514,1.7514,1.7514,1.7514,1.7514,1.7514,1.7514,1.7514,1.7514,1.7514,1.7514,1.7702,1.7883,1.7781,1.7877,1.784,1.7168,1.6742,1.6423,1.6034,1.5714,1.5546,1.5871,1.6229,1.6715,1.7357,1.8071,1.8688,1.9046,1.911,1.911,1.911,1.911,1.911,1.911,1.911,1.911,1.911,1.911,1.911,1.911,1.911,1.9219,1.9485,1.9763,2.0002,2.0301,2.0561,2.07,2.07,2.07,2.07,2.07,2.07,2.07,2.07,2.07,2.07,0.0,0.0,0.0,0.0,0.0,2.0307,0.0,0.0,0.0,2.0727,2.0764,2.0738,2.0815,2.0712,2.066,2.0798,2.1289,2.1338,2.0549,2.1643,2.2469,2.2323,2.2728,2.2883,2.2605,2.2609,2.27,2.299,2.274,2.27,2.3006,2.2986,2.2986,2.2986,2.2986,2.2986,2.2986,2.2986,2.2901,2.2724,2.1964,2.1509,2.1281,1.965,1.8903,1.8852,1.7918,1.7514,1.7514,1.7514,1.7514,1.7514,1.7514,1.7514,1.7514,1.7514,1.7514,1.7514,1.7514,1.7514,1.7514,1.7514,1.7514,1.7514,1.7514,1.7859,1.8171,1.758,1.7593,1.755,1.6456,1.6001,1.5649,1.5029,1.4898,1.4898,1.4898,1.5486,1.6196,1.6877,1.755,1.8232,1.8976,1.911,1.911,1.911,1.911,1.911,1.911,1.911,1.911,1.911,1.911,1.911,1.911,1.9152,1.9298,1.9564,1.9842,2.0114,2.038,2.0591,2.07,2.07,2.07,2.07,2.07,2.07,2.07,2.07,2.07,2.07,0.0,0.0,0.0,0.0,2.0741,0.0,0.0,0.0,1.9429,1.9496,0.0,1.9094,1.9439,0.0,0.0,1.9394,1.9726,1.9965,2.0191,2.0547,2.0549,1.9893,2.1695,2.2502,2.1256,2.1129,2.1645,2.2919,2.1835,2.1677,2.2922,2.2986,2.2986,2.2986,2.2986,2.2986,2.2986,2.2986,2.2582,2.1765,2.1644,2.1203,2.0407,1.9368,1.8903,1.8852,1.7918,1.7514,1.7514,1.7514,1.7514,1.7514,1.7514,1.7514,1.7514,1.7514,1.7514,1.7514,1.7514,1.7514,1.7514,1.7514,1.7514,1.7514,1.7514,1.7859,1.8294,1.8201,1.7656,1.7071,1.6936,1.5969,1.4996,1.4931,1.4898,1.4898,1.4898,1.5486,1.6196,1.6877,1.755,1.8232,1.8976,1.911,1.911,1.911,1.911,1.911,1.911,1.911,1.911,1.911,1.911,1.911,1.911,1.9322,1.9576,1.9854,2.012,2.0386,2.0646,2.0688,2.07,2.07,2.07,2.07,2.07,2.07,2.07,2.07,2.07,2.07,0.0,0.0,0.0,0.0,0.0,0.0,2.0053,0.0,1.9301,0.0,0.0,0.0,0.0,0.0,0.0,0.0,1.9314,1.9372,1.8721,1.9536,2.0103,1.9777,2.0447,2.0909,2.0899,2.1629,2.2351,2.2974,2.2438,2.2394,2.2954,2.2986,2.2986,2.2986,2.2986,2.2752,2.2199,2.2199,2.1744,2.0831,2.0285,1.9853,1.9461,1.8532,1.8094,1.8064,1.7655,1.7514,1.7514,1.7514,1.7514,1.7514,1.7514,1.7514,1.7514,1.7514,1.7514,1.7514,1.7514,1.7514,1.7514,1.7514,1.7514,1.7514,1.7514,1.7859,1.8201,1.7796,1.7341,1.7001,1.7001,1.6261,1.5551,1.5551,1.5551,1.5421,1.4996,1.5486,1.6196,1.6877,1.755,1.8232,1.8976,1.911,1.911,1.911,1.911,1.911,1.911,1.911,1.911,1.911,1.911,1.911,1.911,1.9352,1.9618,1.9869,2.0307,2.0591,2.07,2.07,2.07,2.07,2.07,2.07,2.07,2.07,2.07,2.07,2.07,2.07,2.4361,0.0,0.0,0.0,0.0,0.0,0.0,0.0,0.0,0.0,0.0,0.0,0.0,0.0,1.8897,0.0,0.0,1.8838,1.7813,1.8629,1.9179,1.8858,1.8718,1.9098,2.0209,2.124,2.2002,2.2391,2.2414,2.2581,2.299,2.2986,2.2986,2.2986,2.2986,2.2546,2.1623,2.1587,2.1024,1.9924,1.9223,1.8765,1.8502,1.7801,1.7514,1.7514,1.7514,1.7514,1.7514,1.7514,1.7514,1.7514,1.7514,1.7514,1.7514,1.7514,1.7514,1.7514,1.7514,1.7514,1.7514,1.7514,1.7514,1.7514,1.7514,1.7859,1.8201,1.7642,1.7399,1.726,1.726,1.678,1.6229,1.6039,1.6006,1.5844,1.5323,1.5616,1.6261,1.7104,1.7679,1.8232,1.8976,1.911,1.911,1.911,1.911,1.911,1.911,1.911,1.911,1.911,1.911,1.9134,1.9207,1.9461,1.9763,2.0114,2.0489,2.07,2.07,2.07,2.07,2.07,2.07,2.07,2.07,2.07,2.07,2.07,2.07,2.07,0.0,0.0,0.0,2.206,0.0,0.0,0.0,0.0,1.9301,0.0,0.0,0.0,1.9228,1.8659,1.8265,0.0,0.0,0.0,0.0,1.779,1.7157,1.5987,1.6396,1.7323,1.8741,1.8915,1.9503,2.0859,2.0962,2.1558,2.2914,2.2986,2.2986,2.2986,2.2986,2.2546,2.1623,2.1587,2.0702,1.8933,1.8903,1.8415,1.7537,1.7514,1.7514,1.7514,1.7514,1.7514,1.7514,1.7514,1.7514,1.7514,1.7514,1.7514,1.7514,1.7514,1.7514,1.7514,1.7514,1.7514,1.7514,1.7514,1.7514,1.7514,1.7514,1.7859,1.8294,1.8263,1.8128,1.7969,1.7969,1.7453,1.6812,1.6164,1.6006,1.6001,1.5974,1.5969,1.6391,1.7711,1.8001,1.8232,1.8976,1.911,1.911,1.911,1.911,1.911,1.911,1.911,1.911,1.911,1.911,1.9213,1.9467,1.9745,2.0126,2.0646,2.0694,2.07,2.07,2.07,2.07,2.07,2.07,2.07,2.07,2.07,2.07,2.07,2.07,2.07,2.4141,2.3971,2.3583,2.1853,0.0,0.0,0.0,0.0,0.0,0.0,0.0,0.0,0.0,0.0,0.0,0.0,0.0,0.0,0.0,1.6956,1.6545,1.6146,1.6682,1.7182,1.7397,1.9098,2.0383,2.0859,2.1756,2.2486,2.2962,2.2986,2.2986,2.2986,2.2986,2.2271,2.0752,2.0752,1.9824,1.7977,1.7977,1.7801,1.7514,1.7514,1.7514,1.7514,1.7514,1.7514,1.7514,1.7514,1.7514,1.7514,1.7514,1.7514,1.7514,1.7514,1.7514,1.7514,1.7514,1.7514,1.7514,1.7514,1.7514,1.7514,1.7514,1.7859,1.8294,1.8294,1.816,1.8098,1.8591,1.7878,1.7034,1.726,1.6969,1.665,1.665,1.7007,1.7453,1.7905,1.8393,1.8816,1.9072,1.911,1.911,1.911,1.911,1.911,1.911,1.911,1.911,1.911,1.911,1.9213,1.9479,1.992,2.0325,2.0682,2.07,2.07,2.07,2.07,2.07,2.07,2.07,2.07,2.07,2.07,2.07,2.07,2.07,2.07,2.3738,2.3865,2.3678,2.2142,2.1929,2.1671,2.0003,0.0,1.9624,0.0,0.0,0.0,0.0,0.0,0.0,0.0,0.0,0.0,0.0,1.6981,1.667,1.6528,1.6644,1.6776,1.6895,1.8657,2.009,2.0836,2.1851,2.2597,2.297,2.2986,2.2986,2.2986,2.2986,2.2129,2.0328,2.0299,1.9374,1.7514,1.7514,1.7514,1.7514,1.7514,1.7514,1.7514,1.7514,1.7514,1.7514,1.7514,1.7514,1.7514,1.7514,1.7514,1.7514,1.7514,1.7514,1.7514,1.7514,1.7514,1.7514,1.7514,1.7514,1.7514,1.7514,1.7822,1.8215,1.8378,1.836,1.8395,1.9066,1.8495,1.7781,1.7969,1.7679,1.7357,1.7357,1.7711,1.8066,1.8328,1.8784,1.911,1.911,1.911,1.911,1.911,1.911,1.911,1.911,1.911,1.911,1.911,1.911,1.9255,1.9618,2.0144,2.0525,2.0694,2.07,2.07,2.07,2.07,2.0742,2.0839,2.0755,2.0749,2.0845,2.0749,2.07,2.07,2.07,2.07]},{"header":{"parameterUnit":"m.s-1","parameterCategory":1,"la1":30.6,"la2":29.2853,"lo1":-89.7004,"lo2":-87.6739,"dy":0.0162,"dx":0.0183,"nx":112,"ny":82,"refTime":"2023-05-28T12:00:00:Z","depth":0,"parameterNumber":3,"parameterNumberName":"V-component_of_WINDS"},"data":[0.0,0.0,0.0,0.0,0.0,0.0,0.0,0.0,0.0,0.0,0.0,0.0,0.0,0.0,0.0,0.0,0.0,0.0,0.0,0.0,0.0,0.0,0.0,0.0,0.0,0.0,0.0,0.0,0.0,0.0,0.0,0.0,0.0,0.0,0.0,0.0,0.0,0.0,0.0,0.0,0.0,0.0,0.0,0.0,0.0,0.0,0.0,0.0,0.0,0.0,0.0,0.0,0.0,0.0,0.0,0.0,0.0,0.0,0.0,0.0,0.0,0.0,0.0,0.0,0.0,0.0,0.0,0.0,0.0,0.0,0.0,0.0,0.0,0.0,0.0,0.0,0.0,0.0,0.0,0.0,0.0,0.0,0.0,0.0,0.0,0.0,0.0,0.0,0.0,0.0,2.7407,2.7926,3.0383,3.1996,3.1996,3.1996,3.0788,2.7969,0.0,0.0,0.0,0.0,0.0,0.0,0.0,0.0,0.0,0.0,0.0,0.0,0.0,0.0,0.0,0.0,0.0,0.0,0.0,0.0,0.0,0.0,0.0,0.0,0.0,0.0,0.0,0.0,0.0,0.0,0.0,0.0,0.0,0.0,0.0,0.0,0.0,0.0,0.0,0.0,0.0,0.0,0.0,0.0,0.0,0.0,0.0,0.0,0.0,0.0,0.0,0.0,0.0,0.0,0.0,0.0,0.0,0.0,0.0,0.0,0.0,0.0,0.0,0.0,0.0,0.0,0.0,0.0,0.0,0.0,0.0,0.0,0.0,0.0,0.0,0.0,0.0,0.0,0.0,0.0,0.0,0.0,0.0,0.0,0.0,0.0,0.0,0.0,0.0,0.0,0.0,0.0,0.0,0.0,0.0,0.0,0.0,0.0,0.0,0.0,0.0,0.0,0.0,0.0,2.8358,3.1142,3.178,3.1996,3.1996,3.1996,3.0788,2.7969,0.0,0.0,0.0,0.0,0.0,0.0,0.0,0.0,0.0,0.0,0.0,0.0,0.0,0.0,0.0,0.0,0.0,0.0,0.0,0.0,0.0,0.0,0.0,0.0,0.0,0.0,0.0,0.0,0.0,0.0,0.0,0.0,0.0,0.0,0.0,0.0,0.0,0.0,0.0,0.0,0.0,0.0,0.0,0.0,0.0,0.0,0.0,0.0,0.0,0.0,0.0,0.0,0.0,0.0,0.0,0.0,0.0,0.0,0.0,0.0,0.0,0.0,0.0,0.0,0.0,0.0,0.0,0.0,0.0,0.0,0.0,0.0,0.0,0.0,0.0,0.0,0.0,0.0,0.0,0.0,0.0,0.0,0.0,0.0,0.0,0.0,0.0,0.0,0.0,0.0,0.0,0.0,0.0,0.0,0.0,0.0,0.0,0.0,0.0,0.0,0.0,0.0,0.0,2.7914,2.9347,3.2028,3.2261,3.2219,3.2219,3.2219,3.1143,2.8606,2.7819,0.0,0.0,0.0,0.0,0.0,0.0,0.0,0.0,0.0,0.0,0.0,0.0,0.0,0.0,0.0,0.0,0.0,0.0,0.0,0.0,0.0,0.0,0.0,0.0,0.0,0.0,0.0,0.0,0.0,0.0,0.0,0.0,0.0,0.0,0.0,0.0,0.0,0.0,0.0,0.0,0.0,0.0,0.0,0.0,0.0,0.0,0.0,0.0,0.0,0.0,0.0,0.0,0.0,0.0,0.0,0.0,0.0,0.0,0.0,0.0,0.0,0.0,0.0,0.0,0.0,0.0,0.0,0.0,0.0,0.0,0.0,0.0,0.0,0.0,0.0,0.0,0.0,0.0,0.0,0.0,0.0,0.0,0.0,0.0,0.0,0.0,0.0,0.0,0.0,0.0,0.0,0.0,0.0,0.0,0.0,0.0,0.0,0.0,0.0,0.0,0.0,0.0,2.9631,3.0584,3.2215,3.2398,3.2398,3.2398,3.2398,3.144,2.92,2.8388,0.0,0.0,0.0,0.0,0.0,0.0,0.0,0.0,0.0,0.0,0.0,0.0,0.0,0.0,0.0,0.0,0.0,0.0,0.0,0.0,0.0,0.0,0.0,0.0,0.0,0.0,0.0,0.0,0.0,0.0,0.0,0.0,0.0,0.0,0.0,0.0,0.0,0.0,0.0,0.0,0.0,0.0,0.0,0.0,0.0,0.0,0.0,0.0,0.0,0.0,0.0,0.0,0.0,0.0,0.0,0.0,0.0,0.0,0.0,0.0,0.0,0.0,0.0,0.0,0.0,0.0,0.0,0.0,0.0,0.0,0.0,0.0,0.0,0.0,0.0,0.0,0.0,0.0,0.0,0.0,0.0,0.0,0.0,0.0,0.0,0.0,0.0,0.0,0.0,0.0,0.0,0.0,0.0,0.0,0.0,0.0,0.0,0.0,0.0,0.0,0.0,0.0,3.0948,3.2228,3.2382,3.2398,3.2398,3.2398,3.2398,3.1482,2.9315,2.8438,0.0,0.0,0.0,0.0,0.0,0.0,0.0,0.0,0.0,0.0,0.0,0.0,0.0,0.0,0.0,0.0,0.0,0.0,0.0,0.0,0.0,0.0,0.0,0.0,0.0,0.0,0.0,0.0,0.0,0.0,0.0,0.0,0.0,0.0,0.0,0.0,0.0,0.0,0.0,0.0,0.0,0.0,0.0,0.0,0.0,0.0,0.0,0.0,0.0,0.0,0.0,0.0,0.0,0.0,0.0,0.0,0.0,0.0,0.0,0.0,0.0,0.0,0.0,0.0,0.0,0.0,0.0,0.0,0.0,0.0,0.0,0.0,0.0,0.0,0.0,0.0,0.0,0.0,0.0,0.0,0.0,0.0,0.0,0.0,0.0,0.0,0.0,0.0,0.0,0.0,0.0,0.0,0.0,0.0,0.0,0.0,0.0,0.0,0.0,0.0,0.0,0.0,3.0844,3.1994,0.0,3.3013,3.3212,3.3674,3.3705,3.2787,3.0597,0.0,0.0,0.0,0.0,0.0,0.0,0.0,0.0,0.0,0.0,0.0,0.0,0.0,0.0,0.0,0.0,0.0,0.0,0.0,0.0,0.0,0.0,0.0,0.0,0.0,0.0,0.0,0.0,0.0,0.0,0.0,0.0,0.0,0.0,0.0,0.0,0.0,0.0,0.0,0.0,0.0,0.0,0.0,0.0,0.0,0.0,0.0,0.0,0.0,0.0,0.0,0.0,0.0,0.0,0.0,0.0,0.0,0.0,0.0,0.0,0.0,0.0,0.0,0.0,0.0,0.0,0.0,0.0,0.0,0.0,0.0,0.0,0.0,0.0,0.0,0.0,0.0,0.0,0.0,0.0,0.0,0.0,0.0,0.0,0.0,0.0,0.0,0.0,0.0,0.0,0.0,0.0,0.0,0.0,0.0,0.0,0.0,0.0,0.0,0.0,0.0,0.0,3.0332,3.1498,3.2623,0.0,3.3751,3.3951,3.4459,3.4505,3.3584,3.1401,0.0,0.0,0.0,0.0,0.0,0.0,0.0,0.0,0.0,0.0,0.0,0.0,0.0,0.0,0.0,0.0,0.0,0.0,0.0,0.0,0.0,0.0,0.0,0.0,0.0,0.0,0.0,0.0,0.0,0.0,0.0,0.0,0.0,0.0,0.0,0.0,0.0,0.0,0.0,0.0,0.0,0.0,0.0,0.0,0.0,0.0,0.0,0.0,0.0,0.0,0.0,0.0,0.0,0.0,0.0,0.0,0.0,0.0,0.0,0.0,0.0,0.0,0.0,0.0,0.0,0.0,0.0,0.0,0.0,0.0,0.0,0.0,0.0,0.0,0.0,0.0,0.0,0.0,0.0,0.0,0.0,0.0,0.0,0.0,0.0,0.0,0.0,0.0,0.0,0.0,0.0,0.0,0.0,0.0,0.0,0.0,0.0,0.0,0.0,0.0,0.0,0.0,3.1384,3.3226,3.4505,3.452,3.452,3.452,3.452,3.452,3.3642,0.0,0.0,0.0,0.0,0.0,0.0,0.0,0.0,0.0,0.0,0.0,0.0,0.0,0.0,0.0,0.0,0.0,0.0,0.0,0.0,0.0,0.0,0.0,0.0,0.0,0.0,0.0,0.0,0.0,0.0,0.0,0.0,0.0,0.0,0.0,0.0,0.0,0.0,0.0,0.0,0.0,0.0,0.0,0.0,0.0,0.0,0.0,0.0,0.0,0.0,0.0,0.0,0.0,0.0,0.0,0.0,0.0,0.0,0.0,0.0,0.0,0.0,0.0,0.0,0.0,0.0,0.0,0.0,0.0,0.0,0.0,0.0,0.0,0.0,0.0,0.0,0.0,0.0,0.0,0.0,0.0,0.0,0.0,0.0,0.0,0.0,0.0,0.0,0.0,0.0,0.0,0.0,0.0,0.0,0.0,0.0,0.0,0.0,0.0,0.0,0.0,0.0,0.0,3.1907,3.3448,3.469,3.5137,3.5213,3.5399,3.5876,3.5907,3.5029,3.2936,0.0,0.0,0.0,0.0,0.0,0.0,0.0,0.0,0.0,0.0,0.0,0.0,0.0,0.0,0.0,0.0,0.0,0.0,0.0,0.0,0.0,0.0,0.0,0.0,0.0,0.0,0.0,0.0,0.0,0.0,0.0,0.0,0.0,0.0,0.0,0.0,0.0,0.0,0.0,0.0,0.0,0.0,0.0,0.0,0.0,0.0,0.0,0.0,0.0,0.0,0.0,0.0,0.0,0.0,0.0,0.0,0.0,0.0,0.0,0.0,0.0,0.0,0.0,0.0,0.0,0.0,0.0,0.0,0.0,0.0,0.0,0.0,0.0,0.0,0.0,0.0,0.0,0.0,0.0,0.0,0.0,0.0,0.0,0.0,0.0,0.0,0.0,0.0,0.0,0.0,0.0,0.0,0.0,0.0,0.0,0.0,0.0,0.0,0.0,0.0,0.0,0.0,3.264,3.4216,3.5445,3.586,3.5907,3.6061,3.6476,3.6507,3.5737,3.3937,0.0,0.0,0.0,0.0,0.0,0.0,0.0,0.0,0.0,0.0,0.0,0.0,0.0,0.0,0.0,0.0,0.0,0.0,0.0,0.0,0.0,0.0,0.0,0.0,0.0,0.0,0.0,0.0,0.0,0.0,0.0,0.0,0.0,0.0,0.0,0.0,0.0,0.0,0.0,0.0,0.0,0.0,0.0,0.0,0.0,0.0,0.0,0.0,0.0,0.0,0.0,0.0,0.0,0.0,0.0,0.0,0.0,0.0,0.0,0.0,0.0,0.0,0.0,0.0,0.0,0.0,0.0,0.0,0.0,0.0,0.0,0.0,0.0,0.0,0.0,0.0,0.0,0.0,0.0,0.0,0.0,0.0,0.0,0.0,0.0,0.0,0.0,0.0,0.0,0.0,0.0,0.0,0.0,0.0,0.0,0.0,0.0,0.0,0.0,0.0,0.0,0.0,3.349,3.526,3.6507,3.6507,3.6507,3.6507,3.6507,3.6507,3.5953,3.4674,0.0,0.0,0.0,0.0,0.0,0.0,0.0,0.0,0.0,0.0,0.0,0.0,0.0,0.0,0.0,0.0,0.0,0.0,0.0,0.0,0.0,0.0,0.0,0.0,0.0,0.0,0.0,0.0,0.0,0.0,0.0,0.0,0.0,0.0,0.0,0.0,0.0,0.0,0.0,0.0,0.0,0.0,0.0,0.0,0.0,0.0,0.0,0.0,0.0,0.0,0.0,0.0,0.0,0.0,0.0,0.0,0.0,0.0,0.0,0.0,2.5691,2.4644,0.0,0.0,0.0,0.0,0.0,0.0,0.0,0.0,0.0,0.0,0.0,0.0,0.0,0.0,0.0,0.0,0.0,0.0,0.0,0.0,0.0,0.0,0.0,0.0,0.0,0.0,0.0,0.0,0.0,0.0,0.0,0.0,0.0,0.0,0.0,0.0,0.0,0.0,0.0,0.0,3.4182,3.5568,3.6507,3.6507,3.6507,3.6507,3.6507,3.6507,3.6153,3.5337,3.4505,0.0,0.0,0.0,0.0,0.0,0.0,0.0,0.0,0.0,0.0,0.0,0.0,0.0,0.0,0.0,0.0,0.0,0.0,0.0,0.0,0.0,0.0,0.0,0.0,0.0,0.0,0.0,0.0,0.0,0.0,0.0,0.0,0.0,0.0,0.0,0.0,0.0,0.0,0.0,0.0,0.0,0.0,0.0,0.0,0.0,0.0,0.0,0.0,0.0,0.0,0.0,0.0,0.0,0.0,0.0,0.0,0.0,0.0,0.0,2.6494,2.5719,0.0,0.0,0.0,0.0,0.0,0.0,0.0,0.0,0.0,0.0,0.0,0.0,0.0,0.0,0.0,0.0,0.0,0.0,0.0,0.0,0.0,0.0,0.0,0.0,0.0,0.0,0.0,0.0,0.0,0.0,0.0,0.0,0.0,0.0,0.0,0.0,0.0,0.0,0.0,0.0,3.489,3.6153,3.7092,3.743,3.7461,3.7461,3.7461,3.7747,3.7779,3.7435,3.6483,0.0,0.0,0.0,0.0,0.0,0.0,0.0,0.0,0.0,0.0,0.0,0.0,0.0,0.0,0.0,0.0,0.0,0.0,0.0,0.0,0.0,0.0,0.0,0.0,0.0,0.0,0.0,0.0,0.0,0.0,0.0,0.0,0.0,0.0,0.0,0.0,0.0,0.0,0.0,0.0,0.0,0.0,0.0,0.0,0.0,0.0,0.0,0.0,0.0,0.0,0.0,0.0,0.0,2.9021,2.9108,2.9108,2.9108,2.927,2.9402,2.7261,2.6862,2.757,2.5913,0.0,0.0,0.0,0.0,0.0,0.0,0.0,0.0,0.0,0.0,0.0,0.0,0.0,0.0,0.0,0.0,0.0,0.0,0.0,0.0,0.0,0.0,3.2468,3.2589,3.3335,3.3682,3.2464,0.0,0.0,0.0,0.0,0.0,0.0,0.0,0.0,0.0,0.0,0.0,3.5753,3.7033,3.8022,3.8446,3.8705,3.8738,3.8524,3.9108,3.9502,3.9502,3.8457,3.7742,0.0,0.0,0.0,0.0,0.0,0.0,0.0,0.0,0.0,0.0,0.0,0.0,0.0,0.0,0.0,0.0,0.0,0.0,0.0,0.0,0.0,0.0,0.0,0.0,0.0,0.0,0.0,0.0,0.0,0.0,0.0,0.0,2.4517,2.4667,0.0,0.0,0.0,0.0,0.0,0.0,0.0,0.0,0.0,0.0,0.0,0.0,0.0,2.8473,2.8603,2.9413,2.9821,2.9821,3.0703,3.1117,3.1117,3.1117,3.1147,3.1185,3.1242,0.0,2.8825,2.8045,0.0,0.0,0.0,0.0,0.0,0.0,0.0,0.0,0.0,0.0,0.0,0.0,0.0,0.0,0.0,0.0,0.0,0.0,0.0,0.0,0.0,0.0,3.5154,3.5738,3.6213,3.6472,3.6273,3.4149,3.2425,3.2944,3.3094,3.3136,0.0,0.0,0.0,0.0,0.0,0.0,3.7076,3.8419,3.9046,3.8558,3.9549,3.9765,3.8591,3.9108,3.9502,3.9502,3.9328,3.871,3.7551,3.7146,0.0,0.0,0.0,0.0,0.0,0.0,0.0,0.0,0.0,0.0,0.0,0.0,0.0,0.0,0.0,0.0,0.0,0.0,0.0,0.0,0.0,0.0,0.0,0.0,0.0,0.0,0.0,0.0,0.0,2.3689,2.5062,2.5707,2.6094,2.6113,0.0,0.0,0.0,0.0,0.0,0.0,0.0,0.0,0.0,2.9369,2.9728,3.0006,3.0217,3.0642,3.1001,3.1366,3.2148,3.2697,3.3042,3.3361,3.3527,3.3512,3.3346,3.2752,3.1838,3.0958,3.0424,3.0041,0.0,0.0,0.0,0.0,3.0121,3.068,3.1898,3.2319,3.2275,3.1951,0.0,0.0,0.0,0.0,0.0,0.0,0.0,3.2316,3.3502,3.4652,3.5768,3.6799,3.7328,3.767,3.8044,3.7247,3.6305,3.5806,3.5254,3.4859,3.4859,3.5331,0.0,0.0,0.0,3.795,3.8933,4.0155,4.0946,4.1022,4.1551,4.1673,4.107,4.1626,4.2035,4.2035,4.2035,4.1771,4.1176,3.9421,3.7606,0.0,0.0,0.0,0.0,0.0,0.0,0.0,0.0,0.0,0.0,0.0,0.0,0.0,0.0,0.0,0.0,0.0,0.0,0.0,0.0,0.0,0.0,0.0,0.0,0.0,0.0,0.0,0.0,2.483,2.603,2.6809,2.6965,2.6796,0.0,0.0,0.0,0.0,0.0,0.0,2.9168,2.9739,3.0303,3.0832,3.1263,3.1702,3.2186,3.2342,3.2653,3.3089,3.3859,3.445,3.4903,3.5358,3.5559,3.5546,3.5187,3.5012,3.4907,3.3293,3.2428,3.2103,3.1695,3.1629,3.1789,3.1916,3.2301,3.2836,3.3735,3.4043,3.4013,3.3847,3.3804,3.3713,3.3232,0.0,0.0,0.0,0.0,3.3819,3.4866,3.5769,3.6677,3.7777,3.8278,3.8654,3.9141,3.9361,3.9166,3.8218,3.7424,3.6867,3.6678,3.7368,0.0,3.7183,0.0,3.9972,4.0883,4.1884,4.2647,4.2963,4.3315,4.3375,4.3044,4.3614,4.3994,4.3994,4.3994,4.3937,4.3837,4.1533,3.9868,3.9071,0.0,0.0,0.0,0.0,0.0,0.0,0.0,0.0,0.0,0.0,0.0,0.0,0.0,0.0,0.0,0.0,0.0,0.0,0.0,0.0,0.0,0.0,0.0,0.0,0.0,0.0,0.0,0.0,0.0,2.8524,2.8778,0.0,0.0,0.0,0.0,3.015,3.0235,3.0416,3.0778,3.1295,3.207,3.311,3.3103,3.3391,3.4052,3.4626,3.4926,3.4987,3.6154,3.6726,3.677,3.6805,3.6805,3.684,3.7323,3.7528,3.7282,3.4219,3.3112,3.3258,3.2666,3.2765,3.3349,3.3867,3.4322,3.4816,3.5937,3.6337,3.623,3.5584,3.4668,3.391,3.4513,3.3872,0.0,0.0,3.5617,3.6127,3.8212,3.8776,3.8935,3.9393,3.9704,3.9904,3.9936,3.947,3.9122,3.9437,3.9439,3.9217,3.8583,0.0,3.9348,3.9996,4.0552,4.1368,4.2688,4.3472,4.3683,4.3058,4.414,4.4384,4.312,4.3614,4.3994,4.3994,4.3994,4.3791,4.3351,4.3176,4.1694,3.869,3.8487,0.0,0.0,0.0,0.0,0.0,0.0,0.0,0.0,0.0,0.0,0.0,0.0,0.0,0.0,0.0,0.0,0.0,0.0,0.0,0.0,0.0,0.0,0.0,0.0,0.0,0.0,0.0,0.0,2.9247,2.9844,0.0,2.9612,3.0073,3.0341,3.0226,3.15,3.2318,3.2435,3.3362,3.4232,3.5003,3.5021,3.5291,3.594,3.657,3.7113,3.7553,3.8811,3.9619,4.0006,4.0383,4.0317,3.9909,3.9625,3.9251,3.8747,3.7179,3.6608,3.6659,3.645,3.6495,3.6722,3.6886,3.7047,3.7237,3.7659,3.78,3.7754,3.7507,3.7166,3.6869,3.7098,3.6879,3.6675,3.734,3.7688,3.8054,3.8791,3.9187,3.9535,4.0119,4.0483,4.0829,4.1261,4.1338,4.1365,4.1498,4.0669,3.9986,4.0178,4.1113,4.1715,4.1325,4.2479,4.3547,4.4028,4.4566,4.4804,4.458,4.4957,4.5056,4.4594,4.4763,4.4903,4.4903,4.4903,4.4835,4.4669,4.4071,4.3225,4.2111,4.1556,3.9678,0.0,0.0,0.0,0.0,0.0,0.0,0.0,0.0,0.0,0.0,0.0,0.0,0.0,0.0,0.0,0.0,0.0,0.0,0.0,0.0,0.0,0.0,0.0,0.0,0.0,2.8803,2.981,2.986,3.0957,3.1433,3.0746,3.1856,3.2408,3.1852,3.3501,3.4535,3.4579,3.5676,3.6721,3.758,3.7606,3.7894,3.8511,3.896,3.9407,3.9869,4.0903,4.1614,4.2021,4.242,4.2371,4.1909,4.1414,4.0968,4.0507,4.0061,3.9876,3.9784,3.8845,3.8491,3.8491,3.8491,3.8491,3.8491,3.8491,3.8491,3.8491,3.8491,3.8491,3.8491,3.8491,3.8573,3.8718,3.8981,3.9289,3.9611,3.9959,4.0246,4.0578,4.1151,4.1437,4.1739,4.2173,4.2429,4.2602,4.2602,4.1841,4.1323,4.1762,4.2933,4.3456,4.2551,4.4089,4.5234,4.4964,4.5667,4.6186,4.6186,4.6186,4.6186,4.6186,4.569,4.5621,4.6138,4.569,4.5568,4.5918,4.446,4.3588,4.3431,4.2897,4.1565,3.9369,0.0,0.0,0.0,0.0,0.0,0.0,0.0,0.0,0.0,0.0,0.0,0.0,0.0,0.0,0.0,0.0,0.0,0.0,0.0,0.0,0.0,0.0,0.0,2.9772,3.046,3.0896,3.0603,3.2246,3.3273,3.2959,3.4822,3.5845,3.5308,3.6365,3.7084,3.7218,3.8222,3.9438,4.0822,4.0761,4.1044,4.1712,4.1761,4.1776,4.1776,4.2359,4.2645,4.2645,4.2645,4.2663,4.2633,4.2633,4.2633,4.2602,4.2602,4.2602,4.234,3.9677,3.8631,3.86,3.86,3.8568,3.8553,3.8553,3.8553,3.8553,3.8569,3.8586,3.8586,3.8586,3.8815,3.923,3.9949,4.0398,4.0864,4.1853,4.2109,4.2206,4.2524,4.2602,4.2602,4.2602,4.2634,4.2666,4.2666,4.3084,4.3402,4.3339,4.4119,4.4504,4.381,4.5384,0.0,4.5569,4.6789,4.7686,4.7669,4.7634,4.7634,4.7669,4.6259,4.6052,4.76,4.6293,4.5945,4.6973,4.4505,4.2924,4.2451,4.2387,4.2966,4.4219,0.0,0.0,0.0,0.0,0.0,0.0,0.0,0.0,0.0,0.0,0.0,0.0,0.0,0.0,0.0,0.0,0.0,0.0,0.0,0.0,0.0,3.1853,3.3365,3.2545,3.2932,3.3572,3.4307,3.5288,3.5876,3.5776,3.6743,3.7323,3.7174,3.8757,3.9742,3.9777,4.0494,4.1261,4.2077,4.1659,4.1713,4.2349,4.2827,4.3075,4.3091,4.3746,4.4052,4.4052,4.4052,4.379,4.3328,4.3328,4.3051,4.2602,4.2602,4.2602,4.2507,4.1771,4.1186,4.0755,4.0755,4.0399,3.9953,3.9953,3.9953,3.9987,4.0291,4.0392,4.0442,4.0676,4.0807,4.0936,4.1125,4.1418,4.1757,4.2029,4.227,4.2492,4.2587,4.2602,4.2602,4.2602,4.3321,4.3976,4.3976,4.5058,4.5601,4.438,4.4936,4.5674,4.6028,4.6837,4.7324,4.71,4.7445,4.7496,4.6962,4.6376,4.6272,4.6841,4.5979,4.6052,4.76,4.7307,4.72,4.7502,4.6473,4.5831,4.5701,4.4383,4.4018,0.0,0.0,0.0,0.0,0.0,0.0,0.0,0.0,0.0,0.0,0.0,0.0,0.0,0.0,0.0,0.0,0.0,0.0,0.0,0.0,0.0,0.0,3.4061,3.5531,3.596,3.5613,3.568,3.6638,3.7533,3.8091,3.8141,3.9194,3.9673,3.9151,4.0628,4.1565,4.1583,4.2166,4.2777,4.3417,4.3101,4.3086,4.3433,4.3821,4.4006,4.4006,4.4406,4.4591,4.4591,4.4591,4.4391,4.4006,4.4006,4.3805,4.3433,4.3433,4.3433,4.3371,0.0,0.0,0.0,0.0,4.1955,4.1616,4.179,4.1672,4.1457,4.1695,4.1574,4.1356,4.1539,4.1703,4.1802,4.1802,4.2045,4.2302,4.2302,4.2444,4.273,4.3257,4.3401,4.3528,4.404,4.4729,4.5241,4.5241,4.6193,0.0,4.6118,4.6368,4.6688,4.6808,4.7584,4.8048,4.7738,4.8255,4.8496,4.8065,4.76,4.7514,4.7979,4.6996,0.0,0.0,0.0,4.7479,4.7013,4.6833,0.0,0.0,0.0,4.5811,4.7193,4.6059,0.0,0.0,4.4039,4.3423,0.0,0.0,0.0,0.0,0.0,0.0,0.0,0.0,0.0,0.0,0.0,0.0,0.0,0.0,0.0,0.0,3.6163,3.7169,3.931,3.842,3.7741,3.8261,3.9331,4.0067,4.0189,4.1732,4.2257,4.1196,4.217,4.2858,4.2898,4.3417,0.0,0.0,0.0,4.4591,4.4591,4.4591,4.4591,4.4591,4.4591,4.4591,4.4591,4.4591,4.461,4.4667,4.461,4.4644,4.4667,4.4625,4.4629,4.4543,4.322,4.2728,4.2803,4.302,4.3131,4.322,4.357,0.0,0.0,4.2859,4.2432,4.1908,4.1941,4.2171,4.2398,4.2398,4.2607,4.2861,4.2908,4.2923,4.3227,4.4409,4.4696,4.5,4.6076,4.6413,4.6493,4.6493,4.695,4.7544,4.8192,4.8035,4.7634,4.7065,4.81,4.8703,4.8048,4.9151,4.9976,4.9858,4.9804,0.0,4.9858,4.8531,4.8372,4.995,4.8788,4.7575,4.654,4.6746,4.6787,4.6548,4.6773,4.8079,5.0457,5.0457,5.0578,5.0657,4.5432,4.4269,0.0,0.0,0.0,0.0,0.0,0.0,0.0,0.0,0.0,0.0,0.0,0.0,0.0,0.0,0.0,3.5695,3.7986,3.9776,4.0242,4.0994,4.1344,4.0916,4.1571,4.2049,4.2096,4.2876,4.3316,4.3077,4.3786,4.4211,4.422,4.4334,4.4468,4.4591,4.4591,4.4591,4.4591,4.4591,4.4591,4.4591,4.4591,0.0,4.4591,4.4591,4.478,4.5061,4.4742,4.478,4.5061,4.4723,4.478,4.4965,4.3843,4.3592,4.3821,4.3314,4.3308,4.3605,4.3674,4.363,4.3555,4.3877,4.3883,4.3837,4.4104,4.4219,0.0,4.4285,4.4317,4.4464,4.4848,4.4942,4.5101,4.5792,4.5948,4.6012,4.6237,4.7055,4.7747,4.7747,4.866,4.9467,4.9604,4.9042,4.8772,4.9269,4.9597,4.972,4.9565,4.9821,4.9755,4.91,4.8496,4.8393,4.8979,4.822,4.8453,5.0198,5.0258,5.0013,4.9569,4.9811,4.9917,4.988,4.9917,5.0198,5.0725,5.0725,5.0753,5.0772,4.9631,4.9389,0.0,0.0,0.0,0.0,0.0,0.0,0.0,0.0,0.0,0.0,0.0,3.223,0.0,0.0,3.6019,3.7887,3.9665,4.1155,4.2211,4.2955,4.3193,4.2653,4.2912,4.3217,4.3575,4.3898,4.4098,4.4098,4.4406,4.4685,4.4893,4.4893,4.4986,4.5191,4.5005,4.4893,4.4893,4.4893,4.4893,4.4893,4.5098,4.521,4.521,4.521,4.5321,4.5486,4.5284,4.5321,4.5486,4.5284,4.5321,4.5455,4.4909,4.4823,4.4991,4.4774,4.4827,4.5035,4.5227,4.5054,4.4784,4.4987,4.4829,4.4589,4.4754,4.4804,4.4853,4.5081,4.5146,4.5275,4.5763,4.5902,4.6109,4.6995,4.72,4.7378,4.8008,4.8636,4.9054,4.9054,4.9573,5.0011,5.0011,4.9669,4.9531,4.9942,5.0011,5.0011,5.0011,5.0011,4.9855,4.9444,4.9065,4.8996,4.9375,4.919,4.95,5.0522,5.0725,5.0739,5.062,5.0892,5.0968,5.0803,5.0955,5.1052,5.1052,5.1052,5.1132,5.1245,5.1245,5.1088,0.0,0.0,0.0,0.0,0.0,0.0,0.0,0.0,2.9644,3.1237,3.2515,3.4012,3.6231,3.6781,3.7802,4.0558,4.145,4.2379,4.4055,4.4416,4.4382,4.4071,4.3976,4.414,4.4771,4.4761,4.4742,4.4818,4.4761,4.4893,4.5302,4.5321,4.5468,4.5796,4.5486,4.5321,4.5321,4.5321,4.5321,4.5321,4.5651,4.5796,4.5796,4.5796,4.5832,4.5905,4.5905,4.5868,4.5796,4.5868,4.5905,4.5889,4.5977,4.6012,4.6048,4.623,4.6338,4.646,4.679,4.6521,4.6018,4.6018,4.5729,4.5358,4.5358,4.544,4.5571,4.5956,4.605,4.6193,4.672,4.6873,4.7128,4.8201,4.8472,4.8763,4.9783,5.0011,5.0011,5.0011,5.0011,5.0011,5.0011,5.0011,5.0011,5.0011,5.0011,5.0011,5.0011,5.0011,5.0011,5.0011,5.0011,5.0008,5.0066,5.0316,5.0578,5.0793,5.0915,5.0955,5.0901,5.1215,5.1237,5.0982,5.1237,5.1389,5.1389,5.1389,5.1487,5.1703,5.1703,5.1444,2.4908,2.5078,2.6483,2.8016,2.9195,3.0554,0.0,0.0,3.4422,3.5214,3.6259,3.7481,3.8978,3.9961,4.1017,4.256,4.3663,4.4383,4.4603,4.5221,4.5613,4.5559,4.5248,4.5206,4.5617,4.5339,4.5284,4.5633,4.5339,4.5302,4.5705,4.5724,4.5742,4.5796,4.576,4.5724,4.5724,4.5724,4.5724,4.5724,4.5778,4.5796,4.5796,4.5796,4.5961,4.6232,4.6232,4.6086,4.5814,4.6106,4.6232,4.6283,4.6633,4.6789,4.6738,4.6425,4.653,4.6842,4.6876,4.6845,4.678,4.678,4.7055,4.7391,4.7391,4.767,4.8007,4.8054,4.8086,4.8197,4.8741,4.888,4.9035,4.9632,4.98,4.9832,4.9979,5.0011,5.0011,5.0011,5.0011,5.0011,5.0011,5.0011,5.0011,5.0011,5.0011,5.0011,5.0011,5.0011,5.0011,5.0011,5.0011,5.0094,5.0331,5.0588,5.078,5.0789,5.1297,5.15,5.1255,5.1513,5.164,5.1602,5.164,5.1652,5.1652,5.1652,5.1665,5.1703,5.1703,5.1665,2.9504,2.9307,2.9534,0.0,3.1763,3.2392,3.3431,3.412,3.512,3.7247,3.8476,3.9688,4.1381,4.2188,4.2915,0.0,4.46,4.5196,4.5578,4.5897,4.6175,4.6405,4.6104,4.5819,4.5796,4.5651,4.5614,4.5778,4.5633,4.5724,4.607,4.6088,4.6211,4.6423,4.6211,4.6088,4.6088,4.6088,4.6088,4.6088,4.6335,4.6441,4.6441,4.6441,4.6511,4.6652,4.6652,4.6581,4.6441,4.6598,4.6652,4.6668,4.6824,4.6893,4.6876,4.672,4.6755,4.6893,4.6893,4.7099,4.737,4.737,4.7704,4.8113,4.8113,4.8241,4.848,4.8778,4.8855,4.8995,4.953,4.9666,4.971,4.995,5.0011,5.0011,5.0011,5.0011,5.0011,5.0011,5.0011,5.0011,5.0011,5.0011,5.0011,5.0011,5.0011,5.0011,5.0011,5.0011,5.0051,5.022,5.0235,5.0415,5.0878,5.1026,5.1158,5.131,5.1546,5.1652,5.1526,5.164,5.1703,5.1703,5.1703,5.1703,5.1703,5.1703,5.1703,5.1703,5.1703,5.1703,3.1903,3.1976,0.0,3.3141,3.408,3.4647,3.4521,3.5193,3.6586,3.9117,4.02,4.1247,4.3178,4.3871,4.437,4.5035,4.5478,4.5915,4.6413,4.6477,4.6565,4.6875,4.6635,4.6372,4.6138,4.5997,4.5979,4.6102,4.6012,4.6086,4.6442,4.6477,4.66,4.6876,4.6633,4.6477,4.6477,4.6477,4.6477,4.6477,4.6755,4.6893,4.6893,4.6893,4.6893,4.6893,4.6893,4.6893,4.6893,4.6893,4.6893,4.6893,4.6893,4.6893,4.6911,4.7081,4.703,4.6911,4.7081,4.737,4.7721,4.7853,4.8226,4.8621,4.8621,4.8715,4.8918,4.9301,4.9424,4.9498,4.9906,5.0011,5.0011,5.0011,5.0011,5.0011,5.0011,5.0011,5.0011,5.0011,5.0011,5.0011,5.0011,5.0011,5.0011,5.0011,5.0011,5.0011,5.0011,5.0066,5.0178,5.0387,5.0467,5.0716,5.1241,5.1311,5.141,5.1678,5.1703,5.1703,5.1703,5.1703,5.1703,5.1703,5.1703,5.1703,5.1703,5.1703,5.1703,5.1703,5.1703,5.1703,2.9655,3.0876,3.2134,3.3525,3.6025,3.803,3.7567,3.8799,4.03,4.1321,4.1527,4.2199,4.4279,4.4985,4.5469,4.614,4.6585,4.686,4.6876,4.6876,4.6892,4.6893,4.6876,4.6876,0.0,4.6512,4.6442,4.6841,4.6512,4.646,4.6859,4.6876,4.6892,4.6893,4.6892,4.6876,4.6876,4.6876,4.6876,4.6876,4.6876,4.6893,4.6893,4.6893,4.6893,4.6893,4.6893,4.6893,4.6893,4.6893,4.6893,4.6893,4.6893,4.6893,4.6945,4.7471,4.7353,4.6962,4.7504,4.7688,4.7787,4.8225,4.8731,4.9178,4.9178,4.9545,4.995,4.9964,4.9982,4.9982,4.9996,5.0011,5.0011,5.0011,5.0011,5.0011,5.0011,5.0011,5.0011,5.0011,5.0011,5.0011,5.0011,5.0011,5.0011,5.0011,5.0011,5.0011,5.0011,5.0235,5.0401,5.0401,5.063,5.0928,5.1268,5.1311,5.141,5.1678,5.1703,5.1703,5.1703,5.1703,5.1703,5.1703,5.1703,5.1703,5.1703,5.1703,5.1703,5.1703,5.1703,5.1703,3.2818,3.3791,3.4864,3.659,3.7749,3.8712,3.9483,4.0425,4.1513,4.2846,4.3272,4.3743,4.4889,4.5398,4.5702,4.5928,4.65,4.6893,4.6893,4.6893,4.6893,4.6893,4.6893,0.0,0.0,0.0,4.6755,4.6876,4.6772,4.6755,4.6876,4.6893,4.6893,4.6893,4.6893,4.6893,4.6893,4.6893,4.6893,4.6893,4.6893,4.6893,4.6893,4.6893,4.6893,4.6893,4.6893,4.6893,4.6893,4.6893,4.6893,4.6944,4.7286,4.7437,4.7488,4.7983,4.8048,4.7918,4.8096,4.8401,4.8717,4.8887,4.9286,4.9725,4.9725,4.9845,5.0011,5.0011,5.0011,5.0011,5.0011,5.0011,5.0011,5.0011,5.0011,5.0011,5.0011,5.0011,5.0011,5.0011,5.0011,5.0011,5.0011,5.0011,5.0011,5.0011,5.0011,5.0011,5.0011,5.0235,5.0467,5.0643,5.0946,5.1255,5.1538,5.1564,5.1602,5.169,5.1703,5.1703,5.1703,5.1703,5.1703,5.1703,5.1703,5.1703,5.1703,5.1703,5.1703,5.1703,5.1703,5.1703,3.5124,3.5899,3.6691,3.8663,3.9414,3.991,4.0666,4.1259,4.2029,4.3424,4.3693,4.4036,4.5236,4.5655,4.5888,4.6147,4.6602,4.6893,4.6893,4.6893,4.6893,4.6893,4.6893,4.6893,0.0,0.0,0.0,4.6893,4.6893,4.6893,4.6893,4.6893,4.6893,4.6893,4.6893,4.6893,4.6893,4.6893,4.6893,4.6893,4.6893,4.6893,4.6893,4.6893,4.6893,4.6893,4.6893,4.6893,4.6893,4.6893,4.6997,4.7218,4.7571,4.7803,4.8016,4.8496,4.8684,4.8684,4.8684,4.8901,4.9224,4.9424,4.971,5.0011,5.0011,5.0011,5.0011,5.0011,5.0011,5.0011,5.0011,5.0011,5.0011,5.0011,5.0011,5.0011,5.0011,5.0011,5.0011,5.0011,5.0011,5.0011,5.0011,5.0011,5.0022,5.0138,5.0135,5.0135,5.0135,5.0485,5.0784,5.0955,5.1268,5.1513,5.169,5.1703,5.1703,5.1703,5.1703,5.1703,5.1703,5.1703,5.1703,5.1703,5.1703,5.1703,5.1703,5.1703,5.1703,5.1703,5.1703,5.1845,3.64,3.7111,3.7653,3.9644,4.0954,4.1646,4.1297,4.1527,4.217,4.3254,4.3034,4.3254,0.0,0.0,4.6034,4.6731,4.6877,4.6893,4.6893,4.6893,4.6893,0.0,0.0,0.0,0.0,0.0,0.0,4.6893,4.6893,4.6893,4.6893,4.6893,4.6893,4.6893,4.6893,4.6893,4.6893,4.6893,4.6893,4.6893,4.6893,4.6893,4.6893,4.6893,4.6893,4.6893,4.6893,4.6927,4.6928,4.6928,4.7252,4.7737,4.777,4.8048,4.8511,4.9041,4.9241,4.9241,4.9241,4.9241,4.9316,4.983,5.0011,5.0011,5.0011,5.0011,5.0011,5.0011,5.0011,5.0011,5.0011,5.0011,5.0011,5.0011,5.0011,5.0011,5.0011,5.0011,5.0011,5.0011,5.0011,5.0011,5.0011,5.0008,5.0106,5.0383,5.0443,5.0443,5.0411,5.0936,5.1311,5.1311,5.1538,5.1703,5.1703,5.1703,5.1703,5.1703,5.1703,5.1703,5.1703,5.1703,5.1703,5.1703,5.1703,5.1721,5.1762,5.1762,5.1779,5.1815,5.1815,5.2238,3.7726,3.8595,3.9552,4.0597,4.1494,4.2267,4.2712,4.3371,4.3963,4.4352,4.4316,4.4387,0.0,0.0,0.0,4.605,4.6553,0.0,4.6893,4.6893,0.0,4.6893,0.0,4.6893,4.6893,4.6893,0.0,4.6893,4.6893,4.6893,4.6893,4.6893,4.6893,4.6893,4.6893,4.6893,4.6893,4.6893,4.6893,4.6893,4.6893,4.6893,4.6893,4.6893,4.6893,4.6893,4.6893,4.7132,4.7504,4.7504,4.7787,4.8274,4.8654,4.8887,4.9057,4.9607,4.9801,4.9801,4.9801,4.9801,4.9816,4.9967,5.0011,5.0011,5.0011,5.0011,5.0011,5.0011,5.0011,5.0011,5.0011,5.0011,5.0011,5.0011,5.0011,5.0011,5.0011,5.0011,5.0011,5.0011,5.0011,5.0011,5.0011,5.0181,5.0411,5.0706,5.0937,5.0972,5.0725,5.1039,5.1311,5.1311,5.1538,5.1703,5.1703,5.1703,5.1703,5.1703,5.1703,5.1703,5.1703,5.1703,5.1703,5.1703,5.1703,5.2006,5.2577,5.2577,5.2868,5.3408,5.3408,5.3515,3.9233,3.9987,4.0699,4.1366,4.1662,4.1971,4.2709,4.2781,4.2909,4.3637,4.3808,4.4037,4.4673,4.5338,4.5905,0.0,0.0,0.0,4.6893,4.6893,4.6893,0.0,4.6893,0.0,4.6893,4.6893,4.6893,4.6893,4.6893,4.6893,4.6893,4.6893,4.6893,4.6893,4.6893,4.6893,4.6893,4.6893,4.6893,4.6893,4.6893,4.6893,4.6893,4.6893,4.703,4.7252,4.7252,4.7538,4.8016,4.8016,4.8306,4.8778,4.9087,4.9331,4.959,4.9891,5.0011,5.0011,5.0011,5.0011,5.0011,5.0011,5.0011,5.0011,5.0011,5.0011,5.0011,5.0011,5.0011,5.0011,5.0011,5.0011,5.0011,5.0011,5.0011,5.0011,5.0011,5.0011,5.0011,5.0011,5.0011,5.0011,5.0011,5.0338,5.0741,5.1078,5.1482,5.1713,5.1676,5.1554,5.1538,5.168,5.1829,5.1927,5.1927,5.1927,5.1871,5.1715,5.1703,5.1703,5.1703,5.2042,5.2238,5.2238,5.2547,5.2939,5.3385,5.3385,5.3599,5.3997,5.4179,5.4448,4.0612,4.1229,4.1534,4.2117,4.1973,4.1834,4.2269,4.1603,4.1201,4.2289,4.2718,4.327,4.4559,4.5419,4.6164,4.6796,0.0,4.6893,4.6893,4.6893,4.6893,4.6893,4.6893,4.6893,4.6893,4.6991,4.7007,4.691,4.6991,4.7007,4.691,4.6893,4.6893,4.6893,4.6893,4.6893,4.6893,4.6893,4.6893,4.6893,4.6893,4.6893,4.6893,4.6962,4.7268,4.7704,4.777,4.8048,4.8511,4.8511,4.8809,4.9301,4.9301,4.959,5.0011,5.0011,5.0011,5.0011,5.0011,5.0011,5.0011,5.0011,5.0011,5.0011,5.0011,5.0011,5.0011,5.0011,5.0011,5.0011,5.0011,5.0011,5.0011,5.0011,5.0011,5.0011,5.0011,5.0011,5.0011,5.0011,5.0011,5.004,5.0106,5.0591,5.1113,5.1545,5.2036,5.2484,5.282,5.228,5.1969,5.225,5.2285,5.2285,5.2285,5.222,5.215,5.2002,5.1958,5.2012,5.2151,5.2781,5.3131,5.3131,5.3697,5.4037,5.4162,5.421,5.4289,5.441,5.481,5.5375,4.0858,4.1999,4.2952,4.3071,4.4002,4.4645,4.3593,4.3712,0.0,0.0,4.3557,4.4494,4.4755,4.5857,4.6764,4.6877,4.6893,4.6893,4.6893,4.6893,4.6893,0.0,4.6893,4.6893,4.6893,4.7443,0.0,4.6942,4.7459,4.754,4.6926,4.6893,4.6893,4.6893,4.6893,4.6893,4.6893,4.6893,4.6893,4.6893,4.6893,4.6893,4.6927,4.737,4.7621,4.7721,4.8113,4.8574,4.9057,4.9057,4.9379,4.9845,4.9845,4.9921,5.0011,5.0011,5.0011,5.0011,5.0011,5.0011,5.0011,5.0011,5.0011,5.0011,5.0011,5.0011,5.0011,5.0011,5.0011,5.0011,5.0011,5.0011,5.0011,5.0011,5.0011,5.0011,5.0011,5.0011,5.0011,5.0011,5.0011,5.0146,5.0669,5.1065,5.1615,5.2513,5.2684,5.2824,5.3164,5.2853,5.2638,5.2676,5.2705,5.2705,5.2705,5.2378,5.2603,5.3529,5.3333,5.3598,5.4552,5.4412,5.4305,5.4305,5.4107,5.4335,5.4978,5.5328,5.5836,5.6498,5.6884,5.714,4.1857,4.2472,4.2875,4.3717,4.393,4.388,4.3652,0.0,0.0,0.0,4.346,4.4334,4.4739,4.5629,4.6439,4.6845,4.6893,4.6893,4.6893,4.6893,4.6893,4.6893,4.6893,4.6893,4.6893,4.7234,4.7281,4.6926,4.7216,4.7265,4.6926,4.6893,4.6893,4.6893,4.6893,4.6893,4.6893,4.6893,4.6893,4.6893,4.7167,4.7319,4.732,4.7836,4.8226,4.8481,4.8732,4.9135,4.9622,4.9622,4.9772,5.0011,5.0011,5.0011,5.0011,5.0011,5.0011,5.0011,5.0011,5.0011,5.0011,5.0011,5.0011,5.0011,5.0011,5.0011,5.0011,5.0011,5.0011,5.0011,5.0011,5.0011,5.0011,5.0011,5.0011,5.0011,5.0011,5.0011,5.0011,5.0011,5.0011,5.0189,5.0796,5.1327,5.1934,5.2769,5.3146,5.339,5.3541,5.3412,5.3248,5.3088,5.3433,5.3682,5.3682,5.3888,5.42,5.4613,5.4471,5.4629,5.5179,5.5418,5.5535,5.5535,5.5555,5.5751,5.6145,5.6335,5.6624,5.6997,5.7589,5.7861,4.2277,4.2505,4.2565,4.4132,4.3789,4.319,4.3731,4.3437,0.0,4.2686,4.3185,4.3929,4.4658,4.5338,4.6034,0.0,4.6893,4.6893,4.6893,4.6893,4.6893,0.0,4.6893,0.0,4.6893,4.7039,0.0,4.691,4.6893,4.6893,4.6893,4.6893,4.6893,4.6893,4.6893,4.6893,4.6893,4.6997,4.7065,4.7065,4.7605,4.7853,4.7869,4.8337,4.8793,4.9211,4.9316,4.9605,5.0011,5.0011,5.0011,5.0011,5.0011,5.0011,5.0011,5.0011,5.004,5.008,5.008,5.0106,5.0163,5.0163,5.0094,5.0011,5.0066,5.008,5.0094,5.0166,5.0163,5.0149,5.0109,5.008,5.0066,5.0008,5.0011,5.0011,5.0011,5.0011,5.0011,5.0011,5.0094,5.0366,5.1004,5.1643,5.2292,5.2993,5.3502,5.3859,5.4026,5.4063,5.4032,5.3949,5.4343,5.4675,5.4859,5.5396,5.5702,5.5691,5.563,5.5692,5.5936,5.6475,5.6764,5.6764,5.6999,5.7143,5.7143,5.7201,5.7251,5.7245,5.793,5.8235,4.0835,4.1926,4.2814,4.4219,4.5035,4.5344,4.4817,0.0,4.422,4.2877,4.3185,4.3929,4.4658,4.5338,4.6034,4.678,4.6893,4.6893,4.6893,4.6893,4.6893,4.6893,0.0,0.0,4.6893,4.7508,4.7621,4.6958,4.6893,4.6893,4.6893,4.6893,4.6893,4.6893,4.6893,4.6893,4.6893,4.7387,4.7621,4.7638,4.8113,4.8337,4.8353,4.8871,4.9148,4.9241,4.971,4.995,5.0011,5.0011,5.0011,5.0011,5.0011,5.0011,5.0011,5.0011,5.0149,5.0373,5.0373,5.0523,5.0725,5.0725,5.0401,5.0054,5.0288,5.0373,5.0397,5.0657,5.0725,5.0671,5.0443,5.0373,5.0302,5.0051,5.0011,5.0011,5.0011,5.0011,5.0011,5.0011,5.0401,5.0955,5.1685,5.2258,5.2871,5.3611,5.3756,5.4063,5.4806,5.488,5.5186,5.5946,5.5379,5.5268,5.6076,5.5874,5.6153,5.7221,5.7005,5.7305,5.8333,5.8098,5.7938,5.7938,5.7671,5.7534,5.7553,5.7861,5.7992,5.8003,5.8428,5.8646,4.1513,4.2206,4.2901,4.483,4.4908,4.4524,4.4753,0.0,4.3848,4.2813,4.3185,4.3929,4.4658,4.5338,4.6034,4.678,4.6537,4.6228,4.6228,4.6228,4.6228,4.6228,4.6634,0.0,0.0,0.0,4.7234,4.6926,4.6893,4.7031,4.7354,4.7387,4.7218,4.6911,4.7201,4.7387,4.7387,4.7588,4.7836,4.8129,4.8637,4.8871,4.8886,4.9441,4.9681,4.9696,4.9906,5.0011,5.0011,5.0011,5.0011,5.0025,5.0178,5.0249,5.0246,5.0411,5.0551,5.0643,5.0643,5.0712,5.0789,5.0789,5.0657,5.0509,5.0602,5.0643,5.0657,5.078,5.0789,5.078,5.0671,5.0523,5.0331,5.0051,5.0011,5.0011,5.0011,5.0011,5.0106,5.0471,5.071,5.1217,5.2299,5.2674,5.3046,5.3708,5.4212,5.4639,5.4955,5.5456,5.6097,5.6933,5.67,5.6655,5.6989,5.7311,5.7709,5.8176,5.809,5.8228,5.8687,5.8543,5.8468,5.8468,5.809,5.7895,5.7895,5.8026,5.8094,5.8105,5.8511,5.8706,4.1755,4.2335,4.2946,4.5003,4.4709,4.4103,0.0,0.0,4.3557,4.3023,4.3346,4.3978,4.4917,4.5484,4.6034,4.678,4.6277,4.5807,4.5807,4.5807,4.5807,4.5807,0.0,4.6667,4.6877,4.6893,4.6978,4.7116,4.715,4.7354,4.7886,4.7918,4.7655,4.715,4.7504,4.7704,4.7704,4.8,4.8306,4.8637,4.918,4.9439,4.9439,4.983,5.0011,5.0011,5.0011,5.0054,5.0123,5.0123,5.0181,5.0263,5.0439,5.0523,5.0551,5.0739,5.0861,5.0941,5.0941,5.0995,5.1074,5.1074,5.1074,5.1074,5.1074,5.1008,5.0955,5.1048,5.1008,5.0941,5.0941,5.0688,5.0359,5.0163,5.0123,5.0094,5.0025,5.0178,5.0464,5.0836,5.1155,5.1698,5.2725,5.3033,5.3373,5.4042,5.4639,5.5177,5.5679,5.6283,5.697,5.7759,5.7852,5.7852,5.7852,5.8372,5.8706,5.8706,5.8706,5.8706,5.8706,5.8706,5.8706,5.8706,5.8417,5.8268,5.8268,5.8268,5.8268,5.8279,5.8564,5.8706,4.0949,4.203,4.2943,4.4444,4.4804,4.4787,0.0,4.4237,4.3703,4.3686,4.3686,4.4123,4.5532,4.5807,4.6034,4.678,4.6277,4.5807,4.5807,4.5807,4.5807,0.0,4.5807,4.6099,4.6829,4.6893,4.7116,4.7654,4.7688,4.7902,4.8369,4.8384,4.8177,4.7704,4.7704,4.7704,4.7704,4.8702,4.9178,4.9194,4.9742,4.9996,4.9996,5.0011,5.0011,5.0011,5.0011,5.0149,5.0401,5.0401,5.0551,5.0789,5.0789,5.0807,5.0807,5.0789,5.1012,5.1281,5.1281,5.1462,5.169,5.169,5.169,5.169,5.169,5.1518,5.1346,5.1615,5.15,5.1281,5.1281,5.0855,5.0401,5.0401,5.0401,5.0316,5.0051,5.063,5.1127,5.0942,5.1759,5.2574,5.2853,5.3339,5.3992,5.4861,5.4992,5.5605,5.7268,5.749,5.7796,5.8595,5.8687,5.8687,5.8687,5.8706,5.8706,5.8706,5.8706,5.8706,5.8706,5.8706,5.8706,5.8706,5.8706,5.8687,5.8687,5.8687,5.8687,5.8687,5.8706,5.8706,4.0641,4.1693,4.2719,4.3169,4.3298,4.3427,4.3929,4.312,4.2391,4.2861,4.3346,4.3978,4.4933,4.5888,4.6634,4.6861,4.5905,4.5111,4.5111,0.0,0.0,4.5111,4.5969,4.6787,4.7388,4.7132,4.7253,4.8113,4.7886,4.8048,4.8886,4.8606,4.8337,4.8177,4.8177,4.8354,4.8717,4.9041,4.9376,4.9757,4.9921,5.0011,5.0011,5.0192,5.026,5.0274,5.0467,5.0588,5.0671,5.0671,5.0725,5.0816,5.1052,5.1132,5.1158,5.1354,5.147,5.1577,5.1577,5.1627,5.1703,5.1703,5.1703,5.1703,5.1703,5.164,5.1589,5.1678,5.164,5.1526,5.1363,5.1149,5.0963,5.0725,5.0671,5.0643,5.0578,5.096,5.1444,5.1795,5.2345,5.2921,5.3434,5.4112,5.4674,5.4955,5.5976,5.6905,5.7425,5.7982,5.8409,5.8669,5.8706,5.8706,5.8706,5.8706,5.8706,5.8706,5.8706,5.8706,5.8706,5.8706,5.8706,5.8706,5.8706,5.8706,5.8706,5.8706,5.8706,5.8706,5.8706,5.8706,4.0702,4.1948,4.2958,4.2667,4.2797,0.0,0.0,4.2618,4.218,4.2877,4.3605,4.4415,4.5419,4.631,4.6893,4.6893,4.5938,4.5176,4.5176,0.0,0.0,4.5176,4.6382,4.7137,4.6994,4.7122,4.7538,4.8353,4.8129,4.8418,4.9456,4.8995,4.8793,4.8997,4.881,4.8855,4.9211,4.9409,4.9708,5.0149,5.0149,5.0206,5.0302,5.0467,5.0551,5.0564,5.0739,5.0874,0.0,5.0999,5.1048,5.1154,5.1372,5.1449,5.1462,5.164,5.1703,5.1703,5.1703,5.1703,5.1703,5.1703,5.1703,5.1703,5.1703,5.1703,5.1703,5.1703,5.1703,5.1652,5.1487,5.1389,5.1241,5.1039,5.0999,5.0995,5.1013,5.1462,5.1988,5.2431,5.2896,5.3423,5.4135,5.4676,5.5215,5.5846,5.683,5.761,5.7907,5.839,5.8706,5.8706,5.8706,5.8706,5.8706,5.8706,5.8706,5.8706,5.8706,5.8706,5.8706,5.8706,5.8706,5.8706,5.8706,5.8706,5.8706,5.8706,5.8706,5.8706,5.8706,5.8706,0.0,4.2504,4.3363,4.2586,4.2974,4.3363,4.2699,4.2522,0.0,4.346,4.4204,4.5095,4.6375,4.6683,4.6748,4.6748,4.6181,4.5743,4.5791,4.5807,0.0,0.0,4.6895,4.7192,4.604,4.7028,4.7967,4.8495,4.8526,4.898,5.0008,4.9587,4.9543,5.0037,4.9573,4.9299,4.9301,4.9799,5.0178,5.0443,5.0443,5.0564,5.0789,5.0816,5.0847,5.0847,5.0861,5.1035,5.1337,5.1337,5.1492,5.1703,5.1703,5.1703,5.1703,5.1703,5.1703,5.1703,5.1703,5.1703,5.1703,5.1703,5.1703,5.1703,5.1703,5.1703,5.1703,5.1703,5.1703,5.1703,5.1703,5.1531,5.1337,5.1337,5.1337,5.1341,5.1437,5.2066,5.268,5.2893,5.3396,5.4049,5.4861,5.5103,5.5716,5.7257,5.7555,5.7852,5.8595,5.8706,5.8706,5.8706,5.8706,5.8706,5.8706,5.8706,5.8706,5.8706,5.8706,5.8706,5.8706,5.8706,5.8706,5.8706,5.8706,5.8706,5.8706,5.8706,5.8706,5.8706,5.8706,5.8706,4.0479,0.0,4.1791,4.0544,4.1175,4.205,0.0,0.0,0.0,0.0,0.0,4.3897,4.3654,4.4528,4.5306,4.5306,4.5144,4.5208,4.5726,4.5807,0.0,4.5807,4.6693,4.7226,4.7052,4.776,4.8715,4.9849,4.9786,4.9974,5.0575,5.0488,5.0488,5.0602,5.0488,5.0335,5.0111,5.0436,5.0643,5.0712,5.0712,5.0739,5.0803,5.1066,5.1189,5.1202,5.1393,5.1521,5.1602,5.1602,5.164,5.1703,5.1703,5.1703,5.1703,5.1703,5.1703,5.1703,5.1703,5.1703,5.1703,5.1703,5.1703,5.1703,5.1703,5.1703,5.1703,5.1703,5.1703,5.1703,5.1703,5.1652,5.1602,5.1602,5.1602,5.1685,5.1964,5.2389,5.2831,5.3154,5.402,5.4758,5.4955,5.605,5.7045,5.7453,5.8019,5.8483,5.8669,5.8706,5.8706,5.8706,5.8706,5.8706,5.8706,5.8706,5.8706,5.8706,5.8706,5.8706,5.8706,5.8706,5.8706,5.8706,5.8706,5.8706,5.8706,5.8706,5.8706,5.8706,5.8706,5.8706,3.9766,4.056,4.0835,3.9766,4.0301,4.1094,4.1094,0.0,0.0,0.0,0.0,4.3071,4.2667,4.38,4.4804,4.4804,4.5338,4.5889,4.6245,4.6018,4.6056,4.6782,4.7225,4.7691,4.8215,4.8814,4.9474,5.0225,5.0162,5.0303,5.0762,5.0789,5.0789,5.0789,5.0941,5.0892,5.0592,5.0739,5.0888,5.1039,5.1039,5.1088,5.1219,5.141,5.1475,5.1487,5.164,5.1703,5.1703,5.1703,5.1703,5.1703,5.1703,5.1703,5.1703,5.1703,5.1703,5.1703,5.1703,5.1703,5.1703,5.1703,5.1703,5.1703,5.1703,5.1703,5.1703,5.1703,5.1703,5.1703,5.1703,5.1703,5.1703,5.1703,5.1703,5.1834,5.2361,5.2642,5.3058,5.3902,5.4577,5.5233,5.6013,5.6905,5.7639,5.8,5.8409,5.8706,5.8706,5.8706,5.8706,5.8706,5.8706,5.8706,5.8706,5.8706,5.8706,5.8706,5.8706,5.8706,5.8706,5.8706,5.8706,5.8706,5.8706,5.8706,5.8706,5.8706,5.8706,5.8706,5.8706,5.8706,3.8973,3.9912,4.0317,3.9523,3.9847,4.0349,4.0349,0.0,0.0,0.0,0.0,4.257,4.2472,4.3379,4.4302,4.4739,4.6054,4.7031,4.7083,4.6613,4.6733,4.7973,4.8086,4.8392,4.9181,4.9841,5.0233,5.0289,5.0314,5.0526,5.0928,5.0941,5.0941,5.0941,5.1211,5.1211,5.0941,5.0941,5.1074,5.1359,5.1359,5.1475,5.1703,5.1703,5.1703,5.1703,5.1703,5.1703,5.1703,5.1703,5.1703,5.1703,5.1703,5.1703,5.1703,5.1703,5.1703,5.1703,5.1703,5.1703,5.1703,5.1703,5.1703,5.1703,5.1703,5.1703,5.1703,5.1703,5.1703,5.1703,5.1703,5.1703,5.1703,5.1703,5.174,5.1969,5.2649,5.2948,5.3433,5.4754,5.5215,5.5827,5.7268,5.7602,5.7907,5.8595,5.8706,5.8706,5.8706,5.8706,5.8706,5.8706,5.8706,5.8706,5.8706,5.8706,5.8706,5.8706,5.8706,5.8706,5.8706,5.8706,5.8706,5.8706,5.8706,5.8706,5.8706,5.8706,5.8706,5.8706,5.8706,5.8706,3.8343,3.9509,4.0204,3.8877,3.9118,3.9653,3.9653,0.0,0.0,0.0,0.0,0.0,4.1856,4.1435,4.1969,4.4415,4.6355,4.7671,4.7885,4.8203,4.8371,4.8203,4.8851,4.9254,4.9062,5.0042,5.082,5.1092,5.1328,5.1482,5.1546,5.1546,5.1546,5.1546,5.1615,5.1615,5.1546,5.1546,5.1589,5.164,5.164,5.1652,5.1703,5.1703,5.1703,5.1703,5.1703,5.1703,5.1703,5.1703,5.1703,5.1703,5.1703,5.1703,5.1703,5.1703,5.1703,5.1703,5.1703,5.1703,5.1703,5.1703,5.1703,5.1703,5.1703,5.1703,5.1703,5.1703,5.1703,5.1703,5.1703,5.1703,5.1703,5.1703,5.1927,5.2256,5.2705,5.3565,5.438,5.4904,5.6143,5.7212,5.7462,5.8056,5.8557,5.8669,5.8706,5.8706,5.8706,5.8706,5.8706,5.8706,5.8706,5.8706,5.8706,5.8706,5.8706,5.8706,5.8706,5.8706,5.8706,5.8706,5.8706,5.8706,5.8706,5.8706,5.8706,5.8706,5.8706,5.8706,5.8706,5.8706,3.7177,3.8003,3.8812,3.8973,4.0123,4.1322,4.1678,0.0,0.0,0.0,0.0,0.0,0.0,4.1712,4.3314,4.6506,4.7406,4.7885,4.8462,4.8405,4.859,4.9351,4.9472,4.9739,5.04,5.095,5.1354,5.15,5.1627,5.1703,5.1703,5.1703,5.1703,5.1703,5.1703,5.1703,5.1703,5.1703,5.1703,5.1703,5.1703,5.1703,5.1703,5.1703,5.1703,5.1703,5.1703,5.1703,5.1703,5.1703,5.1703,5.1703,5.1703,5.1703,5.1703,5.1703,5.1703,5.1703,5.1703,5.1703,5.1703,5.1703,5.1703,5.1703,5.1703,5.1703,5.1703,5.1703,5.1703,5.1703,5.1703,5.1703,5.1753,5.1939,5.2084,5.2475,5.35,5.4122,5.4877,5.6102,5.696,5.7629,5.8075,5.8465,5.8706,5.8706,5.8706,5.8706,5.8706,5.8706,5.8706,5.8706,5.8706,5.8706,5.8706,5.8706,5.8706,5.8706,5.8706,5.8706,5.8706,5.8706,5.8706,5.8706,5.8706,5.8706,5.8706,5.8706,5.8706,5.8706,5.8706,5.8706,3.6044,3.6918,3.81,3.9215,0.0,0.0,0.0,0.0,0.0,0.0,0.0,0.0,0.0,4.281,4.507,4.7332,4.7948,4.8416,4.9171,4.8826,4.9065,5.0612,5.029,5.0408,5.1581,5.1703,5.1703,5.1703,5.1703,5.1703,5.1703,5.1703,5.1703,5.1703,5.1703,5.1703,5.1703,5.1703,5.1703,5.1703,5.1703,5.1703,5.1703,5.1703,5.1703,5.1703,5.1703,5.1703,5.1703,5.1703,5.1703,5.1703,5.1703,5.1703,5.1703,5.1703,5.1703,5.1703,5.1703,5.1703,5.1703,5.1703,5.1703,5.1703,5.1703,5.1703,5.1703,5.1703,5.1703,5.1703,5.1703,5.1703,5.1785,5.212,5.2273,5.2733,5.4185,5.4725,5.5432,5.7161,5.7647,5.7982,5.8595,5.8706,5.8706,5.8706,5.8706,5.8706,5.8706,5.8706,5.8706,5.8706,5.8706,5.8706,5.8706,5.8706,5.8706,5.8706,5.8706,5.8706,5.8706,5.8706,5.8706,5.8706,5.8706,5.8706,5.8706,5.8706,5.8706,5.8706,5.8706,5.8706,3.5279,3.7272,3.9361,3.9458,3.9102,0.0,4.2068,4.2197,0.0,4.2424,0.0,0.0,4.257,4.4312,4.5469,4.4344,4.7157,4.9676,5.029,5.0497,5.0827,5.1533,5.1574,5.1581,5.169,5.1703,5.1703,5.1703,5.1703,5.1703,5.1703,5.1703,5.1703,5.1703,5.1703,5.1703,5.1703,5.1703,5.1703,5.1703,5.1703,5.1703,5.1703,5.1703,5.1703,5.1703,5.1703,5.1703,5.1703,5.1703,5.1703,5.1703,5.1703,5.1703,5.1703,5.1703,5.1703,5.1703,5.1703,5.1703,5.1703,5.1703,5.1703,5.1703,5.1703,5.1703,5.1703,5.1703,5.1703,5.1703,5.1703,5.1703,5.1785,5.212,5.2488,5.3091,5.4257,5.5392,5.6439,5.7332,5.8093,5.8632,5.8687,5.8706,5.8706,5.8706,5.8706,5.8706,5.8706,5.8706,5.8706,5.8706,5.8706,5.8706,5.8706,5.8706,5.8706,5.8706,5.8706,5.8706,5.8706,5.8706,5.8706,5.8706,5.8706,5.8706,5.8706,5.8706,5.8706,5.8706,5.8706,5.8706,3.5082,3.6964,3.8924,3.9394,3.9604,0.0,0.0,4.3767,4.3395,4.2732,4.3557,4.4171,4.3472,4.5526,4.7088,4.6447,4.8343,5.0173,5.0897,5.1061,5.125,5.1652,5.1703,5.1703,5.1703,5.1703,5.1703,5.1703,5.1703,5.1703,5.1703,5.1703,5.1703,5.1703,5.1703,5.1703,5.1703,5.1703,5.1703,5.1703,5.1703,5.1703,5.1703,5.1703,5.1703,5.1703,5.1703,5.1703,5.1703,5.1703,5.1703,5.1703,5.1703,5.1703,5.1703,5.1703,5.1703,5.1703,5.1703,5.1703,5.1703,5.1703,5.1703,5.1703,5.1703,5.1703,5.1703,5.1703,5.1859,5.1957,5.1747,5.1841,5.2114,5.2477,5.3218,5.418,5.5363,5.636,5.7276,5.8093,5.8483,5.8706,5.8706,5.8706,5.8706,5.8706,5.8706,5.8706,5.8706,5.8706,5.8706,5.8706,5.8706,5.8706,5.8706,5.8706,5.8706,5.8706,5.8706,5.8706,5.8706,5.8706,5.8706,5.8706,5.8706,5.8706,5.8706,5.8706,5.8706,5.8706,5.8706,5.8706,3.572,3.7096,3.8683,3.9863,0.0,0.0,4.4091,4.4464,4.4091,4.3978,4.4415,4.474,4.4537,4.6321,4.7876,4.8032,4.9414,5.0694,5.1346,5.1346,5.1402,5.1665,5.1703,5.1703,5.1703,5.1703,5.1703,5.1703,5.1703,5.1703,5.1703,5.1703,5.1703,5.1703,5.1703,5.1703,5.1703,5.1703,5.1703,5.1703,5.1703,5.1703,5.1703,5.1703,5.1703,5.1703,5.1703,5.1703,5.1703,5.1703,5.1703,5.1703,5.1703,5.1703,5.1703,5.1703,5.1703,5.1703,5.1703,5.1703,5.1715,5.1822,5.1871,5.1883,5.2005,5.2042,5.2042,5.2042,5.2197,5.2338,5.2114,5.2227,5.2542,5.3193,5.3922,5.4904,5.6361,5.7119,5.774,5.8539,5.8706,5.8706,5.8706,5.8706,5.8706,5.8706,5.8706,5.8706,5.8706,5.8706,5.8706,5.8706,5.8706,5.8706,5.8706,5.8706,5.8706,5.8706,5.8706,5.8706,5.8706,5.8706,5.8706,5.8706,5.8706,5.8706,5.8706,5.8706,5.8706,5.8706,5.8706,5.8836,3.7277,3.7827,3.8926,4.1046,0.0,0.0,4.401,4.3719,4.3508,4.6326,4.5793,4.5065,4.5868,4.6677,4.7493,4.8277,5.0038,5.1402,5.1665,5.1462,5.1397,5.1665,5.1703,5.1703,5.1703,5.1703,5.1703,5.1703,5.1703,5.1703,5.1703,5.1703,5.1703,5.1703,5.1703,5.1703,5.1703,5.1703,5.1703,5.1703,5.1703,5.1703,5.1703,5.1703,5.1703,5.1703,5.1703,5.1703,5.1703,5.1703,5.1703,5.1703,5.1703,5.1703,5.1703,5.1703,5.1703,5.1703,5.1703,5.1703,5.1747,5.2084,5.2196,5.2285,5.2676,5.2794,5.2794,5.2794,5.2794,5.2794,5.2794,5.2806,5.3094,5.4228,5.4515,5.508,5.7066,5.7509,5.7751,5.8539,5.8706,5.8706,5.8706,5.8706,5.8706,5.8706,5.8706,5.8706,5.8706,5.8706,5.8706,5.8706,5.8706,5.8706,5.8706,5.8706,5.8706,5.8706,5.8706,5.8706,5.8706,5.8706,5.8706,5.8706,5.8706,5.8706,5.8706,5.8706,5.8706,5.8706,5.8706,5.9133,3.5671,3.7809,3.9928,4.0074,4.1694,0.0,0.0,4.4578,0.0,4.7259,4.6709,4.6004,4.6704,4.8308,4.9276,4.8518,5.0193,5.1602,5.169,5.1627,5.1602,5.169,5.1703,5.1703,5.1703,5.1703,5.1703,5.1703,5.1703,5.1703,5.1703,5.1703,5.1703,5.1703,5.1703,5.1703,5.1703,5.1703,5.1703,5.1703,5.1703,5.1703,5.1703,5.1703,5.1703,5.1703,5.1703,5.1703,5.1703,5.1703,5.1703,5.1703,5.1703,5.1703,5.1703,5.1703,5.1703,5.1703,5.1703,5.1841,5.2078,5.2179,5.2378,5.2642,5.2761,5.2794,5.2794,5.2794,5.298,5.3143,5.3143,5.3744,5.4367,5.4473,5.5153,5.607,5.7237,5.7945,5.8409,5.865,5.8706,5.8706,5.8706,5.8706,5.8706,5.8706,5.8706,5.8706,5.8706,5.8706,5.8706,5.8706,5.8706,5.8706,5.8706,5.8706,5.8706,5.8706,5.8706,5.8706,5.8706,5.8706,5.8706,5.8706,5.8706,5.8706,5.8706,5.8706,5.8706,5.8706,5.9282,5.9672,3.7677,3.9329,4.0819,4.2115,4.3411,4.4708,4.5995,4.6257,4.6681,4.8243,4.7968,4.7657,4.8368,4.9608,5.0326,4.9799,5.083,5.1703,5.1703,5.1703,5.1703,5.1703,5.1703,5.1703,5.1703,5.1703,5.1703,5.1703,5.1703,5.1703,5.1703,5.1703,5.1703,5.1703,5.1703,5.1703,5.1703,5.1703,5.1703,5.1703,5.1703,5.1703,5.1703,5.1703,5.1703,5.1703,5.1703,5.1703,5.1703,5.1703,5.1703,5.1703,5.1703,5.1703,5.1703,5.1703,5.1703,5.1715,5.1841,5.203,5.2243,5.2531,5.2802,5.3016,5.3162,5.3204,5.3204,5.3204,5.333,5.3501,5.3501,5.4242,5.5035,5.5188,5.6012,5.7008,5.7796,5.8353,5.8706,5.8706,5.8706,5.8706,5.8706,5.8706,5.8706,5.8706,5.8706,5.8706,5.8706,5.8706,5.8706,5.8706,5.8706,5.8706,5.8706,5.8706,5.8706,5.8706,5.8706,5.8706,5.8706,5.8706,5.8706,5.8706,5.8706,5.8706,5.8706,5.8706,5.8855,5.9189,5.9672,6.0266,4.1322,4.1562,4.1787,4.5663,4.5372,4.4852,4.7693,4.8461,4.8775,4.93,4.9433,4.9668,5.0456,5.0611,5.0844,5.1571,5.1703,5.1703,5.1703,5.1703,5.1703,5.1703,5.1703,5.1703,5.1703,5.1703,5.1703,5.1703,5.1703,5.1703,5.1703,5.1703,5.1703,5.1703,5.1703,5.1703,5.1703,5.1703,5.1703,5.1703,5.1703,5.1703,5.1703,5.1703,5.1703,5.1703,5.1703,5.1703,5.1703,5.1703,5.1703,5.1703,5.1703,5.1715,5.1753,5.1753,5.1778,5.1834,5.2162,5.2267,5.2406,5.3083,5.331,5.3392,5.3698,5.3803,5.3803,5.3803,5.3803,5.3822,5.3877,5.4509,5.5345,5.6209,5.697,5.7732,5.852,5.8706,5.8706,5.8706,5.8706,5.8706,5.8706,5.8706,5.8706,5.8706,5.8706,5.8706,5.8706,5.8706,5.8706,5.8706,5.8706,5.8706,5.8706,5.8706,5.8706,5.8706,5.8706,5.8706,5.8706,5.8706,5.8706,5.8706,5.8706,5.8706,5.8706,5.8762,5.9189,5.9895,6.0062,6.0935,3.8248,4.1002,4.3765,4.4253,4.5912,4.7844,4.9596,5.0138,5.0268,5.0248,5.0363,5.0673,5.1318,5.1439,5.1508,5.1678,5.1703,5.1703,5.1703,5.1703,5.1703,5.1703,5.1703,5.1703,5.1703,5.1703,5.1703,5.1703,5.1703,5.1703,5.1703,5.1703,5.1703,5.1703,5.1703,5.1703,5.1703,5.1703,5.1703,5.1703,5.1703,5.1703,5.1703,5.1703,5.1703,5.1703,5.1703,5.1703,5.1703,5.1703,5.1703,5.1703,5.1703,5.1853,5.2084,5.2084,5.2291,5.2581,5.266,5.2853,5.3083,5.3248,5.3481,5.3698,5.3784,5.3803,5.3803,5.3803,5.3803,5.3952,5.4583,5.5391,5.6227,5.7045,5.7369,5.7732,5.852,5.8706,5.8706,5.8706,5.8706,5.8706,5.8706,5.8706,5.8706,5.8706,5.8706,5.8706,5.8706,5.8706,5.8706,5.8706,5.8706,5.8706,5.8706,5.8706,5.8706,5.8706,5.8706,5.8706,5.8706,5.8706,5.8706,5.8706,5.8706,5.8706,5.8706,5.9337,5.9728,5.9932,6.125,6.2049,3.9418,4.1575,4.3494,4.5651,4.7529,4.9122,5.023,5.0875,5.1206,5.1092,5.1162,5.1328,5.164,5.1703,5.1703,5.1703,5.1703,5.1703,5.1703,5.1703,5.1703,5.1703,5.1703,5.1703,5.1703,5.1703,5.1703,5.1703,5.1703,5.1703,5.1703,5.1703,5.1703,5.1703,5.1703,5.1703,5.1703,5.1703,5.1703,5.1703,5.1703,5.1703,5.1703,5.1703,5.1703,5.1703,5.1703,5.1703,5.1703,5.1703,5.1703,5.1715,5.1883,5.2054,5.2208,5.2419,5.262,5.2817,5.2991,5.3143,5.3339,5.3491,5.3659,5.3803,5.3803,5.3803,5.3803,5.3803,5.3803,5.3989,5.4787,5.5642,5.6506,5.7313,5.7777,5.8186,5.8613,5.8706,5.8706,5.8706,5.8706,5.8706,5.8706,5.8706,5.8706,5.8706,5.8706,5.8706,5.8706,5.8706,5.8706,5.8706,5.8706,5.8706,5.8706,5.8706,5.8706,5.8706,5.8706,5.8706,5.8706,5.8706,5.8706,5.8706,5.8706,5.8892,5.9282,5.969,6.0303,6.112,6.1993,6.2606,4.0941,4.2029,4.2918,4.7973,4.9274,4.9551,5.0484,5.121,5.1703,5.1703,5.1703,5.1703,5.1703,5.1703,5.1703,5.1703,5.1703,5.1703,5.1703,5.1703,5.1703,5.1703,5.1703,5.1703,5.1703,5.1703,5.1703,5.1703,5.1703,5.1703,5.1703,5.1703,5.1703,5.1703,5.1703,5.1703,5.1703,5.1703,5.1703,5.1703,5.1703,5.1703,5.1703,5.1703,5.1703,5.1703,5.1703,5.1703,5.1703,5.1703,5.1722,5.1809,5.2084,5.2267,5.2435,5.2765,5.2926,5.3013,5.3279,5.34,5.3422,5.3708,5.3803,5.3803,5.3803,5.3803,5.3803,5.3803,5.3803,5.4007,5.4973,5.5763,5.6543,5.749,5.8223,5.8706,5.8706,5.8706,5.8706,5.8706,5.8706,5.8706,5.8706,5.8706,5.8706,5.8706,5.8706,5.8706,5.8706,5.8706,5.8706,5.8706,5.8706,5.8706,5.8706,5.8706,5.8706,5.8706,5.8706,5.8706,5.8706,5.8706,5.8762,5.8892,5.891,5.9226,5.9895,6.0192,6.1046,6.2402,6.2532,6.2959,3.7894,4.0683,4.4527,4.9342,4.9922,4.9697,5.1197,5.1609,5.1703,5.1703,5.1703,5.1703,5.1703,5.1703,5.1703,5.1703,5.1703,5.1703,5.1703,5.1703,5.1703,5.1703,5.1703,5.1703,5.1703,5.1703,5.1703,5.1703,5.1703,5.1703,5.1703,5.1703,5.1703,5.1703,5.1703,5.1703,5.1703,5.1703,5.1703,5.1703,5.1703,5.1703,5.1703,5.1703,5.1703,5.1703,5.1703,5.1703,5.1703,5.1703,5.1865,5.2144,5.2173,5.2595,5.3164,5.3206,5.343,5.3669,5.3717,5.3727,5.3737,5.3793,5.3803,5.3803,5.3803,5.3803,5.3803,5.3803,5.3803,5.4156,5.5726,5.6209,5.6692,5.8186,5.8613,5.8706,5.8706,5.8706,5.8706,5.8706,5.8706,5.8706,5.8706,5.8706,5.8706,5.8706,5.8706,5.8706,5.8706,5.8706,5.8706,5.8706,5.8706,5.8706,5.8706,5.8706,5.8706,5.8706,5.8706,5.8706,5.8706,5.8706,5.9022,5.9728,5.9746,5.9783,5.9895,6.1362,6.2179,6.242,6.3126,6.3498,3.914,4.2323,4.5757,4.9604,5.0268,5.023,5.1245,5.1589,5.1703,5.1703,5.1703,5.1703,5.1703,5.1703,5.1703,5.1703,5.1703,5.1703,5.1703,5.1703,5.1703,5.1703,5.1703,5.1703,5.1703,5.1703,5.1703,5.1703,5.1703,5.1703,5.1703,5.1703,5.1703,5.1703,5.1703,5.1703,5.1703,5.1703,5.1703,5.1703,5.1703,5.1703,5.1703,5.1703,5.1703,5.1703,5.1703,5.1809,5.197,5.197,5.2197,5.2545,5.274,5.3019,5.331,5.3521,5.3669,5.3803,5.3803,5.3803,5.3803,5.3803,5.3803,5.3803,5.3803,5.3803,5.3803,5.3803,5.4119,5.475,5.5986,5.6636,5.7268,5.8409,5.8706,5.8706,5.8706,5.8706,5.8706,5.8706,5.8706,5.8706,5.8706,5.8706,5.8706,5.8706,5.8706,5.8706,5.8706,5.8706,5.8706,5.8706,5.8706,5.8706,5.8706,5.8706,5.8706,5.8706,5.8706,5.8706,5.8706,5.8706,5.9077,5.9876,5.9895,6.0359,6.1306,6.203,6.2625,6.307,6.3442,6.359,3.9744,4.2323,4.4623,4.8418,4.9461,4.9843,5.1034,5.15,5.1703,5.1703,5.1703,5.1703,5.1703,5.1703,5.1703,5.1703,5.1703,5.1703,5.1703,5.1703,5.1703,5.1703,5.1703,5.1703,5.1703,5.1703,5.1703,5.1703,5.1703,5.1703,5.1703,5.1703,5.1703,5.1703,5.1703,5.1703,5.1703,5.1703,5.1703,5.1703,5.1703,5.1703,5.1703,5.1703,5.1753,5.1822,5.174,5.189,5.2196,5.2196,5.2499,5.2959,5.3196,5.3341,5.3461,5.3698,5.3803,5.3803,5.3803,5.3803,5.3803,5.3803,5.3803,5.3803,5.3803,5.3803,5.3803,5.3803,5.4379,5.5196,5.6079,5.6896,5.7703,5.8502,5.8706,5.8706,5.8706,5.8706,5.8706,5.8706,5.8706,5.8706,5.8706,5.8706,5.8706,5.8706,5.8706,5.8706,5.8706,5.8706,5.8706,5.8706,5.8706,5.8706,5.8706,5.8706,5.8706,5.8706,5.8706,5.8706,5.8706,5.8892,5.9393,6.021,6.0433,6.1139,6.2402,6.2606,6.3015,6.359,6.359,6.359,3.754,3.8299,3.9644,4.5233,4.6756,4.7678,5.0624,5.15,5.1703,5.1703,5.1703,5.1703,5.1703,5.1703,5.1703,5.1703,5.1703,5.1703,5.1703,5.1703,5.1703,5.1703,5.1703,5.1703,5.1703,5.1703,5.1703,5.1703,5.1703,5.1703,5.1703,5.1703,5.1703,5.1703,5.1703,5.1703,5.1703,5.1703,5.1703,5.1703,5.1703,5.1703,5.1703,5.1703,5.1865,5.2167,5.1846,5.189,5.2196,5.2196,5.261,5.3287,5.3289,5.3501,5.3784,5.3784,5.3803,5.3803,5.3803,5.3803,5.3803,5.3803,5.3803,5.3803,5.3803,5.3803,5.3803,5.3803,5.4379,5.5196,5.6079,5.6896,5.7703,5.8502,5.8706,5.8706,5.8706,5.8706,5.8706,5.8706,5.8706,5.8706,5.8706,5.8706,5.8706,5.8706,5.8706,5.8706,5.8706,5.8706,5.8706,5.8706,5.8706,5.8706,5.8706,5.8706,5.8706,5.8706,5.8706,5.8706,5.8706,5.943,6.0248,6.1131,6.1882,6.2309,6.2402,6.3163,6.3553,6.359,6.359,6.359,3.7369,3.837,3.9518,4.3064,4.5736,4.7686,4.8582,5.0297,5.1703,5.1703,5.1703,5.1703,5.1703,5.1703,5.1703,5.1703,5.1703,5.1703,5.1703,5.1703,5.1703,5.1703,5.1703,5.1703,5.1703,5.1703,5.1703,5.1703,5.1703,5.1703,5.1703,5.1703,5.1703,5.1703,5.1703,5.1703,5.1703,5.1703,5.1703,5.1703,5.1703,5.1703,5.1703,5.1703,5.1878,5.2185,5.206,5.2355,5.2911,5.2911,5.3188,5.362,5.362,5.3688,5.3803,5.3803,5.3803,5.3803,5.3803,5.3803,5.3803,5.3803,5.3803,5.3803,5.3803,5.3803,5.3803,5.3803,5.4769,5.5912,5.6227,5.7276,5.8335,5.8632,5.8706,5.8706,5.8706,5.8706,5.8706,5.8706,5.8706,5.8706,5.8706,5.8706,5.8706,5.8706,5.8706,5.8706,5.8706,5.8706,5.8706,5.8706,5.8706,5.8706,5.8706,5.8706,5.8706,5.8706,5.8706,5.8929,5.9449,5.9746,6.0545,6.1938,6.2253,6.2643,6.3163,6.346,6.359,6.359,6.359,6.359,3.6259,0.0,0.0,4.0646,4.319,4.5521,4.7043,4.8979,5.067,5.1517,5.1703,5.1703,5.1703,5.1703,5.1703,5.1703,5.1703,5.1703,5.1703,5.1703,5.1703,5.1703,5.1703,5.1703,5.1703,5.1703,5.1703,5.1703,5.1703,5.1703,5.1703,5.1703,5.1703,5.1703,5.1703,5.1703,5.1703,5.1703,5.1703,5.1703,5.1703,5.1703,5.1703,5.1822,5.2054,5.2419,5.2527,5.2839,5.3289,5.3289,5.3501,5.3803,5.3803,5.3803,5.3803,5.3803,5.3803,5.3803,5.3803,5.3803,5.3803,5.3803,5.3803,5.3803,5.3803,5.3803,5.3859,5.4119,5.5215,5.6357,5.6636,5.7703,5.8706,5.8706,5.8706,5.8706,5.8706,5.8706,5.8706,5.8706,5.8706,5.8706,5.8706,5.8706,5.8706,5.8706,5.8706,5.8706,5.8706,5.8706,5.8706,5.8706,5.8706,5.8706,5.8706,5.8706,5.8706,5.8706,5.8706,5.9059,5.9876,6.0173,6.099,6.2365,6.2662,6.307,6.359,6.359,6.359,6.359,6.359,6.359,0.0,0.0,0.0,0.0,3.9059,4.0925,4.6042,4.7553,4.8583,5.1069,5.1637,5.169,5.1703,5.1703,5.1703,5.1703,5.1703,5.1703,5.1703,5.1703,5.1703,5.1703,5.1703,5.1703,5.1703,5.1703,5.1703,5.1703,5.1703,5.1703,5.1703,5.1703,5.1703,5.1703,5.1703,5.1703,5.1703,5.1703,5.1703,5.1703,5.1703,5.1703,5.1715,5.2054,5.2431,5.2817,5.3143,5.3318,5.331,5.331,5.3511,5.3803,5.3803,5.3803,5.3803,5.3803,5.3803,5.3803,5.3803,5.3803,5.3803,5.3803,5.3803,5.3803,5.3803,5.3803,5.397,5.4769,5.5633,5.6487,5.7323,5.8112,5.8706,5.8706,5.8698,5.8716,5.8706,5.8698,5.8716,5.8706,5.8706,5.8706,5.8706,5.8706,5.8706,5.8706,5.8706,5.8706,5.8706,5.8706,5.8706,5.8706,5.8706,5.8706,5.8706,5.8706,5.8706,5.8706,5.8725,5.9096,5.9895,6.0768,6.1603,6.242,6.32,6.359,6.359,6.359,6.359,6.359,6.359,6.359,3.4101,0.0,0.0,0.0,0.0,0.0,4.1794,4.4969,4.7805,4.8748,5.0264,5.1462,5.1665,5.1703,5.1703,5.1703,5.1703,5.1703,5.1703,5.1703,5.1703,5.1703,5.1703,5.1703,5.1703,5.1703,5.1703,5.1703,5.1703,5.1703,5.1703,5.1703,5.1703,5.1703,5.1703,5.1703,5.1703,5.1703,5.1703,5.1703,5.1703,5.1703,5.1715,5.2054,5.2431,5.2817,5.3143,5.3451,5.3659,5.3659,5.3717,5.3803,5.3803,5.3803,5.3803,5.3803,5.3803,5.3803,5.3803,5.3803,5.3803,5.3803,5.3803,5.3803,5.3803,5.3803,5.397,5.4769,5.5633,5.6617,5.8,5.852,5.8706,5.8706,5.8803,5.8874,5.8729,5.8803,5.8874,5.8719,5.8706,5.8706,5.8706,5.8706,5.8706,5.8706,5.8706,5.8706,5.8706,5.8706,5.8706,5.8706,5.8706,5.8706,5.8706,5.8706,5.8706,5.8706,5.9245,5.995,6.0805,6.1622,6.2439,6.3256,6.3479,6.359,6.359,6.359,6.359,6.359,6.359,6.359,0.0,0.0,0.0,0.0,0.0,0.0,4.1217,4.3962,4.6651,4.8998,5.0545,5.1513,5.1665,5.1703,5.1703,5.1703,5.1703,5.1703,5.1703,5.1703,5.1703,5.1703,5.1703,5.1703,5.1703,5.1703,5.1703,5.1703,5.1703,5.1703,5.1703,5.1703,5.1703,5.1703,5.1703,5.1703,5.1703,5.1703,5.1703,5.1703,5.1703,5.1703,5.1715,5.2209,5.2586,5.2817,5.33,5.362,5.3803,5.3803,5.3803,5.3803,5.3803,5.3803,5.3803,5.3803,5.3803,5.3803,5.3803,5.3803,5.3803,5.3803,5.3803,5.3803,5.3803,5.3803,5.4044,5.5215,5.6385,5.7548,5.8551,5.8832,5.8862,5.8924,5.9042,5.9082,5.8974,5.8983,5.8944,5.8739,5.8706,5.8706,5.8706,5.8706,5.8706,5.8706,5.8706,5.8706,5.8706,5.8706,5.8706,5.8706,5.8706,5.8706,5.8706,5.8706,5.8706,5.8706,5.9467,6.0285,6.1168,6.1975,6.2773,6.3572,6.359,6.359,6.359,6.359,6.359,6.359,6.359,6.359,0.0,0.0,0.0,0.0,0.0,0.0,4.2008,4.3348,4.483,4.9468,5.0628,5.0806,5.0843,5.0772,5.0754,5.0825,5.1011,5.1267,5.1637,5.1703,5.1703,5.1703,5.1703,5.1703,5.1703,5.1703,5.1703,5.1703,5.1703,5.1703,5.1703,5.1703,5.1703,5.1703,5.1703,5.1703,5.1703,5.1703,5.1703,5.1703,5.1703,5.1703,5.1728,5.2467,5.2794,5.2839,5.3511,5.3803,5.3803,5.3803,5.3803,5.3803,5.3803,5.3803,5.3803,5.3803,5.3803,5.3803,5.3803,5.3803,5.3803,5.3803,5.3803,5.3803,5.3803,5.3803,5.4147,5.5837,5.7464,5.8781,5.8945,5.9014,5.9072,5.9253,5.9327,5.9337,5.9299,5.9159,5.8965,5.877,5.8727,5.8706,5.8706,5.8706,5.8706,5.8706,5.8706,5.8706,5.8706,5.8706,5.8706,5.8706,5.8706,5.8706,5.8706,5.8706,5.8743,5.8836,5.9598,6.0433,6.1298,6.2105,6.2866,6.359,6.359,6.359,6.359,6.359,6.359,6.359,6.359,6.359,0.0,0.0,0.0,0.0,0.0,0.0,3.7415,3.9222,4.0903,4.2181,4.3898,4.5249,4.5458,4.5023,4.4805,4.54,4.6714,4.8615,5.1321,5.1703,5.1703,5.1703,5.1703,5.1703,5.1703,5.1703,5.1703,5.1703,5.1703,5.1703,5.1703,5.1703,5.1703,5.1703,5.1703,5.1703,5.1703,5.1703,5.1703,5.1703,5.1703,5.1703,5.1728,5.2467,5.2794,5.2839,5.3511,5.3803,5.3803,5.3803,5.3803,5.3803,5.3803,5.3803,5.3803,5.3803,5.3803,5.3803,5.3803,5.3803,5.3803,5.3803,5.3803,5.3803,5.3803,5.3803,5.4147,5.5837,5.7584,5.8964,5.8984,5.9111,5.9244,5.9281,5.9428,5.95,5.9327,5.9262,5.9178,5.8975,5.8803,5.8706,5.8706,5.8706,5.8706,5.8706,5.8706,5.8706,5.8706,5.8706,5.8706,5.8706,5.8706,5.8706,5.8706,5.8706,5.8985,5.9616,6.047,6.1306,6.2123,6.294,6.3442,6.359,6.359,6.359,6.359,6.359,6.359,6.359,6.359,6.359,0.0,0.0,0.0,3.4854,0.0,0.0,0.0,3.8982,4.0357,4.1797,4.3004,4.3834,4.3974,4.3692,4.358,4.3938,4.5859,4.7465,4.7951,5.0142,5.1703,5.1703,5.1703,5.1703,5.1703,5.1703,5.1703,5.1703,5.1703,5.1703,5.1703,5.1703,5.1703,5.1703,5.1703,5.1703,5.1703,5.1703,5.1703,5.1703,5.1865,5.1963,5.197,5.2702,5.3056,5.3088,5.358,5.3803,5.3803,5.3803,5.3803,5.3803,5.3803,5.3803,5.3803,5.3803,5.3803,5.3803,5.3803,5.3803,5.3803,5.3803,5.3803,5.3803,5.3803,5.4379,5.5244,5.6179,5.7684,5.9043,5.9262,5.9364,5.9473,5.9579,5.9685,5.9708,5.9623,5.9526,5.9392,5.9187,5.8993,5.8821,5.8727,5.8706,5.8706,5.8706,5.8706,5.8706,5.8706,5.8706,5.8706,5.8706,5.8706,5.8706,5.8706,5.8706,5.904,5.9858,6.0712,6.1558,6.2365,6.3163,6.359,6.359,6.359,6.359,6.359,6.359,6.359,6.359,6.359,6.359,0.0,0.0,0.0,0.0,0.0,3.6353,0.0,0.0,0.0,4.2087,4.2395,4.2343,4.2501,4.229,4.2185,4.2466,4.4571,4.5564,4.3755,4.7423,5.0244,5.0138,5.1048,5.1471,5.0846,5.078,5.106,5.1637,5.1149,5.106,5.1672,5.1703,5.1703,5.1703,5.1703,5.1703,5.1703,5.1703,5.174,5.1797,5.206,5.225,5.2343,5.2998,5.3289,5.3328,5.3649,5.3803,5.3803,5.3803,5.3803,5.3803,5.3803,5.3803,5.3803,5.3803,5.3803,5.3803,5.3803,5.3803,5.3803,5.3803,5.3803,5.3803,5.3803,5.4964,5.6341,5.6508,5.7771,5.913,5.9464,5.9588,5.9702,5.9861,5.9893,5.9893,5.9893,5.9744,5.9535,5.9346,5.913,5.8944,5.8729,5.8706,5.8706,5.8706,5.8706,5.8706,5.8706,5.8706,5.8706,5.8706,5.8706,5.8706,5.8706,5.8836,5.9282,6.0099,6.0953,6.1789,6.2606,6.3256,6.359,6.359,6.359,6.359,6.359,6.359,6.359,6.359,6.359,6.359,0.0,0.0,0.0,0.0,3.5476,0.0,0.0,0.0,3.683,3.7104,0.0,3.6388,3.7045,0.0,0.0,3.6959,3.8766,4.0154,4.0609,4.3259,4.496,4.4485,4.8728,5.0614,4.7812,4.7526,4.8687,5.1476,4.9115,4.8758,5.156,5.1703,5.1703,5.1703,5.1703,5.1703,5.1703,5.1703,5.1859,5.2144,5.2173,5.2396,5.2732,5.3122,5.3289,5.3328,5.3649,5.3803,5.3803,5.3803,5.3803,5.3803,5.3803,5.3803,5.3803,5.3803,5.3803,5.3803,5.3803,5.3803,5.3803,5.3803,5.3803,5.3803,5.3803,5.4964,5.6302,5.6332,5.7752,5.929,5.9309,5.9597,5.9869,5.9885,5.9893,5.9893,5.9893,5.9744,5.9535,5.9346,5.913,5.8944,5.8729,5.8706,5.8706,5.8706,5.8706,5.8706,5.8706,5.8706,5.8706,5.8706,5.8706,5.8706,5.8706,5.9356,6.0136,6.099,6.1808,6.2625,6.3423,6.3553,6.359,6.359,6.359,6.359,6.359,6.359,6.359,6.359,6.359,6.359,0.0,0.0,0.0,0.0,0.0,0.0,3.6271,0.0,3.6301,0.0,0.0,0.0,0.0,0.0,0.0,0.0,3.7551,3.8485,3.7042,4.0278,4.2928,4.3273,4.5457,4.6962,4.7009,4.8651,5.0275,5.1601,5.0471,5.0298,5.1631,5.1703,5.1703,5.1703,5.1703,5.1785,5.1982,5.1982,5.2173,5.2545,5.2758,5.2922,5.3109,5.344,5.359,5.36,5.3737,5.3803,5.3803,5.3803,5.3803,5.3803,5.3803,5.3803,5.3803,5.3803,5.3803,5.3803,5.3803,5.3803,5.3803,5.3803,5.3803,5.3803,5.3803,5.4964,5.6332,5.6441,5.7847,5.929,5.929,5.9518,5.9727,5.9727,5.9727,5.9761,5.9869,5.9744,5.9535,5.9346,5.913,5.8944,5.8729,5.8706,5.8706,5.8706,5.8706,5.8706,5.8706,5.8706,5.8706,5.8706,5.8706,5.8706,5.8706,5.9449,6.0266,6.115,6.2383,6.3256,6.359,6.359,6.359,6.359,6.359,6.359,6.359,6.359,6.359,6.359,6.359,6.359,3.7557,0.0,0.0,0.0,0.0,0.0,0.0,0.0,0.0,0.0,0.0,0.0,0.0,0.0,3.5587,0.0,0.0,3.6873,3.4633,3.7416,3.9929,4.0557,4.1373,4.2894,4.5456,4.7776,4.949,5.0364,5.0418,5.0792,5.1637,5.1703,5.1703,5.1703,5.1703,5.1853,5.2203,5.2196,5.2447,5.2937,5.3175,5.3359,5.3451,5.3688,5.3803,5.3803,5.3803,5.3803,5.3803,5.3803,5.3803,5.3803,5.3803,5.3803,5.3803,5.3803,5.3803,5.3803,5.3803,5.3803,5.3803,5.3803,5.3803,5.3803,5.3803,5.4964,5.6332,5.6489,5.7809,5.9215,5.9215,5.9373,5.9526,5.9598,5.9607,5.965,5.9786,5.971,5.9518,5.9281,5.9092,5.8944,5.8729,5.8706,5.8706,5.8706,5.8706,5.8706,5.8706,5.8706,5.8706,5.8706,5.8706,5.878,5.9003,5.9783,6.0712,6.1789,6.294,6.359,6.359,6.359,6.359,6.359,6.359,6.359,6.359,6.359,6.359,6.359,6.359,6.359,0.0,0.0,0.0,3.6896,0.0,0.0,0.0,0.0,3.6301,0.0,0.0,0.0,3.6163,3.5138,3.4397,0.0,0.0,0.0,0.0,3.4403,3.4505,3.4137,3.6292,3.9023,4.2155,4.2547,4.3868,4.692,4.7152,4.849,5.1542,5.1703,5.1703,5.1703,5.1703,5.1853,5.2203,5.2196,5.2554,5.3279,5.3289,5.3481,5.3775,5.3803,5.3803,5.3803,5.3803,5.3803,5.3803,5.3803,5.3803,5.3803,5.3803,5.3803,5.3803,5.3803,5.3803,5.3803,5.3803,5.3803,5.3803,5.3803,5.3803,5.3803,5.3803,5.4964,5.6302,5.6312,5.7605,5.9004,5.9004,5.9159,5.9364,5.9544,5.9607,5.9588,5.9616,5.9597,5.9482,5.9082,5.8994,5.8944,5.8729,5.8706,5.8706,5.8706,5.8706,5.8706,5.8706,5.8706,5.8706,5.8706,5.8706,5.9022,5.9802,6.0656,6.1826,6.3423,6.3572,6.359,6.359,6.359,6.359,6.359,6.359,6.359,6.359,6.359,6.359,6.359,6.359,6.359,4.3384,4.4035,4.4178,3.9628,0.0,0.0,0.0,0.0,0.0,0.0,0.0,0.0,0.0,0.0,0.0,0.0,0.0,0.0,0.0,3.2746,3.2824,3.2695,3.5472,3.7866,3.9075,4.2958,4.5849,4.692,4.8936,5.0578,5.1649,5.1703,5.1703,5.1703,5.1703,5.1993,5.2597,5.2597,5.2933,5.363,5.363,5.3688,5.3803,5.3803,5.3803,5.3803,5.3803,5.3803,5.3803,5.3803,5.3803,5.3803,5.3803,5.3803,5.3803,5.3803,5.3803,5.3803,5.3803,5.3803,5.3803,5.3803,5.3803,5.3803,5.3803,5.4964,5.6302,5.6302,5.7595,5.8965,5.8852,5.9052,5.9281,5.9215,5.9299,5.941,5.941,5.9309,5.9159,5.9024,5.8894,5.8781,5.8698,5.8706,5.8706,5.8706,5.8706,5.8706,5.8706,5.8706,5.8706,5.8706,5.8706,5.9022,5.9839,6.1195,6.2439,6.3535,6.359,6.359,6.359,6.359,6.359,6.359,6.359,6.359,6.359,6.359,6.359,6.359,6.359,6.359,4.5905,4.6587,4.666,4.2421,4.2465,4.2532,3.858,0.0,3.7698,0.0,0.0,0.0,0.0,0.0,0.0,0.0,0.0,0.0,0.0,3.249,3.241,3.2482,3.4604,3.6441,3.7396,4.1721,4.5189,4.6866,4.9151,5.0828,5.1667,5.1703,5.1703,5.1703,5.1703,5.2054,5.2783,5.2794,5.3141,5.3803,5.3803,5.3803,5.3803,5.3803,5.3803,5.3803,5.3803,5.3803,5.3803,5.3803,5.3803,5.3803,5.3803,5.3803,5.3803,5.3803,5.3803,5.3803,5.3803,5.3803,5.3803,5.3803,5.3803,5.3803,5.3803,5.475,5.5957,5.6562,5.7573,5.8566,5.9008,5.9107,5.9081,5.9004,5.9092,5.9187,5.9187,5.9082,5.8975,5.8914,5.8791,5.8706,5.8706,5.8706,5.8706,5.8706,5.8706,5.8706,5.8706,5.8706,5.8706,5.8706,5.8706,5.9152,6.0266,6.1882,6.3052,6.3572,6.359,6.359,6.359,6.359,6.372,6.4018,6.3758,6.3739,6.4036,6.3739,6.359,6.359,6.359,6.359]}]]